[[{"header":{"parameterUnit":"m.s-1","parameterCategory":1,"la1":30.6,"la2":29.2853,"lo1":-89.7004,"lo2":-87.6739,"dy":0.0162,"dx":0.0183,"nx":112,"ny":82,"refTime":"2025-05-17T06:00:00:Z","depth":0,"parameterNumber":2,"parameterNumberName":"U-component_of_WINDS"},"data":[0.0,0.0,0.0,0.0,0.0,0.0,0.0,0.0,0.0,0.0,0.0,0.0,0.0,0.0,0.0,0.0,0.0,0.0,0.0,0.0,0.0,0.0,0.0,0.0,0.0,0.0,0.0,0.0,0.0,0.0,0.0,0.0,0.0,0.0,0.0,0.0,0.0,0.0,0.0,0.0,0.0,0.0,0.0,0.0,0.0,0.0,0.0,0.0,0.0,0.0,0.0,0.0,0.0,0.0,0.0,0.0,0.0,0.0,0.0,0.0,0.0,0.0,0.0,0.0,0.0,0.0,0.0,0.0,0.0,0.0,0.0,0.0,0.0,0.0,0.0,0.0,0.0,0.0,0.0,0.0,0.0,0.0,0.0,0.0,0.0,0.0,0.0,0.0,0.0,0.0,0.0,4.1818,4.4097,4.5476,4.5476,4.4938,4.3246,4.0046,0.0,0.0,0.0,0.0,0.0,0.0,0.0,0.0,0.0,0.0,0.0,0.0,0.0,0.0,0.0,0.0,0.0,0.0,0.0,0.0,0.0,0.0,0.0,0.0,0.0,0.0,0.0,0.0,0.0,0.0,0.0,0.0,0.0,0.0,0.0,0.0,0.0,0.0,0.0,0.0,0.0,0.0,0.0,0.0,0.0,0.0,0.0,0.0,0.0,0.0,0.0,0.0,0.0,0.0,0.0,0.0,0.0,0.0,0.0,0.0,0.0,0.0,0.0,0.0,0.0,0.0,0.0,0.0,0.0,0.0,0.0,0.0,0.0,0.0,0.0,0.0,0.0,0.0,0.0,0.0,0.0,0.0,0.0,0.0,0.0,0.0,0.0,0.0,0.0,0.0,0.0,0.0,0.0,0.0,0.0,0.0,0.0,0.0,0.0,0.0,0.0,0.0,0.0,0.0,3.9948,4.3876,4.4668,4.4919,4.4919,4.4161,4.2508,3.9755,0.0,0.0,0.0,0.0,0.0,0.0,0.0,0.0,0.0,0.0,0.0,0.0,0.0,0.0,0.0,0.0,0.0,0.0,0.0,0.0,0.0,0.0,0.0,0.0,0.0,0.0,0.0,0.0,0.0,0.0,0.0,0.0,0.0,0.0,0.0,0.0,0.0,0.0,0.0,0.0,0.0,0.0,0.0,0.0,0.0,0.0,0.0,0.0,0.0,0.0,0.0,0.0,0.0,0.0,0.0,0.0,0.0,0.0,0.0,0.0,0.0,0.0,0.0,0.0,0.0,0.0,0.0,0.0,0.0,0.0,0.0,0.0,0.0,0.0,0.0,0.0,0.0,0.0,0.0,0.0,0.0,0.0,0.0,0.0,0.0,0.0,0.0,0.0,0.0,0.0,0.0,0.0,0.0,0.0,0.0,0.0,0.0,0.0,0.0,0.0,0.0,0.0,0.0,3.9425,4.1309,4.4646,4.5159,4.5222,4.5222,4.46,4.2915,3.9894,3.892,0.0,0.0,0.0,0.0,0.0,0.0,0.0,0.0,0.0,0.0,0.0,0.0,0.0,0.0,0.0,0.0,0.0,0.0,0.0,0.0,0.0,0.0,0.0,0.0,0.0,0.0,0.0,0.0,0.0,0.0,0.0,0.0,0.0,0.0,0.0,0.0,0.0,0.0,0.0,0.0,0.0,0.0,0.0,0.0,0.0,0.0,0.0,0.0,0.0,0.0,0.0,0.0,0.0,0.0,0.0,0.0,0.0,0.0,0.0,0.0,0.0,0.0,0.0,0.0,0.0,0.0,0.0,0.0,0.0,0.0,0.0,0.0,0.0,0.0,0.0,0.0,0.0,0.0,0.0,0.0,0.0,0.0,0.0,0.0,0.0,0.0,0.0,0.0,0.0,0.0,0.0,0.0,0.0,0.0,0.0,0.0,0.0,0.0,0.0,0.0,0.0,0.0,4.1927,4.3,4.4887,4.5302,4.5419,4.5419,4.4668,4.2939,3.9984,3.8121,0.0,0.0,0.0,0.0,0.0,0.0,0.0,0.0,0.0,0.0,0.0,0.0,0.0,0.0,0.0,0.0,0.0,0.0,0.0,0.0,0.0,0.0,0.0,0.0,0.0,0.0,0.0,0.0,0.0,0.0,0.0,0.0,0.0,0.0,0.0,0.0,0.0,0.0,0.0,0.0,0.0,0.0,0.0,0.0,0.0,0.0,0.0,0.0,0.0,0.0,0.0,0.0,0.0,0.0,0.0,0.0,0.0,0.0,0.0,0.0,0.0,0.0,0.0,0.0,0.0,0.0,0.0,0.0,0.0,0.0,0.0,0.0,0.0,0.0,0.0,0.0,0.0,0.0,0.0,0.0,0.0,0.0,0.0,0.0,0.0,0.0,0.0,0.0,0.0,0.0,0.0,0.0,0.0,0.0,0.0,0.0,0.0,0.0,0.0,0.0,0.0,0.0,4.254,4.4635,4.4806,4.4849,4.4868,4.4868,4.3398,4.1633,3.965,3.6554,0.0,0.0,0.0,0.0,0.0,0.0,0.0,0.0,0.0,0.0,0.0,0.0,0.0,0.0,0.0,0.0,0.0,0.0,0.0,0.0,0.0,0.0,0.0,0.0,0.0,0.0,0.0,0.0,0.0,0.0,0.0,0.0,0.0,0.0,0.0,0.0,0.0,0.0,0.0,0.0,0.0,0.0,0.0,0.0,0.0,0.0,0.0,0.0,0.0,0.0,0.0,0.0,0.0,0.0,0.0,0.0,0.0,0.0,0.0,0.0,0.0,0.0,0.0,0.0,0.0,0.0,0.0,0.0,0.0,0.0,0.0,0.0,0.0,0.0,0.0,0.0,0.0,0.0,0.0,0.0,0.0,0.0,0.0,0.0,0.0,0.0,0.0,0.0,0.0,0.0,0.0,0.0,0.0,0.0,0.0,0.0,0.0,0.0,0.0,0.0,0.0,0.0,4.2325,4.4484,0.0,4.5698,4.5896,4.5341,4.4567,4.2851,3.9921,0.0,0.0,0.0,0.0,0.0,0.0,0.0,0.0,0.0,0.0,0.0,0.0,0.0,0.0,0.0,0.0,0.0,0.0,0.0,0.0,0.0,0.0,0.0,0.0,0.0,0.0,0.0,0.0,0.0,0.0,0.0,0.0,0.0,0.0,0.0,0.0,0.0,0.0,0.0,0.0,0.0,0.0,0.0,0.0,0.0,0.0,0.0,0.0,0.0,0.0,0.0,0.0,0.0,0.0,0.0,0.0,0.0,0.0,0.0,0.0,0.0,0.0,0.0,0.0,0.0,0.0,0.0,0.0,0.0,0.0,0.0,0.0,0.0,0.0,0.0,0.0,0.0,0.0,0.0,0.0,0.0,0.0,0.0,0.0,0.0,0.0,0.0,0.0,0.0,0.0,0.0,0.0,0.0,0.0,0.0,0.0,0.0,0.0,0.0,0.0,0.0,0.0,3.9255,4.2648,4.5033,0.0,4.6455,4.6663,4.6067,4.5093,4.3195,4.0112,0.0,0.0,0.0,0.0,0.0,0.0,0.0,0.0,0.0,0.0,0.0,0.0,0.0,0.0,0.0,0.0,0.0,0.0,0.0,0.0,0.0,0.0,0.0,0.0,0.0,0.0,0.0,0.0,0.0,0.0,0.0,0.0,0.0,0.0,0.0,0.0,0.0,0.0,0.0,0.0,0.0,0.0,0.0,0.0,0.0,0.0,0.0,0.0,0.0,0.0,0.0,0.0,0.0,0.0,0.0,0.0,0.0,0.0,0.0,0.0,0.0,0.0,0.0,0.0,0.0,0.0,0.0,0.0,0.0,0.0,0.0,0.0,0.0,0.0,0.0,0.0,0.0,0.0,0.0,0.0,0.0,0.0,0.0,0.0,0.0,0.0,0.0,0.0,0.0,0.0,0.0,0.0,0.0,0.0,0.0,0.0,0.0,0.0,0.0,0.0,0.0,0.0,3.9669,4.3781,4.6624,4.6895,4.6913,4.6913,4.6913,4.4566,4.2179,0.0,0.0,0.0,0.0,0.0,0.0,0.0,0.0,0.0,0.0,0.0,0.0,0.0,0.0,0.0,0.0,0.0,0.0,0.0,0.0,0.0,0.0,0.0,0.0,0.0,0.0,0.0,0.0,0.0,0.0,0.0,0.0,0.0,0.0,0.0,0.0,0.0,0.0,0.0,0.0,0.0,0.0,0.0,0.0,0.0,0.0,0.0,0.0,0.0,0.0,0.0,0.0,0.0,0.0,0.0,0.0,0.0,0.0,0.0,0.0,0.0,0.0,0.0,0.0,0.0,0.0,0.0,0.0,0.0,0.0,0.0,0.0,0.0,0.0,0.0,0.0,0.0,0.0,0.0,0.0,0.0,0.0,0.0,0.0,0.0,0.0,0.0,0.0,0.0,0.0,0.0,0.0,0.0,0.0,0.0,0.0,0.0,0.0,0.0,0.0,0.0,0.0,0.0,4.0509,4.4804,4.7665,4.7722,4.7759,4.7434,4.6683,4.4863,4.2543,3.9788,0.0,0.0,0.0,0.0,0.0,0.0,0.0,0.0,0.0,0.0,0.0,0.0,0.0,0.0,0.0,0.0,0.0,0.0,0.0,0.0,0.0,0.0,0.0,0.0,0.0,0.0,0.0,0.0,0.0,0.0,0.0,0.0,0.0,0.0,0.0,0.0,0.0,0.0,0.0,0.0,0.0,0.0,0.0,0.0,0.0,0.0,0.0,0.0,0.0,0.0,0.0,0.0,0.0,0.0,0.0,0.0,0.0,0.0,0.0,0.0,0.0,0.0,0.0,0.0,0.0,0.0,0.0,0.0,0.0,0.0,0.0,0.0,0.0,0.0,0.0,0.0,0.0,0.0,0.0,0.0,0.0,0.0,0.0,0.0,0.0,0.0,0.0,0.0,0.0,0.0,0.0,0.0,0.0,0.0,0.0,0.0,0.0,0.0,0.0,0.0,0.0,0.0,4.0995,4.5304,4.824,4.8586,4.8625,4.8222,4.7221,4.5818,4.3474,3.9891,0.0,0.0,0.0,0.0,0.0,0.0,0.0,0.0,0.0,0.0,0.0,0.0,0.0,0.0,0.0,0.0,0.0,0.0,0.0,0.0,0.0,0.0,0.0,0.0,0.0,0.0,0.0,0.0,0.0,0.0,0.0,0.0,0.0,0.0,0.0,0.0,0.0,0.0,0.0,0.0,0.0,0.0,0.0,0.0,0.0,0.0,0.0,0.0,0.0,0.0,0.0,0.0,0.0,0.0,0.0,0.0,0.0,0.0,0.0,0.0,0.0,0.0,0.0,0.0,0.0,0.0,0.0,0.0,0.0,0.0,0.0,0.0,0.0,0.0,0.0,0.0,0.0,0.0,0.0,0.0,0.0,0.0,0.0,0.0,0.0,0.0,0.0,0.0,0.0,0.0,0.0,0.0,0.0,0.0,0.0,0.0,0.0,0.0,0.0,0.0,0.0,0.0,4.138,4.5457,4.8471,4.9413,4.9452,4.9048,4.8126,4.7028,4.4546,4.0281,0.0,0.0,0.0,0.0,0.0,0.0,0.0,0.0,0.0,0.0,0.0,0.0,0.0,0.0,0.0,0.0,0.0,0.0,0.0,0.0,0.0,0.0,0.0,0.0,0.0,0.0,0.0,0.0,0.0,0.0,0.0,0.0,0.0,0.0,0.0,0.0,0.0,0.0,0.0,0.0,0.0,0.0,0.0,0.0,0.0,0.0,0.0,0.0,0.0,0.0,0.0,0.0,0.0,0.0,0.0,0.0,0.0,0.0,0.0,0.0,3.5638,0.0,0.0,0.0,0.0,0.0,0.0,0.0,0.0,0.0,0.0,0.0,0.0,0.0,0.0,0.0,0.0,0.0,0.0,0.0,0.0,0.0,0.0,0.0,0.0,0.0,0.0,0.0,0.0,0.0,0.0,0.0,0.0,0.0,0.0,0.0,0.0,0.0,0.0,0.0,0.0,0.0,4.3044,4.6186,4.8702,5.026,4.9798,4.8971,4.7867,4.6373,4.4145,4.1035,3.8641,0.0,0.0,0.0,0.0,0.0,0.0,0.0,0.0,0.0,0.0,0.0,0.0,0.0,0.0,0.0,0.0,0.0,0.0,0.0,0.0,0.0,0.0,0.0,0.0,0.0,0.0,0.0,0.0,0.0,0.0,0.0,0.0,0.0,0.0,0.0,0.0,0.0,0.0,0.0,0.0,0.0,0.0,0.0,0.0,0.0,0.0,0.0,0.0,0.0,0.0,0.0,0.0,0.0,0.0,0.0,0.0,0.0,0.0,0.0,0.0,3.7164,0.0,0.0,0.0,0.0,0.0,0.0,0.0,0.0,0.0,0.0,0.0,0.0,0.0,0.0,0.0,0.0,0.0,0.0,0.0,0.0,0.0,0.0,0.0,0.0,0.0,0.0,0.0,0.0,0.0,0.0,0.0,0.0,0.0,0.0,0.0,0.0,0.0,0.0,0.0,0.0,4.3693,4.6454,4.8779,5.051,5.0279,4.9452,4.8008,4.6987,4.5123,4.2119,3.9827,0.0,0.0,0.0,0.0,0.0,0.0,0.0,0.0,0.0,0.0,0.0,0.0,0.0,0.0,0.0,0.0,0.0,0.0,0.0,0.0,0.0,0.0,0.0,0.0,0.0,0.0,0.0,0.0,0.0,0.0,0.0,0.0,0.0,0.0,0.0,0.0,0.0,0.0,0.0,0.0,0.0,0.0,0.0,0.0,0.0,0.0,0.0,0.0,0.0,0.0,0.0,0.0,0.0,4.1735,4.256,4.3766,4.3794,4.4171,4.4575,4.1072,4.0095,4.0835,3.9302,0.0,0.0,0.0,0.0,0.0,0.0,0.0,0.0,0.0,0.0,0.0,0.0,0.0,0.0,0.0,0.0,0.0,0.0,0.0,0.0,0.0,0.0,0.0,0.0,4.2701,4.1899,3.8942,0.0,0.0,0.0,0.0,0.0,0.0,0.0,0.0,0.0,0.0,0.0,4.4318,4.6836,4.8933,5.0529,5.0702,4.999,4.8259,4.7893,4.6411,4.3177,4.1357,3.9586,0.0,0.0,0.0,0.0,0.0,0.0,0.0,0.0,0.0,0.0,0.0,0.0,0.0,0.0,0.0,0.0,0.0,0.0,0.0,0.0,0.0,0.0,0.0,0.0,0.0,0.0,0.0,0.0,0.0,0.0,0.0,0.0,3.3044,3.4032,0.0,0.0,0.0,0.0,0.0,0.0,0.0,0.0,0.0,0.0,0.0,0.0,0.0,4.0427,4.1285,4.3503,4.447,4.4186,4.6406,4.6814,4.5669,4.6359,4.6647,4.6608,4.6071,0.0,4.2689,4.1697,0.0,0.0,0.0,0.0,0.0,0.0,0.0,0.0,0.0,0.0,0.0,0.0,0.0,0.0,0.0,0.0,0.0,0.0,0.0,0.0,0.0,0.0,4.5951,4.6182,4.624,4.6087,0.0,4.205,3.8862,3.8597,3.7459,0.0,0.0,0.0,0.0,0.0,0.0,0.0,4.622,4.8125,4.9606,5.0587,5.0702,4.999,4.8259,4.8087,4.682,4.394,4.2849,4.1708,4.0278,3.785,0.0,0.0,0.0,0.0,0.0,0.0,0.0,0.0,0.0,0.0,0.0,0.0,0.0,0.0,0.0,0.0,0.0,0.0,0.0,0.0,0.0,0.0,0.0,0.0,0.0,0.0,0.0,0.0,0.0,3.2556,3.4133,3.5014,3.5076,3.4671,0.0,0.0,0.0,0.0,0.0,0.0,0.0,0.0,0.0,4.1754,4.2549,4.3568,4.4916,4.6028,4.6951,4.7699,4.8736,4.9114,4.8932,4.9204,4.9301,4.9252,4.9228,4.826,4.6607,4.4701,4.3208,4.1981,0.0,0.0,0.0,0.0,4.1703,4.2244,4.322,4.3313,4.2832,4.1777,0.0,0.0,0.0,0.0,0.0,0.0,0.0,0.0,0.0,0.0,4.7144,4.8086,4.7932,4.7721,4.8202,4.6163,4.3682,0.0,4.1181,4.0204,3.7759,0.0,0.0,0.0,0.0,4.4528,4.6644,4.8355,4.9721,5.0606,5.0702,4.999,4.8259,4.7952,4.695,4.4762,4.3697,4.2844,4.2138,4.0159,3.8384,0.0,0.0,0.0,0.0,0.0,0.0,0.0,0.0,0.0,0.0,0.0,0.0,0.0,0.0,0.0,0.0,0.0,0.0,0.0,0.0,0.0,0.0,0.0,0.0,0.0,0.0,0.0,0.0,3.4495,3.5582,3.6238,3.6908,3.6775,0.0,0.0,0.0,0.0,0.0,0.0,4.088,4.1981,4.343,4.532,4.5813,4.6636,4.7902,4.8129,4.8931,5.036,5.0262,5.0575,5.1258,5.116,5.1063,5.0996,5.0945,5.0557,4.974,4.726,4.5738,4.4826,4.3339,4.3169,4.3778,4.3995,4.4458,4.5167,4.6682,4.7066,4.6661,4.5182,4.4414,4.3549,4.0777,0.0,0.0,0.0,0.0,4.4451,4.6144,4.7048,4.7913,4.9375,4.924,4.8933,4.9586,4.9221,4.7894,0.0,4.4701,4.397,4.0816,0.0,0.0,0.0,0.0,4.5817,4.7336,4.8817,4.9971,5.0625,5.0702,5.0067,4.8567,4.8047,4.7138,4.5621,4.4444,4.375,4.3509,4.2031,4.0381,3.8562,0.0,0.0,0.0,0.0,0.0,0.0,0.0,0.0,0.0,0.0,0.0,0.0,0.0,0.0,0.0,0.0,0.0,0.0,0.0,0.0,0.0,0.0,0.0,0.0,0.0,0.0,0.0,0.0,0.0,3.8257,4.045,0.0,0.0,0.0,0.0,4.0563,4.2135,4.3521,4.4571,4.6175,4.7135,4.7253,4.8806,4.9699,4.9855,5.0629,5.1102,5.1336,5.1316,5.1336,5.1394,5.1375,5.1238,5.1004,5.0996,5.0938,5.0683,4.8779,4.7511,4.6686,4.5765,4.5437,4.5566,4.6397,4.6724,4.6877,4.7742,4.753,4.7126,4.8605,4.8009,4.6512,4.5528,4.4662,0.0,0.0,4.6047,4.7086,4.8779,4.924,4.949,5.0414,5.0587,5.0567,5.0625,5.0587,5.0029,0.0,4.7259,4.6701,4.649,0.0,4.5605,4.6413,4.7317,4.824,4.9163,5.0067,5.0644,5.0702,5.0702,5.0317,4.9413,4.8548,4.7607,4.6483,4.5361,4.4619,4.4354,4.3274,4.1935,4.0308,3.7838,0.0,0.0,0.0,0.0,0.0,0.0,0.0,0.0,0.0,0.0,0.0,0.0,0.0,0.0,0.0,0.0,0.0,0.0,0.0,0.0,0.0,0.0,0.0,0.0,0.0,0.0,0.0,0.0,4.1495,4.3017,0.0,4.1765,4.2746,4.3467,4.3466,4.5109,4.6491,4.735,4.8502,4.938,4.9965,5.0555,5.0887,5.0906,5.1199,5.1355,5.1394,5.1394,5.1394,5.1394,5.1394,5.1355,5.1249,5.1178,5.1122,5.1029,5.0273,4.9782,4.9375,4.8433,4.8395,4.8856,4.8606,4.8856,4.9375,4.9683,4.9587,4.9356,4.9375,4.8625,4.7606,4.7298,4.699,4.6932,4.7798,4.8259,4.8779,4.9933,5.024,5.0298,5.0625,5.0702,5.0702,5.0702,5.0702,5.051,4.9894,4.9086,4.8163,4.7086,4.7067,4.7144,4.6932,4.8067,4.9048,4.9356,5.0164,5.0702,5.0702,5.0702,5.0337,4.9471,4.8451,4.7446,4.656,4.5274,4.4493,4.4383,4.3871,4.2816,4.12,3.9231,3.7039,0.0,0.0,0.0,0.0,0.0,0.0,0.0,0.0,0.0,0.0,0.0,0.0,0.0,0.0,0.0,0.0,0.0,0.0,0.0,0.0,0.0,0.0,0.0,0.0,0.0,0.0,4.2704,4.3747,4.5265,4.5737,4.4501,4.5496,4.6339,4.6632,4.776,4.8794,4.9634,5.0223,5.0945,5.1804,5.1843,5.198,5.2273,5.2273,5.2273,5.2273,5.2273,5.2273,5.2273,5.2273,5.2253,5.221,5.2111,5.2075,5.2064,5.1882,5.1807,5.1698,5.0699,5.0644,5.1068,5.0779,5.0875,5.1068,5.0779,5.0702,5.0587,5.0029,4.9452,4.8971,4.8971,4.8971,4.9106,4.9683,5.0029,5.0375,5.0952,5.1318,5.1529,5.1529,5.1529,5.1529,5.1529,5.1529,5.1529,5.1529,5.0625,4.949,4.8375,4.8625,4.8798,4.8259,4.9125,4.9837,4.9837,5.0337,5.0702,5.0702,5.0702,5.0471,4.9894,4.8624,4.7622,4.7066,4.5546,4.4624,4.4546,4.4017,4.3066,4.1627,3.9677,3.7764,3.5887,0.0,0.0,0.0,0.0,0.0,0.0,0.0,0.0,0.0,0.0,0.0,0.0,0.0,0.0,0.0,0.0,0.0,0.0,0.0,0.0,0.0,0.0,0.0,4.103,4.3333,4.5008,4.4965,4.7272,4.8248,4.6624,4.7936,4.9243,5.0122,5.0184,5.0555,5.1433,5.1472,5.1863,5.2702,5.2741,5.3151,5.3994,5.3994,5.3994,5.3994,5.3994,5.3994,5.3994,5.3994,5.3936,5.3819,5.3819,5.3819,5.3799,5.3526,5.3483,5.3498,5.2524,5.205,5.203,5.2878,5.2666,5.1838,5.1049,5.0779,5.0779,5.0779,5.0779,5.0779,5.0779,5.0779,5.0779,5.0779,5.1337,5.1952,5.1952,5.2568,5.3203,5.3203,5.3203,5.3203,5.3203,5.3203,5.3203,5.3203,5.1895,5.0779,5.0779,5.0779,5.0779,5.0779,5.0779,0.0,5.0779,5.0779,5.076,5.0741,5.0741,5.0721,5.0702,4.9106,4.8105,4.8105,4.6281,4.5074,4.48,4.3792,4.2707,4.1646,3.9231,3.7578,3.676,0.0,0.0,0.0,0.0,0.0,0.0,0.0,0.0,0.0,0.0,0.0,0.0,0.0,0.0,0.0,0.0,0.0,0.0,0.0,0.0,0.0,4.1608,4.3895,4.3879,4.6105,4.7955,4.856,4.9848,5.0496,5.0048,5.0418,5.1039,5.1917,5.1995,5.237,5.3249,5.3288,5.3405,5.3643,5.3639,5.3752,5.4006,5.4006,5.4006,5.4006,5.4006,5.4006,5.4006,5.4006,5.3986,5.3947,5.3947,5.3947,5.3928,5.3752,5.3643,5.3558,5.3089,5.2877,5.2873,5.3103,5.3047,5.2799,5.2587,5.251,5.251,5.251,5.251,5.251,5.251,5.251,5.251,5.251,5.2664,5.2837,5.2837,5.3029,5.3203,5.3203,5.3203,5.3203,5.3203,5.3203,5.3203,5.3203,5.2837,5.251,5.251,5.251,5.251,5.251,5.251,0.0,5.251,5.251,5.2279,5.1645,5.1568,5.1337,5.0741,4.9106,4.8105,4.8105,4.6097,4.4891,4.48,4.414,4.3372,4.2482,4.0643,3.9287,0.0,0.0,0.0,0.0,0.0,0.0,0.0,0.0,0.0,0.0,0.0,0.0,0.0,0.0,0.0,0.0,0.0,0.0,0.0,0.0,0.0,0.0,4.4302,4.6726,4.71,4.8404,4.9673,5.0535,5.1082,5.1531,5.1902,5.1941,5.2312,5.3186,5.3244,5.3459,5.3971,5.401,5.4166,5.4537,5.4537,5.4728,5.5079,5.5079,5.5079,5.5079,5.5079,5.5079,5.5079,5.5079,5.5079,5.5079,5.5079,5.5079,5.506,5.4845,5.473,0.0,0.0,0.0,0.0,0.0,5.3738,5.3682,5.3336,5.32,5.3201,5.3203,5.3203,5.3203,5.3203,5.3203,5.3203,5.3203,5.3453,5.3741,5.3741,5.3991,5.4241,5.4241,5.4241,5.4241,5.4241,5.4241,5.4241,5.4241,5.4241,0.0,5.4241,5.3664,5.3203,5.3203,5.3203,5.3203,5.3203,5.3203,5.301,5.251,5.2452,5.2106,5.1279,4.9971,0.0,0.0,0.0,4.51,4.4178,4.3716,0.0,0.0,0.0,0.0,0.0,0.0,0.0,0.0,3.8442,3.8396,0.0,0.0,0.0,0.0,0.0,0.0,0.0,0.0,0.0,0.0,0.0,0.0,0.0,0.0,0.0,0.0,4.6843,4.9243,5.0126,5.0243,5.0535,5.1316,5.1492,5.1843,5.2624,5.28,5.321,5.4088,5.4142,5.4181,5.4298,0.0,0.0,0.0,0.0,5.5825,5.6586,5.6606,5.6606,5.6606,5.6606,5.6606,5.6606,5.6606,5.6606,5.6606,5.6606,5.6606,5.6567,5.6235,5.6083,5.5974,5.5124,5.4739,5.4643,5.4643,5.4643,5.4507,5.3736,0.0,0.0,5.347,5.3491,5.3491,5.3491,5.3491,5.3491,5.3491,5.4049,5.4645,5.4645,5.5164,5.5703,5.5703,5.5703,5.5703,5.5703,5.5703,5.5703,5.5703,5.5703,5.5703,5.5703,5.4472,5.3491,5.3491,5.3491,5.3491,5.3491,5.3491,5.3453,5.3356,0.0,0.0,5.1991,5.1164,4.999,4.8355,4.7199,4.5703,4.3705,4.3368,4.3225,4.3225,4.3225,4.3559,4.4283,4.5064,4.5026,4.4191,4.0476,3.989,0.0,0.0,0.0,0.0,0.0,0.0,0.0,0.0,0.0,0.0,0.0,0.0,0.0,0.0,0.0,4.6569,4.8541,5.0145,5.1023,5.116,5.1219,5.1375,5.2019,5.2507,5.2678,5.3346,5.4108,5.4986,5.5044,5.5357,5.6059,5.6098,5.6177,5.6333,5.6352,5.643,5.6606,5.6606,5.6606,5.6606,0.0,0.0,5.6606,5.6606,5.6606,5.6606,5.6606,5.6606,5.6567,5.6235,5.5956,5.5761,5.5588,5.5491,5.5472,5.5472,5.5472,5.5453,5.528,5.5201,5.5222,5.5222,5.5222,5.5222,5.5222,5.5222,0.0,5.5222,5.5338,5.5472,5.5472,5.5568,5.5703,5.5703,5.5703,5.5703,5.5703,5.5703,5.5703,5.5703,5.5703,5.5703,5.5703,5.5434,5.5222,5.5222,5.5222,5.5222,5.5222,5.5222,5.4972,5.4318,5.4241,5.3606,5.2029,5.1164,5.026,4.9202,4.7888,4.6871,4.6214,4.5942,4.5769,4.5769,4.5769,4.5862,4.6011,4.6197,4.6178,4.5974,4.4544,4.4116,0.0,0.0,0.0,0.0,0.0,0.0,0.0,0.0,0.0,0.0,0.0,4.2022,4.29,0.0,4.7331,4.8638,5.0282,5.155,5.198,5.2429,5.2546,5.2097,5.2429,5.3034,5.3912,5.44,5.5005,5.5884,5.5942,5.6138,5.6586,5.6606,5.6606,5.6606,5.6606,5.6606,5.6606,5.6606,5.6606,5.6606,5.6606,5.6606,5.6606,5.6606,5.6606,5.6606,5.6606,5.6606,5.6577,5.6241,5.5927,5.5703,5.5703,5.5703,5.5703,5.5703,5.5703,5.5703,5.5703,5.5703,5.5703,5.5703,5.5703,5.5703,5.5703,5.5703,5.5703,5.5703,5.5703,5.5703,5.5703,5.5703,5.5703,5.5703,5.5703,5.5703,5.5703,5.5703,5.5703,5.5703,5.5703,5.5703,5.5703,5.5703,5.5703,5.5703,5.5703,5.5703,5.5703,5.5703,5.5549,5.5145,5.5107,5.4587,5.3318,5.1664,5.0451,4.9888,4.8248,4.717,4.6909,4.665,4.6494,4.6494,4.6494,4.6494,4.6494,4.6903,4.7107,4.7107,4.7553,4.7088,0.0,0.0,0.0,0.0,0.0,0.0,0.0,0.0,4.0535,4.2057,4.3603,4.5125,4.653,4.817,4.9595,5.0457,5.1921,5.2956,5.2956,5.3561,5.3795,5.3268,5.321,5.3756,5.5162,5.5454,5.5845,5.6547,5.6606,5.6606,5.6606,5.6606,5.6606,5.6606,5.6606,5.6606,5.6606,5.6606,5.6606,5.6606,5.6606,5.6606,5.6606,5.6606,5.6606,5.6606,5.6606,5.6567,5.647,5.6201,5.5955,5.5703,5.5703,5.5703,5.5703,5.5703,5.5703,5.5703,5.5703,5.5703,5.5703,5.5703,5.5703,5.5703,5.5703,5.5703,5.5703,5.5703,5.5703,5.5703,5.5703,5.5703,5.5703,5.5703,5.5703,5.5703,5.5703,5.5703,5.5703,5.5703,5.5703,5.5703,5.5703,5.5703,5.5703,5.5703,5.5703,5.5703,5.5703,5.5703,5.5703,5.5703,5.5703,5.5376,5.4568,5.2452,5.1084,5.0875,4.9281,4.8211,4.7796,4.7479,4.7206,4.7057,4.6991,4.7033,4.72,4.785,4.8259,4.8444,4.98,4.9187,3.9576,3.8819,3.886,4.1116,4.1186,4.169,0.0,0.0,4.5714,4.6667,4.7608,4.8291,4.8486,4.995,5.1394,5.2273,5.3229,5.3854,5.3854,5.3932,5.4244,5.4927,5.5005,5.5083,5.5279,5.6001,5.6489,5.6586,5.6606,5.6606,5.6606,5.6606,5.6606,5.6606,5.6606,5.6606,5.6606,5.6606,5.6606,5.6606,5.6606,5.6606,5.6606,5.6606,5.6606,5.6606,5.6606,5.643,5.6157,5.6123,5.5955,5.5703,5.5703,5.5703,5.5703,5.5703,5.5703,5.5703,5.5703,5.5703,5.5703,5.5703,5.5703,5.5703,5.5703,5.5703,5.5703,5.5703,5.5703,5.5703,5.5703,5.5703,5.5703,5.5703,5.5703,5.5703,5.5703,5.5703,5.5703,5.5703,5.5703,5.5703,5.5703,5.5703,5.5703,5.5703,5.5703,5.5703,5.5703,5.5703,5.5703,5.5703,5.5703,5.5376,5.4568,5.353,5.2894,5.2873,5.2445,5.1825,5.1013,5.0449,4.9815,4.909,4.8781,4.8983,4.9707,4.98,5.0228,5.0989,5.1175,5.032,4.207,4.2216,0.0,0.0,4.4405,4.5353,4.7182,4.7315,4.7432,4.8779,4.9325,4.9872,5.0887,5.1668,5.2448,0.0,5.4186,5.4752,5.4752,5.5181,5.565,5.6001,5.6059,5.6059,5.6059,5.6391,5.6606,5.6606,5.6606,5.6606,5.6606,5.6606,5.6606,5.6606,5.6606,5.6606,5.6606,5.6606,5.6606,5.6606,5.6606,5.6606,5.6626,5.7074,5.7582,5.8031,5.7523,5.7172,5.6924,5.6336,5.5994,5.5799,5.5722,5.5703,5.5703,5.5703,5.5703,5.5703,5.5703,5.5703,5.5703,5.5703,5.5703,5.5703,5.5703,5.5703,5.5703,5.5703,5.5703,5.5703,5.5703,5.5703,5.5703,5.5703,5.5703,5.5703,5.5703,5.5703,5.5703,5.5703,5.5703,5.5703,5.5703,5.5703,5.5703,5.5703,5.5703,5.5703,5.5703,5.5703,5.5703,5.5703,5.5703,5.5549,5.5222,5.4434,5.3953,5.3953,5.3238,5.2638,5.2275,5.1811,5.136,5.0842,5.0712,5.0732,5.0859,5.0859,5.1045,5.1416,5.1881,5.1472,4.3531,0.0,0.0,4.5546,4.6854,4.802,4.8236,4.8486,4.8993,5.0204,5.0457,5.0926,5.2409,5.2897,5.3346,5.4225,5.5083,5.5669,5.5669,5.6196,5.6606,5.6606,5.6606,5.6606,5.6606,5.6606,5.6684,5.6918,5.6938,5.7035,5.7289,5.7289,5.7289,5.7289,5.7289,5.7289,5.7289,5.7289,5.7289,5.7289,5.7289,5.7289,5.7309,5.789,5.8499,5.9065,5.8421,5.8089,5.7904,5.7133,5.6734,5.6585,5.647,5.6415,5.6417,5.6415,5.6107,5.5703,5.5703,5.5703,5.5703,5.5703,5.5703,5.5703,5.5703,5.5703,5.5703,5.5703,5.5703,5.5703,5.5703,5.5703,5.5703,5.5703,5.5703,5.5703,5.5703,5.5703,5.5703,5.5703,5.5703,5.5703,5.5703,5.5703,5.5703,5.5703,5.5703,5.5703,5.5703,5.5703,5.5703,5.5703,5.5703,5.5703,5.5703,5.5164,5.4818,5.4818,5.405,5.3498,5.3269,5.2946,5.2513,5.2015,5.1939,5.184,5.1732,5.1732,5.1844,5.2085,5.2661,5.2624,0.0,0.0,4.434,4.6894,4.8203,4.9061,4.9859,5.0672,5.1297,5.1355,5.1355,5.1629,5.2526,5.3385,5.4244,5.5123,5.5981,5.6567,5.6567,5.6586,5.6606,5.6606,5.6606,5.6606,0.0,5.6606,5.6918,5.7699,5.7758,5.8128,5.8987,5.9026,5.9026,5.9026,5.9026,5.9026,5.9026,5.9026,5.9026,5.9026,5.9026,5.9026,5.9022,5.9041,5.9061,5.91,5.9061,5.8987,5.8851,5.869,5.855,5.8404,5.827,5.8223,5.8212,5.8226,5.7146,5.5703,5.5703,5.5703,5.5703,5.5703,5.5703,5.5703,5.5703,5.5703,5.5703,5.5703,5.5703,5.5703,5.5703,5.5703,5.5703,5.5703,5.5703,5.5703,5.5703,5.5703,5.5703,5.5703,5.5703,5.5703,5.5703,5.5703,5.5703,5.5703,5.5703,5.5703,5.5703,5.5703,5.5703,5.5703,5.5703,5.5703,5.5703,5.5684,5.5665,5.5665,5.5626,5.5261,5.4491,5.4115,5.3429,5.2305,5.2027,5.2121,5.2568,5.2568,5.2958,5.3738,5.3757,5.3757,0.0,0.0,4.7506,4.8964,4.9941,5.0625,5.0895,5.1196,5.1394,5.1394,5.1394,5.1668,5.2546,5.3405,5.4283,5.5162,5.602,5.6606,5.6606,5.6606,5.6606,5.6606,5.6606,0.0,0.0,0.0,0.0,5.7738,5.7797,5.8187,5.9046,5.9104,5.9104,5.9104,5.9104,5.9104,5.9104,5.9101,5.9107,5.9107,5.9101,5.9406,5.9963,5.9963,6.0276,6.0778,6.0212,5.9939,5.9846,5.9119,5.8744,5.8615,5.8481,5.8389,5.8296,5.8296,5.7912,5.7357,5.6763,5.6937,5.7223,5.6069,5.6088,5.6434,5.5876,5.5703,5.5703,5.5703,5.5703,5.5703,5.5703,5.5703,5.5703,5.5703,5.5703,5.5703,5.5703,5.5703,5.5703,5.5703,5.5703,5.5703,5.5703,5.5703,5.5703,5.5703,5.5703,5.5703,5.5703,5.5703,5.5703,5.5703,5.5703,5.5703,5.5703,5.5703,5.5703,5.5703,5.5703,5.5568,5.5299,5.5196,5.4863,5.428,5.3973,5.3785,5.3714,5.3479,5.3553,5.3813,5.3813,5.3813,4.7592,4.846,4.9252,5.0722,5.125,5.1484,5.1797,5.1618,5.1391,5.1405,5.1144,5.1297,5.2487,5.2644,5.321,5.5005,5.5513,5.5884,5.6508,5.6606,5.6606,5.6606,5.6879,5.7055,0.0,0.0,0.0,5.8226,5.8558,5.9104,5.9983,6.0022,6.0022,6.0022,6.003,6.003,6.0022,6.0034,6.0027,6.0035,6.0025,6.0323,6.0861,6.0866,6.1178,6.1681,6.1115,6.0856,6.0817,6.0048,5.9665,5.9586,5.9377,5.9273,5.9177,5.9181,5.9181,5.9031,5.7879,5.7841,5.8127,5.6992,5.7011,5.73,5.6434,5.6145,5.6088,5.578,5.5703,5.5703,5.5703,5.5703,5.5703,5.5703,5.5703,5.5703,5.5703,5.5703,5.5703,5.5703,5.5703,5.5703,5.5703,5.5703,5.5703,5.5703,5.5703,5.5703,5.5703,5.5703,5.5703,5.5703,5.5703,5.5703,5.5703,5.5703,5.5703,5.5703,5.5703,5.5703,5.5703,5.5703,5.5573,5.5314,5.4952,5.4623,5.4315,5.3963,5.3813,5.3813,5.3813,5.3813,4.8574,4.9097,4.9746,5.2168,5.2148,5.1738,5.2519,5.2051,5.1445,5.1361,5.0686,5.0598,0.0,0.0,5.1316,5.4635,5.4596,5.4713,5.643,5.6665,5.6684,0.0,0.0,0.0,0.0,0.0,0.0,5.9167,0.0,6.0783,6.1642,6.1701,6.1701,6.1701,6.1701,6.1701,6.1705,6.1705,6.1704,6.1699,6.1701,6.1701,6.1701,6.1697,6.1694,6.1701,6.1701,6.1701,6.1676,6.1344,6.1208,6.1171,6.0897,6.0823,6.08,6.08,6.08,6.0569,5.8973,5.8434,5.8415,5.8338,5.8338,5.8204,5.7319,5.7069,5.6876,5.6069,5.5799,5.5761,5.5761,5.5722,5.5703,5.5703,5.5703,5.5703,5.5703,5.5703,5.5703,5.5703,5.5703,5.5703,5.5703,5.5703,5.5703,5.5703,5.5703,5.5703,5.5703,5.5703,5.5703,5.5703,5.5703,5.5703,5.5703,5.5703,5.5703,5.5703,5.5703,5.5703,5.5703,5.5703,5.5573,5.5314,5.4981,5.4654,5.433,5.3963,5.3813,5.3813,5.3813,5.3813,5.0485,5.1718,5.2851,5.3516,5.3496,5.3223,5.2793,5.2539,5.2012,5.0761,5.0289,5.0044,0.0,0.0,0.0,5.321,5.481,0.0,5.7348,5.7535,0.0,5.8384,0.0,5.8811,5.8855,5.9601,0.0,0.0,6.0278,6.0786,6.1645,6.1709,6.1701,6.1701,6.1705,6.1701,6.1697,6.1697,6.1698,6.1699,6.1698,6.1709,6.1701,6.1697,6.1694,6.1701,6.1701,6.1701,6.1696,6.1498,6.1348,6.1167,6.1002,6.088,6.08,6.08,6.08,6.0742,6.03,6.0165,5.9954,5.8704,5.8704,5.905,5.8223,5.7973,5.7915,5.7703,5.7165,5.6665,5.6665,5.6184,5.5703,5.5703,5.5703,5.5703,5.5703,5.5703,5.5703,5.5703,5.5703,5.5703,5.5703,5.5703,5.5703,5.5703,5.5703,5.5703,5.5703,5.5703,5.5703,5.5703,5.5703,5.5703,5.5703,5.5703,5.5703,5.5703,5.5703,5.5703,5.5703,5.5703,5.5662,5.5596,5.5064,5.4746,5.4685,5.4089,5.3813,5.3813,5.3813,5.3813,5.2304,5.3262,5.4082,5.4473,5.4004,5.3301,5.2809,5.2124,5.1226,4.99,4.9291,0.0,4.8821,4.9716,0.0,0.0,0.0,0.0,5.7621,5.8219,5.8638,0.0,5.9451,0.0,5.9714,6.0475,6.0975,0.0,6.0974,6.1189,6.1676,6.1697,6.1701,6.1701,6.1697,6.1694,6.1699,6.1699,6.1699,6.1699,6.1699,6.1698,6.1707,6.1707,6.1697,6.1701,0.0,6.1701,6.1696,6.1564,6.139,6.1192,6.1055,6.0902,6.08,6.08,6.08,6.08,6.08,6.08,6.0646,5.9704,5.9704,5.9915,5.9088,5.8838,5.8761,5.8396,5.7953,5.7569,5.7569,5.7203,5.6838,5.6838,5.6838,5.6838,5.6838,5.6838,5.6838,5.6838,5.6838,5.6838,5.6838,5.6838,5.6703,5.6319,5.6261,5.6126,5.5742,5.5703,5.5703,5.5703,5.5703,5.5703,5.5703,5.5703,5.5703,5.5703,5.5703,5.5703,5.5703,5.5703,5.5703,5.5703,5.5119,5.4806,5.4806,5.4125,5.3813,5.3813,5.3813,5.3813,5.3965,5.4258,5.4531,5.5273,5.4258,5.2988,5.2755,5.1402,4.9882,4.878,0.0,4.7608,4.8193,4.7998,4.8818,5.1999,0.0,5.4955,5.7684,5.8722,5.9283,5.9511,6.0156,6.0565,6.0565,6.1264,6.1707,6.1699,6.1699,6.1699,6.1699,6.1707,6.1709,6.1709,6.1695,6.1699,6.1699,6.1699,6.1699,6.1699,6.1699,6.1699,6.1699,6.1695,6.1704,6.1709,6.1705,6.1701,6.1696,6.1561,6.1381,6.1192,6.1055,6.0902,6.08,6.08,6.08,6.08,6.08,6.08,6.08,6.08,6.08,6.0666,5.9896,5.9665,5.9531,5.8838,5.855,5.8473,5.8473,5.8377,5.83,5.83,5.83,5.83,5.83,5.83,5.83,5.83,5.83,5.83,5.83,5.83,5.805,5.728,5.7165,5.6857,5.5972,5.5761,5.5703,5.5703,5.5703,5.5703,5.5703,5.5703,5.5703,5.5703,5.5703,5.5703,5.5703,5.5703,5.5703,5.5703,5.5145,5.4836,5.4806,5.4177,5.3832,5.3813,5.3813,5.3813,5.5039,5.5605,5.6191,5.6348,5.5605,5.4472,5.3029,5.1405,0.0,0.0,4.6635,4.6358,4.5773,4.7276,4.9267,5.1297,5.297,5.5143,5.8426,0.0,5.9706,0.0,0.0,0.0,0.0,0.0,0.0,0.0,6.1699,6.1699,6.1699,6.1698,6.1698,6.1698,6.1699,6.1699,6.1699,6.1699,6.1699,6.1699,6.1699,6.1699,6.1699,6.1699,6.1698,6.1698,6.169,0.0,6.1701,6.1554,6.1392,6.1192,6.1055,6.0902,6.08,6.08,6.08,6.08,6.08,6.08,6.08,6.08,6.08,6.0762,6.0608,6.0569,6.055,6.0416,5.9858,5.93,5.93,5.88,5.83,5.83,5.83,5.83,5.83,5.83,5.83,5.83,5.83,5.83,5.83,5.83,5.8261,5.8107,5.8069,5.7761,5.6876,5.6145,5.5703,5.5703,5.5703,5.5703,5.5703,5.5703,5.5703,5.5703,5.5703,5.5703,5.5703,5.5703,5.5703,5.5703,5.5389,5.5083,5.4806,5.4397,5.4054,5.3813,5.3813,5.3813,5.5976,5.6289,5.6601,5.6601,5.5605,5.4179,5.2412,0.0,0.0,0.0,4.5617,4.55,4.509,4.6749,0.0,4.9891,5.1538,5.3852,5.7301,5.8222,0.0,6.207,0.0,0.0,0.0,6.3047,6.2851,6.2402,6.2383,6.2187,6.1719,6.1699,6.1699,6.1699,6.1699,6.1699,6.1699,6.1699,6.1699,6.1699,6.1699,6.1699,6.1699,6.1699,6.1699,6.1699,6.1698,6.1695,6.1709,6.1631,6.1511,6.1344,6.1172,6.1019,6.0901,6.0827,6.08,6.08,6.08,6.08,6.08,6.08,6.08,6.08,6.08,6.08,6.08,6.08,6.0492,6.0185,6.0185,5.9896,5.9608,5.9608,5.9608,5.9608,5.9608,5.9608,5.9608,5.9608,5.9608,5.9608,5.9608,5.9608,5.9454,5.8992,5.8915,5.8627,5.778,5.73,5.6703,5.5799,5.5703,5.5703,5.5703,5.5703,5.5703,5.5703,5.5703,5.5703,5.5703,5.6126,5.6376,5.6376,5.6529,5.6434,5.6114,5.5743,5.5452,5.5113,5.5113,5.5113,5.6543,5.6601,5.6601,5.6601,5.5293,5.3535,5.1792,4.9283,0.0,0.0,4.4855,4.4777,4.4972,0.0,4.767,0.0,5.0301,5.2615,5.6112,5.7656,5.957,0.0,6.3164,0.0,6.4238,6.4297,0.0,6.332,6.3105,6.2617,6.1758,6.1699,6.1699,6.1699,6.1699,6.1699,6.1699,6.1699,6.1699,6.1699,6.1699,6.1699,6.1699,6.1699,6.1699,6.1699,6.1699,6.1699,6.1699,6.1707,6.1612,6.1476,6.1293,6.1147,6.1039,6.088,6.0831,6.0831,6.0831,6.0827,6.08,6.08,6.08,6.08,6.08,6.08,6.08,6.08,6.08,6.08,6.08,6.08,6.08,6.08,6.08,6.08,6.08,6.08,6.08,6.08,6.08,6.08,6.08,6.08,6.0569,5.9877,5.9781,5.9473,5.8665,5.8569,5.7973,5.6415,5.6261,5.6261,5.6261,5.6261,5.6261,5.6261,5.6261,5.6261,5.6261,5.6915,5.728,5.728,5.769,5.7745,5.74,5.7064,5.6722,5.6383,5.6323,5.6302,5.6387,5.6601,5.6601,5.6601,5.5293,5.3535,5.1792,0.0,0.0,4.5207,4.4367,4.4055,4.4855,4.5773,0.0,0.0,0.0,0.0,5.6105,5.8651,6.0879,6.2773,0.0,0.0,6.4297,6.4297,6.4277,6.4199,6.3457,6.2617,6.1758,6.1699,6.1699,6.1699,6.1699,6.1699,6.1699,6.1699,6.1699,6.1699,6.1699,6.1699,6.1699,6.1699,6.1699,6.1699,6.1699,6.1699,0.0,6.1699,6.1614,6.1495,6.1344,6.1253,6.1162,6.1019,6.0964,6.0964,6.0964,6.0901,6.08,6.08,6.08,6.08,6.08,6.08,6.08,6.08,6.08,6.08,6.08,6.08,6.08,6.08,6.08,6.08,6.08,6.08,6.08,6.08,6.08,6.08,6.08,6.08,6.0762,6.0685,6.0685,6.0358,5.9492,5.9396,5.905,5.8165,5.8069,5.8069,5.8069,5.8069,5.8069,5.8069,5.8069,5.8069,5.8069,5.8146,5.8184,5.8184,5.8239,5.8078,5.7745,5.7411,5.7083,5.6758,5.6442,5.6302,5.6211,5.6601,5.6601,5.6601,5.5293,5.3535,5.1792,0.0,4.6694,4.5285,4.4719,4.4582,4.4933,4.5714,4.6515,0.0,0.0,0.0,5.2284,5.4464,5.7185,6.0976,6.2676,0.0,0.0,0.0,6.5644,6.5117,6.3789,6.2851,6.25,6.1992,6.1699,6.1699,6.1699,6.1699,6.1699,6.1699,6.1699,6.1699,6.1699,6.1699,6.1699,6.1699,6.1699,6.1699,6.1699,6.1699,0.0,6.1699,6.1676,6.1619,6.1478,6.1411,6.1348,6.1177,6.1116,6.112,6.1019,6.0964,6.0922,6.0827,6.08,6.08,6.08,6.08,6.08,6.08,6.08,6.08,6.08,6.08,6.08,6.08,6.08,6.08,6.08,6.08,6.08,6.08,6.08,6.08,6.08,6.08,6.08,6.08,6.08,6.0666,6.0319,6.0281,6.0165,5.9838,5.8896,5.83,5.83,5.83,5.83,5.83,5.83,5.83,5.83,5.8781,5.9031,5.9031,5.9531,5.9643,5.93,5.8962,5.8623,5.8239,5.7896,5.7751,5.5742,5.6406,5.6601,5.6601,5.5098,5.3222,0.0,4.9224,4.6866,4.5636,4.5187,4.509,4.5343,4.589,4.63,0.0,0.0,4.7939,5.052,5.2596,5.5477,5.9879,0.0,6.3535,0.0,6.6601,6.6543,6.5664,6.4453,6.3652,6.3398,6.2793,6.2226,6.1719,6.1699,6.1699,6.1699,6.1699,6.1699,6.1699,6.1699,6.1699,6.1699,6.1699,6.1699,6.1699,6.1699,6.1699,0.0,6.1699,6.1698,6.1687,6.1553,6.1517,6.1537,6.1359,6.1292,6.1266,6.1103,6.1037,6.0983,6.0853,6.08,6.08,6.08,6.08,6.08,6.08,6.08,6.08,6.08,6.08,6.08,6.08,6.08,6.08,6.08,6.08,6.08,6.08,6.08,6.08,6.08,6.08,6.08,6.08,6.08,6.08,6.08,6.08,6.08,6.08,5.9742,5.905,5.905,5.905,5.905,5.905,5.905,5.905,5.905,5.9588,5.9877,5.9877,6.0492,6.0666,6.0449,6.0011,5.9639,5.9361,5.8905,5.8716,5.4844,5.5937,5.6601,5.6601,5.4648,5.248,0.0,4.8755,4.63,4.628,4.5597,4.5265,4.6124,4.628,4.63,4.63,0.0,0.0,5.2316,5.4912,5.7508,0.0,0.0,6.2402,6.416,6.5898,6.6543,6.5664,6.5586,0.0,6.4336,6.4277,6.3476,6.1758,6.1699,6.1699,6.1699,6.1699,6.1699,6.1699,6.1699,6.1699,6.1699,6.1699,6.1699,6.1699,6.1699,6.1699,0.0,6.1699,6.1698,6.1687,6.1553,6.1583,6.1671,6.1545,6.151,6.1471,6.1279,6.112,6.0983,6.0853,6.08,6.08,6.08,6.08,6.08,6.08,6.08,6.08,6.08,6.08,6.08,6.08,6.08,6.08,6.08,6.08,6.08,6.08,6.08,6.08,6.08,6.08,6.08,6.08,6.08,6.08,6.08,6.08,6.08,6.08,6.0781,6.0762,6.0762,6.0762,6.0762,6.0762,6.0762,6.0762,6.0762,6.0781,6.0781,6.0781,6.08,6.08,6.08,6.015,5.9791,5.9758,5.9044,5.8716,5.2344,5.3262,5.3789,5.3183,5.2009,5.0752,4.9895,4.8382,4.7022,4.6417,4.6085,4.5968,4.6241,4.63,4.6866,4.8603,4.9345,0.0,0.0,0.0,0.0,5.9289,6.2905,6.5469,0.0,0.0,6.6797,6.6504,6.5937,6.5488,6.5195,6.4629,6.3769,6.2617,6.2598,6.2305,6.1719,6.1699,6.1699,6.1699,6.1699,6.1699,6.1699,6.1699,6.1699,6.1699,6.1699,6.1699,6.1699,6.1699,6.1698,6.1707,6.1651,6.1661,6.1696,6.166,6.1634,6.1602,6.1461,6.1298,6.11,6.0964,6.0877,6.08,6.08,6.08,6.08,6.08,6.08,6.08,6.08,6.08,6.08,6.08,6.08,6.08,6.08,6.08,6.08,6.08,6.08,6.08,6.08,6.08,6.08,6.08,6.08,6.08,6.08,6.08,6.08,6.08,6.08,6.08,6.08,6.08,6.08,6.08,6.08,6.08,6.08,6.08,6.08,6.08,6.08,6.08,6.08,6.015,5.9521,5.9044,5.8803,5.8716,0.0,5.1562,5.209,5.1541,5.0554,4.9567,4.9029,4.7969,4.6963,4.6417,4.63,4.63,4.63,4.63,4.6827,4.8408,4.8935,0.0,0.0,0.0,0.0,5.9757,0.0,0.0,0.0,6.6504,6.6894,6.6894,6.6406,6.6094,6.6094,6.5586,6.4883,6.4004,6.334,6.2734,6.2207,6.1855,6.1699,6.1699,6.1699,6.1699,6.1699,6.1699,6.1699,6.1699,6.1699,6.1699,0.0,6.1699,6.1698,6.1694,6.1694,6.1701,6.1701,6.1701,6.1701,6.1671,6.1545,6.1359,6.1177,6.1037,6.0922,6.08,6.08,6.08,6.08,6.08,6.08,6.08,6.08,6.08,6.08,6.08,6.08,6.08,6.08,6.08,6.08,6.08,6.08,6.08,6.08,6.08,6.08,6.08,6.08,6.08,6.08,6.08,6.08,6.08,6.08,6.08,6.08,6.08,6.08,6.08,6.08,6.08,6.08,6.08,6.08,6.08,6.08,6.08,6.08,6.015,5.9416,5.8716,5.8716,5.8716,0.0,5.0371,5.1035,5.1037,4.9876,4.8724,4.8724,4.7455,0.0,4.63,4.63,4.6319,4.6378,4.6339,4.6378,4.6612,4.7393,0.0,0.0,5.4541,0.0,0.0,6.3453,0.0,6.4473,6.5957,6.6894,6.6894,6.6894,6.6894,6.6894,6.6894,6.6523,6.5723,6.4004,6.3066,6.3008,6.2148,6.1699,6.1699,6.1699,6.1699,6.1699,6.1699,6.1699,0.0,6.1699,6.1699,6.1699,6.1699,6.1699,6.1699,6.1697,6.1701,6.1701,6.1701,6.1701,6.1671,6.1573,6.139,6.1192,6.1055,6.0922,6.08,6.08,6.08,6.08,6.08,6.08,6.08,6.08,6.08,6.08,6.08,6.08,6.08,6.08,6.08,6.08,6.08,6.08,6.08,6.08,6.08,6.08,6.08,6.08,6.08,6.08,6.08,6.08,6.08,6.08,6.08,6.08,6.08,6.08,6.08,6.08,6.08,6.08,6.08,6.08,6.08,6.08,6.0777,6.0734,6.0102,5.9416,5.8716,5.8716,5.8698,4.4824,0.0,4.7499,4.75,4.7198,4.6905,0.0,4.6593,4.63,0.0,0.0,0.0,0.0,4.6749,4.7159,4.9774,5.0926,5.2253,5.4381,0.0,0.0,6.4333,6.5625,6.6289,6.6289,6.666,6.6894,6.6894,6.6894,6.6894,6.6894,6.6894,6.6816,6.6601,6.4902,6.3672,6.3008,6.2148,6.1699,6.1699,6.1699,6.1699,6.1699,6.1699,6.1699,6.1699,6.1699,6.1699,6.1699,6.1699,6.1699,6.1699,6.1692,6.1694,6.1701,6.1701,6.1701,6.1696,6.1666,6.1553,6.1379,6.109,6.0922,6.08,6.08,6.08,6.08,6.08,6.08,6.08,6.08,6.08,6.08,6.08,6.08,6.08,6.08,6.08,6.08,6.08,6.08,6.08,6.08,6.08,6.08,6.08,6.08,6.08,6.08,6.08,6.08,6.08,6.08,6.08,6.08,6.08,6.08,6.08,6.08,6.08,6.08,6.08,6.08,6.08,6.08,6.0546,6.0042,5.9887,5.9416,5.8716,5.8716,5.8656,4.2871,4.4375,4.5703,4.5692,4.5994,4.63,4.63,0.0,0.0,0.0,0.0,0.0,0.0,0.0,0.0,0.0,5.1281,0.0,0.0,0.0,0.0,6.5937,6.6601,6.6894,0.0,6.6894,6.6894,6.6894,6.6894,6.6894,6.6894,6.6894,6.6719,6.6328,6.5,6.4062,6.3594,6.2344,6.1699,6.1699,6.1699,6.1699,6.1699,6.1699,6.1699,6.1699,6.1699,6.1699,6.1699,6.1699,6.1699,6.1699,6.1694,6.1697,6.1701,6.1701,6.1701,6.1701,6.1701,6.1561,6.1324,6.1072,6.0922,6.08,6.08,6.08,6.08,6.08,6.08,6.08,6.08,6.08,6.08,6.08,6.08,6.08,6.08,6.08,6.08,6.08,6.08,6.08,6.08,6.08,6.08,6.08,6.08,6.08,6.08,6.08,6.08,6.08,6.08,6.08,6.08,6.08,6.08,6.08,6.08,6.08,6.08,6.08,6.08,6.08,6.08,6.0546,6.0011,5.9887,5.9486,5.8926,5.8762,5.8614,4.2344,4.3769,4.5,4.4996,4.567,4.63,4.63,0.0,0.0,0.0,0.0,0.0,0.0,0.0,0.0,0.0,0.0,0.0,0.0,6.2705,6.4804,6.668,6.6894,0.0,6.6894,6.6894,6.6894,6.6894,6.6894,6.6894,6.6894,6.6894,6.6504,6.5625,6.4746,6.4238,6.4101,6.25,6.1699,6.1699,6.1699,6.1699,6.1699,6.1699,6.1699,6.1699,0.0,0.0,6.1699,6.1699,6.1699,6.1698,6.1692,6.1697,6.1701,6.1701,6.1701,6.1701,6.1701,6.1489,6.1192,6.1072,6.0923,6.08,6.08,6.08,6.08,6.08,6.08,6.08,6.08,6.08,6.08,6.08,6.08,6.08,6.08,6.08,6.08,6.08,6.08,6.08,6.08,6.08,6.08,6.08,6.08,6.08,6.08,6.08,6.08,6.08,6.08,6.08,6.08,6.08,6.08,6.08,6.08,6.08,6.08,6.08,6.08,6.08,6.08,6.0641,6.0293,5.995,5.9571,5.9215,5.8825,5.8614,4.3086,4.4238,4.5,4.5,4.5655,4.63,0.0,0.0,0.0,0.0,0.0,0.0,0.0,0.0,0.0,0.0,0.0,0.0,0.0,0.0,6.4125,6.6601,0.0,6.6894,6.6894,6.6894,6.6894,6.6894,6.6894,6.6894,6.6894,6.6894,6.6504,6.5625,6.4746,6.3945,6.3203,6.2207,6.1699,6.1699,6.1699,6.1699,6.1699,6.1699,6.1699,6.1699,0.0,6.1699,6.1699,6.1699,6.1695,6.1694,6.1704,6.1697,6.1701,6.1701,6.1701,6.1701,6.1701,6.1489,6.1206,6.1177,6.1002,6.08,6.08,6.08,6.08,6.08,6.08,6.08,6.08,6.08,6.08,6.08,6.08,6.08,6.08,6.08,6.08,6.08,6.08,6.08,6.08,6.08,6.08,6.08,6.08,6.08,6.08,6.08,6.08,6.08,6.08,6.08,6.08,6.08,6.08,6.08,6.08,6.08,6.08,6.08,6.08,6.08,6.08,6.0641,6.0293,5.995,5.9571,5.9215,5.8725,5.8486,4.2148,4.3301,4.4414,4.4883,4.6365,0.0,0.0,0.0,0.0,0.0,0.0,0.0,0.0,0.0,0.0,0.0,0.0,0.0,6.259,6.3416,6.4501,0.0,0.0,6.6894,6.6894,6.6894,6.6894,6.6894,6.6894,6.6894,6.6894,6.6894,6.6504,6.5625,6.4746,6.3887,6.3008,6.2148,6.1699,6.1699,6.1699,6.1699,6.1699,6.1699,6.1699,6.1699,0.0,6.1699,6.1699,6.1699,6.1985,6.2403,6.2393,6.2393,6.2403,6.2403,6.2696,6.3106,6.3106,6.2926,6.2612,6.2069,6.1768,6.1499,6.0962,6.08,6.08,6.08,6.08,6.08,6.08,6.08,6.08,6.08,6.08,6.08,6.08,6.08,6.08,6.08,6.08,6.08,6.08,6.08,6.08,6.08,6.08,6.08,6.08,6.08,6.08,6.08,6.08,6.08,6.08,6.08,6.08,6.08,6.08,6.08,6.08,6.08,6.08,6.08,6.08,6.0641,6.0293,5.995,5.9571,5.9215,5.8725,5.8443,4.1679,4.2871,4.4219,0.0,0.0,0.0,0.0,0.0,0.0,0.0,0.0,0.0,0.0,0.0,0.0,0.0,0.0,6.1301,6.3066,6.3879,6.4958,6.6696,6.689,6.6894,6.6894,6.6894,6.6894,6.6894,6.6894,6.6894,6.6894,6.6894,6.6504,6.5625,6.4746,6.3887,6.3008,6.2148,6.1699,6.1699,6.1699,6.1699,6.1699,6.1699,6.1699,6.1699,6.1699,6.1699,6.1699,6.1698,6.2219,6.2993,6.3008,6.3125,6.3301,6.3301,6.3731,6.4297,6.4297,6.415,6.3834,6.3054,6.2557,6.2122,6.135,6.0954,6.08,6.08,6.08,6.08,6.08,6.08,6.08,6.08,6.08,6.08,6.08,6.08,6.08,6.08,6.08,6.08,6.08,6.08,6.08,6.08,6.08,6.08,6.08,6.08,6.08,6.08,6.0973,6.1089,6.1089,6.1089,6.1012,6.08,6.08,6.08,6.08,6.08,6.08,6.08,6.08,6.0666,6.0422,6.0011,5.9639,5.9325,5.8766,5.8462,4.3093,4.4194,4.5117,0.0,0.0,0.0,0.0,0.0,0.0,0.0,0.0,0.0,0.0,0.0,0.0,0.0,6.0513,6.2225,6.3965,0.0,6.4941,6.6699,6.6894,6.6894,6.6894,6.6894,6.6894,6.6894,6.6894,6.6894,6.6894,6.6894,6.6504,6.5625,6.4746,6.3887,6.3008,6.2148,6.1699,6.1699,6.1699,6.1699,6.1699,6.1699,6.1699,6.1699,6.1699,6.1699,6.1699,6.1694,6.2214,6.2993,6.2993,6.3496,6.4199,6.4199,6.4258,6.4297,6.4297,6.409,6.3804,6.3731,6.2974,6.2093,6.2036,6.1435,6.08,6.08,6.08,6.08,6.08,6.08,6.08,6.08,6.08,6.08,6.08,6.08,6.08,6.08,6.08,6.08,6.08,6.08,6.08,6.08,6.08,6.08,6.08,6.08,6.08,6.08,6.1512,6.1993,6.1993,6.1993,6.1647,6.0839,6.08,6.08,6.08,6.08,6.08,6.08,6.08,6.08,6.0757,6.0121,5.9791,5.9725,5.8825,5.8393,4.197,4.355,0.0,0.0,0.0,0.0,0.0,0.0,0.0,0.0,0.0,0.0,0.0,0.0,0.0,0.0,6.0935,6.2125,6.332,6.3965,6.4746,6.5957,6.6562,6.6894,6.6894,6.6894,6.668,6.6133,6.6094,6.5859,6.5312,6.5273,6.5371,6.5586,6.4238,6.3594,6.3808,6.2402,6.1699,6.1699,6.1699,6.1699,6.1699,6.1699,6.1699,6.1699,6.1699,6.1699,6.1699,6.1694,6.2527,6.3855,6.4403,6.5116,6.578,6.5292,6.5429,6.5858,6.5858,6.5771,6.5552,6.4947,6.4017,6.305,6.2413,6.1571,6.08,6.08,6.08,6.08,6.08,6.08,6.08,6.08,6.08,6.08,6.08,6.08,6.08,6.08,6.08,6.08,6.08,6.08,6.08,6.08,6.08,6.08,6.08,6.1262,6.1608,6.1608,6.2339,6.2858,6.2858,6.2858,6.2704,6.2377,6.1377,6.08,6.08,6.08,6.08,6.08,6.08,6.071,6.0494,6.0011,5.9658,5.9344,5.8721,5.8349,4.1582,4.3259,0.0,0.0,0.0,0.0,0.0,0.0,0.0,0.0,0.0,0.0,0.0,0.0,0.0,0.0,6.1132,6.1992,6.2871,6.375,6.4629,6.5508,6.6367,6.6894,6.6894,6.664,6.623,6.5644,6.5351,6.4922,6.4336,6.4297,6.457,6.5176,6.3769,6.3281,6.3887,6.2422,6.1699,6.1699,6.1699,6.1699,6.1699,6.1699,6.1699,6.1699,6.1699,6.1698,6.1695,6.1704,6.2736,6.4415,6.5531,6.6327,6.6737,6.617,6.6327,6.6795,6.6795,6.6765,6.6615,6.5864,6.4947,6.3929,6.2917,6.1957,6.1204,6.1204,6.1012,6.0916,6.1454,6.1204,6.08,6.08,6.08,6.08,6.08,6.08,6.08,6.08,6.08,6.08,6.08,6.08,6.08,6.08,6.1031,6.1204,6.1204,6.1954,6.257,6.2858,6.3378,6.3724,6.3724,6.3724,6.3589,6.332,6.1993,6.1204,6.1204,6.0954,6.08,6.08,6.08,6.071,6.0449,6.0102,5.9706,5.9252,5.8766,5.8443,4.2383,0.0,0.0,0.0,0.0,0.0,0.0,0.0,0.0,0.0,0.0,0.0,0.0,0.0,0.0,0.0,6.1127,6.1992,6.2871,6.375,6.4629,6.5488,6.6367,6.6894,6.6894,6.6113,6.5586,6.5586,6.4785,6.4277,6.4277,6.4277,6.4277,6.4297,6.3437,6.2988,6.3008,6.2148,6.1699,6.1699,6.1699,6.1699,6.1699,6.1699,6.1699,6.1699,6.1699,6.1694,6.1701,6.172,6.2735,6.4472,6.6151,6.6795,6.6795,6.6795,6.6795,6.6795,6.6795,6.6713,6.6574,6.6373,6.5618,6.4617,6.3603,6.2743,6.2108,6.2108,6.1493,6.1204,6.2878,6.207,6.0819,6.08,6.08,6.08,6.08,6.08,6.08,6.08,6.08,6.08,6.08,6.08,6.08,6.08,6.155,6.2108,6.2108,6.282,6.3647,6.4532,6.4609,6.4609,6.4609,6.4609,6.4243,6.3378,6.257,6.2108,6.2089,6.1262,6.08,6.08,6.0819,6.0819,6.08,6.0468,6.0072,5.962,5.9122,5.8684,4.0957,0.0,0.0,0.0,0.0,0.0,0.0,0.0,0.0,0.0,0.0,0.0,0.0,0.0,0.0,0.0,6.1132,6.1797,6.2051,6.3359,6.4394,6.4648,6.5996,6.666,6.6055,6.5742,6.5098,6.3867,6.3535,6.3125,6.25,6.2461,6.2754,6.3379,6.2539,6.2383,6.2988,6.2148,6.1699,6.1699,6.1699,6.1699,6.1699,6.1699,6.1699,6.1699,6.1699,6.1698,6.1793,6.3021,6.3828,6.4472,6.6151,6.6795,6.6795,6.6795,6.6795,6.6795,6.6795,6.6765,6.6727,6.6666,6.5906,6.4954,6.467,6.3803,6.2935,6.2935,6.2762,6.2666,6.3166,6.2935,6.2416,6.1839,6.1704,6.155,6.0935,6.08,6.08,6.08,6.08,6.08,6.08,6.08,6.1012,6.1608,6.1916,6.2531,6.3705,6.407,6.4551,6.5416,6.5513,6.5513,6.5513,6.5513,6.5397,6.5147,6.432,6.332,6.2147,6.1839,6.1416,6.08,6.1954,6.2281,6.1704,6.1915,6.1742,6.1217,6.075,6.0228,4.1849,0.0,0.0,0.0,0.0,0.0,0.0,0.0,0.0,0.0,0.0,0.0,0.0,0.0,0.0,6.0859,6.1367,6.1699,6.1699,6.289,6.3906,6.4258,6.5234,6.5801,6.5625,6.4961,6.4121,6.3086,6.2676,6.2246,6.1738,6.1699,6.1933,6.2461,6.1973,6.1953,6.248,6.1953,6.1699,6.1699,6.1699,6.1699,6.1699,6.1699,6.1699,6.1699,6.1699,6.1699,6.1814,6.3207,6.3993,6.4433,6.578,6.6522,6.6795,6.6795,6.6795,6.6795,6.6795,6.6795,6.6795,6.6746,6.6254,6.5609,6.5125,6.4484,6.3862,6.3825,6.357,6.3474,6.4147,6.4089,6.3608,6.2762,6.257,6.2339,6.1493,6.132,6.1204,6.0858,6.08,6.08,6.08,6.1089,6.1493,6.2012,6.2666,6.357,6.4936,6.5128,6.532,6.584,6.5897,6.5897,6.5897,6.5897,6.5897,6.5897,6.507,6.4147,6.3128,6.2762,6.232,6.18,6.2801,6.307,6.257,6.2809,6.2559,6.1898,6.1618,6.1087,0.0,0.0,0.0,0.0,0.0,0.0,0.0,0.0,0.0,0.0,0.0,0.0,0.0,0.0,6.0781,6.1562,6.1699,6.1699,6.1699,6.2441,6.3281,6.4082,6.4258,6.457,6.5293,6.3926,6.2969,6.289,6.2148,6.1699,6.1699,6.1699,6.1699,6.1699,6.1699,6.1699,6.1699,6.1699,6.1699,6.1699,6.1699,6.1699,6.1699,6.1699,6.1699,6.1699,6.1699,6.1698,6.1765,6.2722,6.3591,6.4394,6.5331,6.6151,6.6795,6.6795,6.6795,6.6795,6.6795,6.6795,6.679,6.6653,6.6605,6.6396,6.5271,6.4929,6.4888,6.4759,6.4147,6.3897,6.5493,6.5301,6.4532,6.3743,6.3493,6.3205,6.2377,6.2204,6.1973,6.1185,6.0973,6.0935,6.1012,6.1608,6.2147,6.23,6.3685,6.4993,6.5801,6.5897,6.5897,6.5897,6.5897,6.5897,6.5897,6.5897,6.5897,6.5897,6.5166,6.4724,6.4724,6.3878,6.3378,6.3301,6.3474,6.3512,6.3435,6.3468,6.3045,6.2161,6.2144,6.1606,0.0,0.0,0.0,0.0,0.0,0.0,0.0,0.0,0.0,0.0,0.0,0.0,0.0,6.1504,6.1484,6.168,6.1699,6.1699,6.1699,6.2441,6.3066,6.3262,6.3887,6.4101,6.3613,6.3223,6.2715,6.2031,6.1816,6.1699,6.1699,6.1699,6.1699,6.1699,6.1699,6.1699,6.1699,6.1699,6.1699,6.1699,6.1699,6.1699,6.1699,6.1699,6.1699,6.1699,6.1699,6.1694,6.1822,6.3388,6.4126,6.4453,6.5956,6.6658,6.6795,6.6795,6.6795,6.6795,6.6795,6.6795,6.6795,6.6759,6.6697,6.6524,6.6101,6.5913,6.5796,6.5664,6.5493,6.5436,6.5801,6.5763,6.557,6.5397,6.482,6.4089,6.3243,6.3051,6.2993,6.2801,6.2243,6.2012,6.2647,6.2397,6.2551,6.3858,6.4955,6.5686,6.5878,6.5897,6.5897,6.5897,6.5897,6.5897,6.5897,6.5897,6.5897,6.5897,6.5724,6.5609,6.5609,6.4782,6.4012,6.332,6.4647,6.4993,6.432,6.4845,6.4823,6.4305,6.386,6.3345,0.0,0.0,0.0,0.0,0.0,0.0,0.0,0.0,0.0,0.0,0.0,0.0,6.1501,6.1529,6.1568,6.1568,6.1614,6.164,6.164,6.207,6.2539,6.2949,6.3027,6.3047,6.3008,6.2617,6.2187,6.1738,6.1699,6.1699,6.1699,6.1699,6.1699,6.1699,6.1699,6.1699,6.1699,6.1699,6.1699,6.1699,6.1699,6.1699,6.1699,6.1699,6.1699,6.1699,6.1694,6.1704,6.1772,6.2681,6.3301,6.3809,6.5097,6.5858,6.6268,6.6658,6.6795,6.6795,6.6795,6.6795,6.6795,6.6795,6.6753,6.6661,6.6386,6.6251,6.6148,6.5962,6.5897,6.5897,6.5897,6.5897,6.5897,6.5897,6.5551,6.4974,6.4109,6.3916,6.3801,6.3378,6.2954,6.282,6.3243,6.3301,6.3743,6.5032,6.5609,6.5897,6.5897,6.5897,6.5897,6.5897,6.5897,6.5897,6.5897,6.5897,6.5897,6.5897,6.5897,6.5897,6.5897,6.5455,6.5013,6.4551,6.5436,6.5686,6.5224,6.557,6.5378,6.4699,6.4389,6.3869,0.0,0.0,0.0,0.0,0.0,0.0,0.0,0.0,0.0,0.0,0.0,6.138,6.1375,6.139,6.139,6.139,6.1485,6.1573,6.1601,6.164,6.1953,6.2695,6.2148,6.1973,6.2715,6.2129,6.1699,6.1699,6.1699,6.1699,6.1699,6.1699,6.1699,6.1699,6.1699,6.1699,6.1699,6.1699,6.1699,6.1699,6.1699,6.1699,6.1699,6.1698,6.1698,6.1699,6.1697,6.169,6.1704,6.1866,6.2345,6.3106,6.4121,6.496,6.5702,6.6502,6.6795,6.6795,6.6795,6.6795,6.6795,6.6795,6.6795,6.6739,6.6438,6.6329,6.6251,6.5994,6.5928,6.5897,6.5897,6.5897,6.5897,6.5897,6.5897,6.5705,6.4974,6.482,6.4609,6.3897,6.3762,6.3705,6.3551,6.4262,6.507,6.5782,6.5897,6.5897,6.5897,6.5897,6.5897,6.5897,6.5897,6.5897,6.5897,6.5897,6.5897,6.5897,6.5897,6.5897,6.5897,6.5897,6.5897,6.5897,6.5897,6.5897,6.5897,6.5872,6.5407,6.4609,6.4426,6.3873,0.0,0.0,0.0,0.0,0.0,0.0,0.0,0.0,0.0,0.0,6.1215,6.1311,6.1307,6.1346,6.1384,6.1384,6.1416,6.1479,6.1578,6.1601,6.168,6.1855,6.1777,6.1758,6.1855,6.1777,6.1699,6.1699,6.1699,6.1699,6.1699,6.1699,6.1699,6.1699,6.1699,6.1699,6.1699,6.1699,6.1699,6.1699,6.1699,6.1699,6.1699,6.1704,6.1707,6.1699,6.1697,6.1701,6.1764,6.2501,6.2891,6.3164,6.4785,6.5507,6.5702,6.6502,6.6795,6.6795,6.6795,6.6795,6.6795,6.6795,6.6795,6.6765,6.6605,6.6432,6.6267,6.6109,6.599,6.5897,6.5897,6.5897,6.5897,6.5897,6.5897,6.5859,6.5743,6.5724,6.5686,6.557,6.5551,6.5301,6.457,6.5147,6.5763,6.5878,6.5897,6.5897,6.5897,6.5897,6.5897,6.5897,6.5897,6.5897,6.5897,6.5897,6.5897,6.5897,6.5897,6.5897,6.5897,6.5897,6.5897,6.5897,6.5897,6.5897,6.5897,6.5728,6.558,6.5427,6.4556,6.4056,0.0,0.0,0.0,0.0,0.0,0.0,0.0,0.0,5.8352,6.0074,6.046,6.0654,6.1099,6.1215,6.1234,6.1234,6.1292,6.1358,6.1417,6.1529,6.1601,6.164,6.168,6.1699,6.1699,6.1699,6.1699,6.1699,6.1699,6.1699,6.1699,6.1699,6.1699,6.1699,6.1699,6.1699,6.1699,6.1699,6.1699,6.1699,6.1699,6.1699,6.1699,6.1701,6.169,6.1707,6.1709,6.1701,6.174,6.211,6.2267,6.2403,6.3652,6.414,6.4297,6.5643,6.6131,6.619,6.6639,6.6795,6.6795,6.6795,6.6795,6.6765,6.6644,6.6465,6.6283,6.6148,6.5994,6.5897,6.5897,6.5897,6.5897,6.5897,6.5897,6.5897,6.5897,6.5897,6.5897,6.5897,6.5897,6.5782,6.5397,6.5647,6.5897,6.5897,6.5897,6.5897,6.5897,6.5897,6.5897,6.5897,6.5897,6.5897,6.5897,6.5897,6.5897,6.5897,6.5897,6.5897,6.5897,6.5897,6.5897,6.5897,6.5897,6.5872,6.5846,6.5747,6.5523,6.5194,6.4463,6.4016,0.0,0.0,0.0,0.0,0.0,0.0,0.0,0.0,5.7733,0.0,5.9745,6.0074,6.0673,6.0963,6.1099,6.1099,6.1176,6.1273,6.1311,6.145,6.158,6.1621,6.168,6.1699,6.1699,6.1699,6.1699,6.1699,6.1699,6.1699,6.1699,6.1699,6.1699,6.1699,6.1699,6.1582,6.1367,6.1367,6.1367,6.1367,6.1582,6.1699,6.1697,6.1701,6.1705,6.1701,6.1701,6.1701,6.1701,6.1701,6.1701,6.1798,6.2657,6.3008,6.3184,6.4707,6.5409,6.5682,6.6288,6.6619,6.6795,6.6795,6.6795,6.679,6.667,6.6513,6.6344,6.6184,6.6044,6.5933,6.5923,6.5897,6.5897,6.5897,6.5897,6.5897,6.5897,6.5897,6.5897,6.5897,6.5897,6.5897,6.5897,6.5897,6.5897,6.5897,6.5897,6.5897,6.5897,6.5897,6.5897,6.5897,6.5897,6.5897,6.5897,6.5897,6.5897,6.5897,6.5897,6.5897,6.5897,6.5897,6.5897,6.5872,6.5872,6.5846,6.5793,6.5767,6.5494,6.5047,6.4463,6.3997,0.0,0.0,0.0,0.0,0.0,0.0,0.0,0.0,5.7559,5.8468,5.9319,5.9899,5.9938,6.0596,6.1099,6.1099,6.1118,6.1176,6.1369,6.1406,6.1466,6.1676,6.1699,6.1699,6.1699,6.1699,6.1699,6.1699,6.1699,6.1699,6.1699,6.1699,6.1699,6.1699,6.1699,6.1308,6.0488,6.0469,6.0469,6.0488,6.1308,6.1695,6.1705,6.1701,6.1701,6.1701,6.1701,6.1701,6.1701,6.1701,6.1701,6.1798,6.2657,6.3008,6.3106,6.4023,6.4882,6.5604,6.5643,6.6151,6.6795,6.6795,6.6795,6.6795,6.6795,6.6686,6.6544,6.6344,6.6184,6.6065,6.5933,6.5897,6.5897,6.5897,6.5897,6.5897,6.5897,6.5897,6.5897,6.5897,6.5897,6.5897,6.5897,6.5897,6.5897,6.5897,6.5897,6.5897,6.5897,6.5897,6.5897,6.5897,6.5897,6.5897,6.5897,6.5897,6.5897,6.5897,6.5897,6.5897,6.5897,6.5897,6.5872,6.5813,6.5813,6.5793,6.5793,6.5655,6.5552,6.5465,6.4519,6.4096,0.0,0.0,0.0,4.6225,4.9378,5.2321,5.402,5.547,5.6708,5.7598,5.8004,5.841,5.8952,6.017,6.1099,6.1099,6.1099,6.1157,6.1311,6.138,6.1467,6.1627,6.1676,6.1699,6.1699,6.1699,6.1699,6.1699,6.1699,6.1699,6.1699,6.1699,6.1699,6.1699,6.1699,6.1543,6.123,6.123,6.0957,6.041,6.1289,6.1401,6.0881,6.1436,6.1709,6.1701,6.1701,6.1701,6.1701,6.1701,6.1701,6.174,6.2032,6.2169,6.2267,6.3145,6.3652,6.4082,6.5214,6.58,6.6112,6.6619,6.6795,6.6795,6.6795,6.6705,6.6585,6.6501,6.6287,6.6088,6.6041,6.5962,6.5897,6.5897,6.5897,6.5897,6.5897,6.5897,6.5897,6.5897,6.5897,6.5897,6.5897,6.5897,6.5897,6.5897,6.5897,6.5897,6.5897,6.5897,6.5897,6.5897,6.5897,6.5897,6.5897,6.5897,6.5897,6.5897,6.5897,6.5897,6.5897,6.5897,6.5872,6.5793,6.5793,6.574,6.5618,6.5571,6.5494,6.5425,6.4845,6.4407,3.7839,0.0,0.0,0.0,0.0,4.9885,5.2163,5.3749,5.4967,5.5838,5.6476,5.7134,5.8004,5.93,6.0364,6.0654,6.0925,6.1157,6.1311,6.1369,6.1461,6.1596,6.1676,6.1699,6.1699,6.1699,6.1699,6.1699,6.1699,6.1699,6.1699,6.1699,6.1699,6.1699,6.1426,6.1269,6.1266,6.1264,6.0973,6.0409,6.0996,6.0952,6.0412,6.0998,6.1271,6.1271,6.1564,6.1701,6.1701,6.1701,6.1701,6.1701,6.1701,6.1701,6.1779,6.2345,6.2755,6.3164,6.4336,6.4921,6.5253,6.578,6.6151,6.6405,6.6405,6.6512,6.6653,6.6605,6.6397,6.6148,6.6109,6.5994,6.5897,6.5897,6.5897,6.5897,6.5897,6.5897,6.5897,6.5897,6.5897,6.5897,6.5897,6.5897,6.5897,6.5897,6.5897,6.5897,6.5897,6.5897,6.5897,6.5897,6.5897,6.5897,6.5897,6.5897,6.5897,6.5897,6.5897,6.5897,6.5897,6.5897,6.5846,6.5747,6.5747,6.5646,6.5484,6.5494,6.5484,6.5394,6.4985,6.4502,0.0,0.0,0.0,0.0,0.0,0.0,5.021,0.0,5.2376,5.3304,5.4793,5.6205,5.7114,5.7965,5.8836,5.9687,6.0518,6.1137,6.1369,6.1389,6.1478,6.1678,6.1699,6.1699,6.1699,6.168,6.168,6.1699,6.168,6.168,6.1699,6.1699,6.1699,6.1699,6.0879,6.0445,6.0432,6.0447,6.0421,6.0398,6.0428,6.0405,6.0354,6.0393,6.0393,6.0412,6.1291,6.1661,6.1661,6.1701,6.1701,6.1701,6.1701,6.1701,6.1701,6.1701,6.2247,6.2969,6.2989,6.3555,6.4277,6.4297,6.4863,6.5565,6.5585,6.6151,6.6745,6.6644,6.6465,6.6267,6.6129,6.6013,6.5897,6.5897,6.5897,6.5897,6.5897,6.5897,6.5897,6.5897,6.5897,6.5897,6.5897,6.5897,6.5897,6.5897,6.5897,6.5897,6.5897,6.5897,6.5897,6.5897,6.5897,6.5897,6.5897,6.5897,6.5897,6.5897,6.5897,6.5897,6.5897,6.5897,6.5801,6.5608,6.5608,6.5523,6.5394,6.5484,6.5465,6.5394,6.4985,6.435,3.7077,0.0,0.0,0.0,0.0,0.0,0.0,0.0,5.1037,5.3072,5.3865,5.4639,5.6089,5.7076,5.7753,5.7985,5.9261,6.0499,6.1292,6.1389,6.1478,6.1678,6.1699,6.1699,6.1699,6.1133,6.1014,0.0,6.1112,6.104,6.1674,6.1694,6.1694,6.1694,6.1479,6.134,6.1333,6.1338,6.1017,6.0421,6.103,6.0679,5.9475,6.0119,6.0061,5.9514,6.0373,6.0764,6.0803,6.1447,6.1701,6.1701,6.1701,6.1701,6.1701,6.1701,6.1857,6.2149,6.2774,6.3164,6.3457,6.4101,6.4453,6.4785,6.5409,6.5761,6.6048,6.6597,6.6535,6.6251,6.6016,6.5928,6.5897,6.5897,6.5897,6.5897,6.5897,6.5897,6.5897,6.5897,6.5897,6.5897,6.5897,6.5897,6.5897,6.5897,6.5897,6.5897,6.5897,6.5897,6.5897,6.5897,6.5897,6.5897,6.5897,6.5897,6.5897,6.5897,6.5897,6.5897,6.5897,6.5897,6.5801,6.5608,6.5608,6.5523,6.5394,6.5425,6.5425,6.5394,6.4985,6.4668,0.0,0.0,0.0,0.0,0.0,0.0,4.6104,4.742,4.8754,0.0,5.166,5.2531,5.4581,5.5374,5.607,5.7134,5.8159,5.9165,6.0151,6.032,6.0405,6.0565,6.0916,6.1028,6.0698,6.0505,6.0463,6.0604,6.0475,6.0788,6.1658,6.1697,6.1697,6.1697,6.1697,6.1697,6.1697,6.1705,6.1447,6.0934,6.0725,6.008,5.9104,5.9241,5.9046,5.8616,5.9475,5.9866,5.9924,6.0803,6.1369,6.1701,6.1701,6.1701,6.1701,6.1701,6.1701,6.1779,6.2286,6.2462,6.254,6.3047,6.3457,6.3848,6.4355,6.4765,6.5234,6.6073,6.6303,6.6234,6.5986,6.5897,6.5897,6.5897,6.5897,6.5897,6.5897,6.5897,6.5897,6.5897,6.5897,6.5897,6.5897,6.5897,6.5897,6.5897,6.5897,6.5897,6.5897,6.5897,6.5897,6.5897,6.5897,6.5897,6.5897,6.5897,6.5897,6.5897,6.5897,6.5897,6.5897,6.5897,6.5827,6.5701,6.5627,6.5523,6.5394,6.5394,6.5394,6.5394,6.5169,6.4966,0.0,0.0,0.0,0.0,0.0,0.0,4.4899,4.562,4.6167,4.7908,4.8875,5.019,5.2763,5.3227,5.3981,5.6246,5.6768,5.7348,5.8663,5.8939,5.9089,5.9276,5.993,6.0104,5.9402,5.9807,5.9832,5.9149,5.9913,6.0739,6.1505,6.1642,6.1701,6.1701,6.1701,6.1701,6.1701,6.1603,6.1603,6.1681,5.9924,5.9143,5.9202,5.8246,5.7797,5.7836,5.8616,5.8968,5.9026,5.9905,6.0764,6.1564,6.1661,6.1701,6.1701,6.1701,6.1701,6.1701,6.1701,6.1701,6.1701,6.1701,6.2228,6.2872,6.2969,6.3535,6.4355,6.5276,6.5834,6.6137,6.5967,6.5897,6.5897,6.5897,6.5897,6.5897,6.5897,6.5897,6.5897,6.5897,6.5897,6.5897,6.5897,6.5897,6.5897,6.5897,6.5897,6.5897,6.5897,6.5897,6.5897,6.5897,6.5897,6.5897,6.5897,6.5897,6.5897,6.5897,6.5897,6.5897,6.5897,6.5897,6.5872,6.5793,6.5655,6.5542,6.5394,6.5394,6.5394,6.5394,6.5394,6.5201,0.0,0.0,0.0,0.0,0.0,0.0,4.297,4.3885,4.538,4.7018,4.7482,4.843,5.1083,5.157,5.1763,5.2292,5.3469,5.559,5.9242,5.976,6.0106,6.0992,6.0644,6.0288,6.0187,5.9089,5.8586,5.9054,5.9909,6.0471,6.0646,6.133,6.1701,6.1701,6.1701,6.1701,6.1701,6.0998,6.1017,6.1681,5.9924,5.9475,6.008,5.8519,5.7797,5.7816,5.7972,5.805,5.8128,5.8987,5.9866,6.0725,6.1427,6.1701,6.1701,6.1701,6.1701,6.1701,6.1701,6.1701,6.1701,6.1701,6.1818,6.2071,6.2794,6.3125,6.3533,6.4827,6.527,6.5419,6.5789,6.5897,6.5897,6.5897,6.5897,6.5897,6.5897,6.5897,6.5897,6.5897,6.5897,6.5897,6.5897,6.5897,6.5897,6.5897,6.5897,6.5897,6.5897,6.5897,6.5897,6.5897,6.5897,6.5897,6.5897,6.5897,6.5897,6.5897,6.5897,6.5897,6.5897,6.5897,6.5872,6.5793,6.5618,6.5465,6.5394,6.5394,6.5394,6.5394,6.5394,6.5364,0.0,0.0,0.0,4.2763,0.0,0.0,0.0,4.3343,4.3943,4.6013,4.578,4.5993,4.8609,4.9127,4.9453,5.0356,5.1881,5.3703,5.585,5.7282,5.8331,5.89,5.9363,5.9528,5.9185,5.9148,5.9124,5.9104,5.9104,5.9475,6.0354,6.0803,6.1252,6.1701,6.1701,6.1701,6.1701,6.1271,6.1271,6.1681,6.0373,5.9749,5.971,5.8402,5.7582,5.7192,5.7192,5.7192,5.727,5.8109,5.8968,5.9846,6.0705,6.133,6.1701,6.1701,6.1701,6.1701,6.1701,6.1701,6.1701,6.1701,6.1701,6.1779,6.2228,6.2657,6.3117,6.3645,6.4415,6.5128,6.5211,6.557,6.5897,6.5897,6.5897,6.5897,6.5897,6.5897,6.5897,6.5897,6.5897,6.5897,6.5897,6.5897,6.5897,6.5897,6.5897,6.5897,6.5897,6.5897,6.5897,6.5897,6.5897,6.5897,6.5897,6.5897,6.5897,6.5897,6.5897,6.5897,6.5897,6.5897,6.5872,6.5793,6.5693,6.5571,6.5454,6.5454,6.5425,6.5394,6.5394,6.5394,0.0,0.0,0.0,0.0,0.0,4.3189,0.0,0.0,0.0,0.0,0.0,0.0,4.6491,4.6809,4.7252,4.8853,5.038,5.1414,5.158,5.3709,5.5439,5.5985,5.7341,5.8,5.7452,5.8312,5.8909,5.8851,5.7894,5.8148,6.0041,6.0159,6.0471,6.1174,6.1369,6.1447,6.1447,6.1447,6.1525,6.1701,6.0471,5.971,5.9319,5.8109,5.7309,5.6821,5.6665,5.6606,5.6645,5.7309,5.807,5.8948,5.9983,6.0939,6.1701,6.1701,6.1701,6.1701,6.1701,6.1701,6.1701,6.1701,6.1701,6.1701,6.1701,6.2189,6.2714,6.2573,6.3532,6.4566,6.445,6.5018,6.5647,6.5647,6.5782,6.5897,6.5897,6.5897,6.5897,6.5897,6.5897,6.5897,6.5897,6.5897,6.5897,6.5897,6.5897,6.5897,6.5897,6.5897,6.5897,6.5897,6.5897,6.5897,6.5897,6.5897,6.5897,6.5897,6.5897,6.5897,6.5897,6.5897,6.5872,6.5793,6.5767,6.5693,6.5494,6.5494,6.5435,6.5394,6.5394,6.5394,0.0,0.0,0.0,0.0,4.549,0.0,0.0,0.0,0.0,4.4678,0.0,0.0,0.0,0.0,0.0,0.0,0.0,0.0,4.8993,5.0635,5.262,5.4875,5.5338,5.5494,5.5583,5.4365,5.4791,5.7738,5.6469,5.6665,5.9124,5.9261,5.93,5.9397,6.0139,6.0549,6.0549,6.0549,6.0939,6.1681,5.9241,5.8851,6.0178,5.7816,5.7074,5.7621,5.6918,5.6606,5.6606,5.6704,5.7211,5.8109,5.9768,6.0939,6.1701,6.1701,6.1701,6.1701,6.1701,6.1701,6.1701,6.1701,6.1701,6.1701,6.1701,6.1779,6.1958,6.2513,6.2724,6.2933,6.3555,6.4235,6.4743,6.4743,6.534,6.5897,6.5897,6.5897,6.5897,6.5897,6.5897,6.5897,6.5897,6.5897,6.5897,6.5897,6.5897,6.5897,6.5897,6.5897,6.5897,6.5897,6.5897,6.5897,6.5897,6.5897,6.5897,6.5897,6.5897,6.5897,6.5897,6.5897,6.5872,6.5793,6.5674,6.558,6.5494,6.5454,6.5394,6.5394,6.5394,6.5394,0.0,0.0,0.0,0.0,0.0,0.0,4.3305,0.0,4.2802,0.0,0.0,0.0,0.0,0.0,0.0,0.0,4.649,0.0,4.6562,4.8333,5.0478,5.2602,0.0,0.0,5.5189,5.4186,5.4264,5.6196,5.4752,5.5123,5.8187,5.7894,5.8324,5.9807,5.9729,5.9651,5.9651,6.0159,6.0334,6.0198,6.01,5.9651,5.887,5.8304,5.7699,5.7074,5.6743,5.6606,5.6606,5.6606,5.7074,5.7875,5.8616,5.9729,6.1017,6.1505,6.1701,6.1701,6.1701,6.1701,6.1701,6.1701,6.1701,6.1701,6.1701,6.1701,6.1744,6.1946,6.2243,6.256,6.278,6.3737,6.4609,6.4609,6.5263,6.5897,6.5897,6.5897,6.5897,6.5897,6.5897,6.5897,6.5897,6.5897,6.5897,6.5897,6.5897,6.5897,6.5897,6.5897,6.5897,6.5897,6.5897,6.5897,6.5897,6.5897,6.5897,6.5897,6.5897,6.5897,6.5897,6.5897,6.5897,6.5846,6.5774,6.5674,6.5552,6.5494,6.5454,6.5394,6.5394,6.5394,4.6806,0.0,0.0,0.0,0.0,0.0,0.0,0.0,0.0,0.0,0.0,0.0,0.0,0.0,0.0,0.0,0.0,4.6319,0.0,4.662,0.0,0.0,0.0,0.0,0.0,5.2897,5.2995,5.481,5.3112,5.3483,5.6938,5.6567,5.7094,5.8948,5.8831,5.8734,5.8734,5.9612,5.9729,5.9104,6.0139,5.9631,5.7816,5.8226,5.7758,5.6606,5.6606,5.6606,5.6606,5.6606,5.6938,5.7484,5.7719,5.8714,6.0159,6.1017,6.1486,6.1701,6.1701,6.1701,6.1701,6.1701,6.1857,6.2013,6.1779,6.1876,6.1983,6.1639,6.1879,6.2191,6.2037,6.3166,6.4297,6.4268,6.5089,6.5897,6.5897,6.5897,6.5897,6.5897,6.5897,6.5897,6.5897,6.5897,6.5897,6.5897,6.5897,6.5897,6.5897,6.5897,6.5897,6.5897,6.5897,6.5897,6.5897,6.5897,6.5897,6.5897,6.5897,6.5897,6.5897,6.5872,6.5872,6.5872,6.5774,6.5674,6.558,6.5494,6.5454,6.5394,6.5394,6.5394,0.0,0.0,0.0,4.5645,0.0,0.0,0.0,0.0,4.5432,0.0,0.0,0.0,0.0,0.0,0.0,0.0,0.0,0.0,0.0,0.0,0.0,0.0,0.0,0.0,0.0,4.8779,4.954,5.3737,5.1648,5.1707,5.5181,5.5357,5.5376,5.5454,5.7016,5.7836,5.7836,5.8714,5.9124,5.9085,5.8304,5.7875,5.7777,5.7016,5.6645,5.6606,5.6606,5.6606,5.6606,5.6606,5.6626,5.6723,5.7504,5.8343,5.9261,6.0119,6.0978,6.1701,6.1701,6.1701,6.1701,6.1701,6.2267,6.2794,6.1954,6.2286,6.2774,6.193,6.1615,6.148,6.1291,6.2424,6.3571,6.3387,6.4647,6.5897,6.5897,6.5897,6.5897,6.5897,6.5897,6.5897,6.5897,6.5897,6.5897,6.5897,6.5897,6.5897,6.5897,6.5897,6.5897,6.5897,6.5897,6.5897,6.5897,6.5897,6.5897,6.5897,6.5897,6.5897,6.5897,6.5846,6.5793,6.5793,6.5599,6.5494,6.5494,6.5425,6.5394,6.5394,6.5394,6.5394,0.0,0.0,5.1738,4.8043,0.0,0.0,0.0,0.0,0.0,0.0,0.0,0.0,0.0,0.0,0.0,0.0,0.0,0.0,0.0,0.0,0.0,0.0,0.0,0.0,0.0,0.0,4.8662,5.1238,5.0067,5.077,5.4244,5.4439,5.4966,5.6118,5.6704,5.7016,5.7016,5.7836,5.7972,5.7465,5.8265,5.8089,5.7016,5.7289,5.7094,5.6606,5.6606,5.6606,5.6606,5.6606,5.6606,5.6626,5.6899,5.7855,5.9202,6.008,6.0959,6.1701,6.1701,6.1701,6.1798,6.2364,6.2755,6.293,6.2657,6.2774,6.2813,6.1954,6.1595,6.1481,6.1431,6.2482,6.3593,6.3512,6.4729,6.5897,6.5897,6.5897,6.5897,6.5897,6.5897,6.5897,6.5897,6.5897,6.5897,6.5897,6.5897,6.5897,6.5897,6.5897,6.5897,6.5897,6.5897,6.5897,6.5897,6.5897,6.5897,6.5897,6.5897,6.5897,6.5897,6.5872,6.5846,6.5793,6.5646,6.5552,6.5494,6.5425,6.5394,6.5394,6.5394,6.5394,5.1525,5.2627,0.0,4.9726,4.9088,0.0,4.4968,0.0,0.0,0.0,0.0,0.0,0.0,0.0,0.0,0.0,0.0,0.0,0.0,4.4212,0.0,0.0,0.0,0.0,0.0,4.6866,4.7373,4.9091,4.8681,4.9618,0.0,5.321,5.4186,5.563,5.5981,5.6294,5.6606,5.7113,5.7113,5.6606,5.7699,5.766,5.6626,5.7133,5.7094,5.6606,5.6606,5.6606,5.6606,5.6606,5.6606,5.6606,5.6606,5.7621,5.9163,5.9729,6.0686,6.1701,6.1701,6.1896,6.2247,6.2813,6.3418,6.3809,6.3184,6.3223,6.3223,6.2032,6.1634,6.1545,6.1412,6.2313,6.3264,6.3455,6.4498,6.5513,6.582,6.5897,6.5897,6.5897,6.5897,6.5897,6.5897,6.5897,6.5897,6.5897,6.5897,6.5897,6.5897,6.5897,6.5897,6.5897,6.5897,6.5897,6.5897,6.5897,6.5897,6.5897,6.5897,6.5897,6.5897,6.5827,6.5755,6.572,6.5599,6.5513,6.5465,6.5425,6.5394,6.5394,6.5394,6.5394]},{"header":{"parameterUnit":"m.s-1","parameterCategory":1,"la1":30.6,"la2":29.2853,"lo1":-89.7004,"lo2":-87.6739,"dy":0.0162,"dx":0.0183,"nx":112,"ny":82,"refTime":"2025-05-17T06:00:00:Z","depth":0,"parameterNumber":3,"parameterNumberName":"V-component_of_WINDS"},"data":[0.0,0.0,0.0,0.0,0.0,0.0,0.0,0.0,0.0,0.0,0.0,0.0,0.0,0.0,0.0,0.0,0.0,0.0,0.0,0.0,0.0,0.0,0.0,0.0,0.0,0.0,0.0,0.0,0.0,0.0,0.0,0.0,0.0,0.0,0.0,0.0,0.0,0.0,0.0,0.0,0.0,0.0,0.0,0.0,0.0,0.0,0.0,0.0,0.0,0.0,0.0,0.0,0.0,0.0,0.0,0.0,0.0,0.0,0.0,0.0,0.0,0.0,0.0,0.0,0.0,0.0,0.0,0.0,0.0,0.0,0.0,0.0,0.0,0.0,0.0,0.0,0.0,0.0,0.0,0.0,0.0,0.0,0.0,0.0,0.0,0.0,0.0,0.0,0.0,0.0,0.0,-0.9175,-0.8671,-0.8531,-0.8531,-1.0168,-1.0783,-0.9892,0.0,0.0,0.0,0.0,0.0,0.0,0.0,0.0,0.0,0.0,0.0,0.0,0.0,0.0,0.0,0.0,0.0,0.0,0.0,0.0,0.0,0.0,0.0,0.0,0.0,0.0,0.0,0.0,0.0,0.0,0.0,0.0,0.0,0.0,0.0,0.0,0.0,0.0,0.0,0.0,0.0,0.0,0.0,0.0,0.0,0.0,0.0,0.0,0.0,0.0,0.0,0.0,0.0,0.0,0.0,0.0,0.0,0.0,0.0,0.0,0.0,0.0,0.0,0.0,0.0,0.0,0.0,0.0,0.0,0.0,0.0,0.0,0.0,0.0,0.0,0.0,0.0,0.0,0.0,0.0,0.0,0.0,0.0,0.0,0.0,0.0,0.0,0.0,0.0,0.0,0.0,0.0,0.0,0.0,0.0,0.0,0.0,0.0,0.0,0.0,0.0,0.0,0.0,0.0,-1.0891,-1.0838,-1.0724,-1.0681,-1.0681,-1.0908,-1.0993,-1.0932,0.0,0.0,0.0,0.0,0.0,0.0,0.0,0.0,0.0,0.0,0.0,0.0,0.0,0.0,0.0,0.0,0.0,0.0,0.0,0.0,0.0,0.0,0.0,0.0,0.0,0.0,0.0,0.0,0.0,0.0,0.0,0.0,0.0,0.0,0.0,0.0,0.0,0.0,0.0,0.0,0.0,0.0,0.0,0.0,0.0,0.0,0.0,0.0,0.0,0.0,0.0,0.0,0.0,0.0,0.0,0.0,0.0,0.0,0.0,0.0,0.0,0.0,0.0,0.0,0.0,0.0,0.0,0.0,0.0,0.0,0.0,0.0,0.0,0.0,0.0,0.0,0.0,0.0,0.0,0.0,0.0,0.0,0.0,0.0,0.0,0.0,0.0,0.0,0.0,0.0,0.0,0.0,0.0,0.0,0.0,0.0,0.0,0.0,0.0,0.0,0.0,0.0,0.0,-1.0196,-0.9822,-1.0307,-0.9805,-0.9509,-0.9509,-1.0502,-1.0899,-1.041,-1.1714,0.0,0.0,0.0,0.0,0.0,0.0,0.0,0.0,0.0,0.0,0.0,0.0,0.0,0.0,0.0,0.0,0.0,0.0,0.0,0.0,0.0,0.0,0.0,0.0,0.0,0.0,0.0,0.0,0.0,0.0,0.0,0.0,0.0,0.0,0.0,0.0,0.0,0.0,0.0,0.0,0.0,0.0,0.0,0.0,0.0,0.0,0.0,0.0,0.0,0.0,0.0,0.0,0.0,0.0,0.0,0.0,0.0,0.0,0.0,0.0,0.0,0.0,0.0,0.0,0.0,0.0,0.0,0.0,0.0,0.0,0.0,0.0,0.0,0.0,0.0,0.0,0.0,0.0,0.0,0.0,0.0,0.0,0.0,0.0,0.0,0.0,0.0,0.0,0.0,0.0,0.0,0.0,0.0,0.0,0.0,0.0,0.0,0.0,0.0,0.0,0.0,0.0,-1.0259,-0.9435,-0.9951,-0.9217,-0.8726,-0.8726,-1.021,-1.0805,-1.0062,-1.1111,0.0,0.0,0.0,0.0,0.0,0.0,0.0,0.0,0.0,0.0,0.0,0.0,0.0,0.0,0.0,0.0,0.0,0.0,0.0,0.0,0.0,0.0,0.0,0.0,0.0,0.0,0.0,0.0,0.0,0.0,0.0,0.0,0.0,0.0,0.0,0.0,0.0,0.0,0.0,0.0,0.0,0.0,0.0,0.0,0.0,0.0,0.0,0.0,0.0,0.0,0.0,0.0,0.0,0.0,0.0,0.0,0.0,0.0,0.0,0.0,0.0,0.0,0.0,0.0,0.0,0.0,0.0,0.0,0.0,0.0,0.0,0.0,0.0,0.0,0.0,0.0,0.0,0.0,0.0,0.0,0.0,0.0,0.0,0.0,0.0,0.0,0.0,0.0,0.0,0.0,0.0,0.0,0.0,0.0,0.0,0.0,0.0,0.0,0.0,0.0,0.0,0.0,-1.1101,-1.1025,-1.1068,-1.0974,-1.0979,-1.0979,-1.082,-1.0864,-1.1089,-1.0482,0.0,0.0,0.0,0.0,0.0,0.0,0.0,0.0,0.0,0.0,0.0,0.0,0.0,0.0,0.0,0.0,0.0,0.0,0.0,0.0,0.0,0.0,0.0,0.0,0.0,0.0,0.0,0.0,0.0,0.0,0.0,0.0,0.0,0.0,0.0,0.0,0.0,0.0,0.0,0.0,0.0,0.0,0.0,0.0,0.0,0.0,0.0,0.0,0.0,0.0,0.0,0.0,0.0,0.0,0.0,0.0,0.0,0.0,0.0,0.0,0.0,0.0,0.0,0.0,0.0,0.0,0.0,0.0,0.0,0.0,0.0,0.0,0.0,0.0,0.0,0.0,0.0,0.0,0.0,0.0,0.0,0.0,0.0,0.0,0.0,0.0,0.0,0.0,0.0,0.0,0.0,0.0,0.0,0.0,0.0,0.0,0.0,0.0,0.0,0.0,0.0,0.0,-1.0357,-0.9964,0.0,-0.9713,-0.9338,-0.9225,-0.9676,-1.009,-1.0231,0.0,0.0,0.0,0.0,0.0,0.0,0.0,0.0,0.0,0.0,0.0,0.0,0.0,0.0,0.0,0.0,0.0,0.0,0.0,0.0,0.0,0.0,0.0,0.0,0.0,0.0,0.0,0.0,0.0,0.0,0.0,0.0,0.0,0.0,0.0,0.0,0.0,0.0,0.0,0.0,0.0,0.0,0.0,0.0,0.0,0.0,0.0,0.0,0.0,0.0,0.0,0.0,0.0,0.0,0.0,0.0,0.0,0.0,0.0,0.0,0.0,0.0,0.0,0.0,0.0,0.0,0.0,0.0,0.0,0.0,0.0,0.0,0.0,0.0,0.0,0.0,0.0,0.0,0.0,0.0,0.0,0.0,0.0,0.0,0.0,0.0,0.0,0.0,0.0,0.0,0.0,0.0,0.0,0.0,0.0,0.0,0.0,0.0,0.0,0.0,0.0,0.0,-1.061,-0.9846,-0.9265,0.0,-0.861,-0.8228,-0.8123,-0.8663,-0.9181,-0.9538,0.0,0.0,0.0,0.0,0.0,0.0,0.0,0.0,0.0,0.0,0.0,0.0,0.0,0.0,0.0,0.0,0.0,0.0,0.0,0.0,0.0,0.0,0.0,0.0,0.0,0.0,0.0,0.0,0.0,0.0,0.0,0.0,0.0,0.0,0.0,0.0,0.0,0.0,0.0,0.0,0.0,0.0,0.0,0.0,0.0,0.0,0.0,0.0,0.0,0.0,0.0,0.0,0.0,0.0,0.0,0.0,0.0,0.0,0.0,0.0,0.0,0.0,0.0,0.0,0.0,0.0,0.0,0.0,0.0,0.0,0.0,0.0,0.0,0.0,0.0,0.0,0.0,0.0,0.0,0.0,0.0,0.0,0.0,0.0,0.0,0.0,0.0,0.0,0.0,0.0,0.0,0.0,0.0,0.0,0.0,0.0,0.0,0.0,0.0,0.0,0.0,0.0,-0.9707,-0.9706,-0.938,-0.8374,-0.8272,-0.8272,-0.8272,-0.7858,-0.8199,0.0,0.0,0.0,0.0,0.0,0.0,0.0,0.0,0.0,0.0,0.0,0.0,0.0,0.0,0.0,0.0,0.0,0.0,0.0,0.0,0.0,0.0,0.0,0.0,0.0,0.0,0.0,0.0,0.0,0.0,0.0,0.0,0.0,0.0,0.0,0.0,0.0,0.0,0.0,0.0,0.0,0.0,0.0,0.0,0.0,0.0,0.0,0.0,0.0,0.0,0.0,0.0,0.0,0.0,0.0,0.0,0.0,0.0,0.0,0.0,0.0,0.0,0.0,0.0,0.0,0.0,0.0,0.0,0.0,0.0,0.0,0.0,0.0,0.0,0.0,0.0,0.0,0.0,0.0,0.0,0.0,0.0,0.0,0.0,0.0,0.0,0.0,0.0,0.0,0.0,0.0,0.0,0.0,0.0,0.0,0.0,0.0,0.0,0.0,0.0,0.0,0.0,0.0,-0.9725,-0.9217,-0.8727,-0.8522,-0.8421,-0.8684,-0.9286,-0.8924,-0.9334,-1.0661,0.0,0.0,0.0,0.0,0.0,0.0,0.0,0.0,0.0,0.0,0.0,0.0,0.0,0.0,0.0,0.0,0.0,0.0,0.0,0.0,0.0,0.0,0.0,0.0,0.0,0.0,0.0,0.0,0.0,0.0,0.0,0.0,0.0,0.0,0.0,0.0,0.0,0.0,0.0,0.0,0.0,0.0,0.0,0.0,0.0,0.0,0.0,0.0,0.0,0.0,0.0,0.0,0.0,0.0,0.0,0.0,0.0,0.0,0.0,0.0,0.0,0.0,0.0,0.0,0.0,0.0,0.0,0.0,0.0,0.0,0.0,0.0,0.0,0.0,0.0,0.0,0.0,0.0,0.0,0.0,0.0,0.0,0.0,0.0,0.0,0.0,0.0,0.0,0.0,0.0,0.0,0.0,0.0,0.0,0.0,0.0,0.0,0.0,0.0,0.0,0.0,0.0,-0.9276,-0.8806,-0.8506,-0.8567,-0.8574,-0.872,-0.9286,-0.9426,-0.9737,-1.0502,0.0,0.0,0.0,0.0,0.0,0.0,0.0,0.0,0.0,0.0,0.0,0.0,0.0,0.0,0.0,0.0,0.0,0.0,0.0,0.0,0.0,0.0,0.0,0.0,0.0,0.0,0.0,0.0,0.0,0.0,0.0,0.0,0.0,0.0,0.0,0.0,0.0,0.0,0.0,0.0,0.0,0.0,0.0,0.0,0.0,0.0,0.0,0.0,0.0,0.0,0.0,0.0,0.0,0.0,0.0,0.0,0.0,0.0,0.0,0.0,0.0,0.0,0.0,0.0,0.0,0.0,0.0,0.0,0.0,0.0,0.0,0.0,0.0,0.0,0.0,0.0,0.0,0.0,0.0,0.0,0.0,0.0,0.0,0.0,0.0,0.0,0.0,0.0,0.0,0.0,0.0,0.0,0.0,0.0,0.0,0.0,0.0,0.0,0.0,0.0,0.0,0.0,-0.8607,-0.8528,-0.8547,-0.8713,-0.872,-0.8648,-0.8703,-0.9354,-0.9774,-0.9671,0.0,0.0,0.0,0.0,0.0,0.0,0.0,0.0,0.0,0.0,0.0,0.0,0.0,0.0,0.0,0.0,0.0,0.0,0.0,0.0,0.0,0.0,0.0,0.0,0.0,0.0,0.0,0.0,0.0,0.0,0.0,0.0,0.0,0.0,0.0,0.0,0.0,0.0,0.0,0.0,0.0,0.0,0.0,0.0,0.0,0.0,0.0,0.0,0.0,0.0,0.0,0.0,0.0,0.0,0.0,0.0,0.0,0.0,0.0,0.0,-0.6525,0.0,0.0,0.0,0.0,0.0,0.0,0.0,0.0,0.0,0.0,0.0,0.0,0.0,0.0,0.0,0.0,0.0,0.0,0.0,0.0,0.0,0.0,0.0,0.0,0.0,0.0,0.0,0.0,0.0,0.0,0.0,0.0,0.0,0.0,0.0,0.0,0.0,0.0,0.0,0.0,0.0,-0.8855,-0.8664,-0.8587,-0.8862,-0.8781,-0.8966,-0.9739,-0.954,-0.9686,-1.0041,-0.9634,0.0,0.0,0.0,0.0,0.0,0.0,0.0,0.0,0.0,0.0,0.0,0.0,0.0,0.0,0.0,0.0,0.0,0.0,0.0,0.0,0.0,0.0,0.0,0.0,0.0,0.0,0.0,0.0,0.0,0.0,0.0,0.0,0.0,0.0,0.0,0.0,0.0,0.0,0.0,0.0,0.0,0.0,0.0,0.0,0.0,0.0,0.0,0.0,0.0,0.0,0.0,0.0,0.0,0.0,0.0,0.0,0.0,0.0,0.0,0.0,-0.6972,0.0,0.0,0.0,0.0,0.0,0.0,0.0,0.0,0.0,0.0,0.0,0.0,0.0,0.0,0.0,0.0,0.0,0.0,0.0,0.0,0.0,0.0,0.0,0.0,0.0,0.0,0.0,0.0,0.0,0.0,0.0,0.0,0.0,0.0,0.0,0.0,0.0,0.0,0.0,0.0,-0.8394,-0.8505,-0.8601,-0.8906,-0.8866,-0.8942,-0.9332,-0.956,-0.9694,-0.953,-0.947,0.0,0.0,0.0,0.0,0.0,0.0,0.0,0.0,0.0,0.0,0.0,0.0,0.0,0.0,0.0,0.0,0.0,0.0,0.0,0.0,0.0,0.0,0.0,0.0,0.0,0.0,0.0,0.0,0.0,0.0,0.0,0.0,0.0,0.0,0.0,0.0,0.0,0.0,0.0,0.0,0.0,0.0,0.0,0.0,0.0,0.0,0.0,0.0,0.0,0.0,0.0,0.0,0.0,-0.6797,-0.6836,-0.8112,-0.7624,-0.7392,-0.7459,-0.7427,-0.7341,-0.72,-0.6665,0.0,0.0,0.0,0.0,0.0,0.0,0.0,0.0,0.0,0.0,0.0,0.0,0.0,0.0,0.0,0.0,0.0,0.0,0.0,0.0,0.0,0.0,0.0,0.0,-0.7529,-0.7576,-0.7658,0.0,0.0,0.0,0.0,0.0,0.0,0.0,0.0,0.0,0.0,0.0,-0.7914,-0.8258,-0.8628,-0.891,-0.894,-0.8815,-0.8509,-0.9309,-0.9548,-0.8981,-0.9358,-0.9962,0.0,0.0,0.0,0.0,0.0,0.0,0.0,0.0,0.0,0.0,0.0,0.0,0.0,0.0,0.0,0.0,0.0,0.0,0.0,0.0,0.0,0.0,0.0,0.0,0.0,0.0,0.0,0.0,0.0,0.0,0.0,0.0,-0.2818,-0.5848,0.0,0.0,0.0,0.0,0.0,0.0,0.0,0.0,0.0,0.0,0.0,0.0,0.0,-0.7037,-0.7001,-0.7475,-0.7841,-0.799,-0.4264,-0.4714,-0.8774,-0.8697,-0.8645,-0.8638,-0.8643,0.0,-0.7816,-0.7259,0.0,0.0,0.0,0.0,0.0,0.0,0.0,0.0,0.0,0.0,0.0,0.0,0.0,0.0,0.0,0.0,0.0,0.0,0.0,0.0,0.0,0.0,-0.8102,-0.8143,-0.8153,-0.823,0.0,-0.7509,-0.7027,-0.7066,-0.6774,0.0,0.0,0.0,0.0,0.0,0.0,0.0,-0.815,-0.8486,-0.8747,-0.892,-0.894,-0.8815,-0.8509,-0.8587,-0.8889,-0.934,-0.9303,-0.9917,-1.1454,-1.0853,0.0,0.0,0.0,0.0,0.0,0.0,0.0,0.0,0.0,0.0,0.0,0.0,0.0,0.0,0.0,0.0,0.0,0.0,0.0,0.0,0.0,0.0,0.0,0.0,0.0,0.0,0.0,0.0,0.0,-0.1991,-0.1789,-0.3371,-0.3532,-0.418,0.0,0.0,0.0,0.0,0.0,0.0,0.0,0.0,0.0,-0.3653,-0.6264,-0.778,-0.8122,-0.5754,-0.4521,-0.4488,-0.2661,-0.2896,-0.4927,-0.4955,-0.4964,-0.5068,-0.7687,-0.8727,-0.8428,-0.7882,-0.723,-0.6743,0.0,0.0,0.0,0.0,-0.7447,-0.7639,-0.7621,-0.754,-0.7456,-0.7366,0.0,0.0,0.0,0.0,0.0,0.0,0.0,0.0,0.0,0.0,-0.8313,-0.8479,-0.8452,-0.8414,-0.8499,-0.814,-0.7702,0.0,-0.7261,-0.7179,-0.7083,0.0,0.0,0.0,0.0,-0.7851,-0.8225,-0.8526,-0.8767,-0.8923,-0.894,-0.8815,-0.8509,-0.9104,-0.9445,-0.9514,-0.9988,-1.0782,-1.1983,-1.1515,-1.1461,0.0,0.0,0.0,0.0,0.0,0.0,0.0,0.0,0.0,0.0,0.0,0.0,0.0,0.0,0.0,0.0,0.0,0.0,0.0,0.0,0.0,0.0,0.0,0.0,0.0,0.0,0.0,0.0,-0.2563,-0.241,-0.1503,-0.2177,-0.3622,0.0,0.0,0.0,0.0,0.0,0.0,-0.5654,-0.3028,-0.1517,-0.1682,-0.4714,-0.6658,-0.7052,-0.3577,-0.1816,-0.1759,-0.1755,-0.1766,-0.179,-0.1787,-0.1783,-0.2004,-0.5579,-0.7781,-0.8882,-0.844,-0.7962,-0.7501,-0.7155,-0.7224,-0.7719,-0.8055,-0.824,-0.8269,-0.8231,-0.8193,-0.8123,-0.7967,-0.7931,-0.7777,-0.719,0.0,0.0,0.0,0.0,-0.7838,-0.8136,-0.8296,-0.8448,-0.8706,-0.8682,-0.8628,-0.8743,-0.8679,-0.8445,0.0,-0.7882,-0.7753,-0.7197,0.0,0.0,0.0,0.0,-0.8079,-0.8347,-0.8608,-0.8811,-0.8927,-0.894,-0.8828,-0.8564,-0.9231,-0.9697,-0.9697,-1.0568,-1.1416,-1.2373,-1.2351,-1.2346,-1.253,0.0,0.0,0.0,0.0,0.0,0.0,0.0,0.0,0.0,0.0,0.0,0.0,0.0,0.0,0.0,0.0,0.0,0.0,0.0,0.0,0.0,0.0,0.0,0.0,0.0,0.0,0.0,0.0,0.0,-0.1838,-0.4162,0.0,0.0,0.0,0.0,-0.186,-0.1656,-0.171,-0.1849,-0.1814,-0.1749,-0.1753,-0.2024,-0.217,-0.2177,-0.1879,-0.1785,-0.1793,-0.1792,-0.1793,-0.1795,-0.1794,-0.1789,-0.1781,-0.2004,-0.4681,-0.8937,-0.8821,-0.8806,-0.8758,-0.8792,-0.8421,-0.8035,-0.8599,-0.8871,-0.89,-0.8848,-0.8702,-0.8522,-0.8461,-0.8465,-0.8516,-0.8028,-0.7875,0.0,0.0,-0.8119,-0.8303,-0.8601,-0.8682,-0.8726,-0.8889,-0.892,-0.8916,-0.8927,-0.892,-0.8821,0.0,-0.8333,-0.8235,-0.8197,0.0,-0.8041,-0.8184,-0.8343,-0.8506,-0.8669,-0.8828,-0.893,-0.894,-0.894,-0.8872,-0.8713,-0.867,-0.8931,-0.9774,-1.0681,-1.1643,-1.2614,-1.3437,-1.3525,-1.3097,-1.2294,0.0,0.0,0.0,0.0,0.0,0.0,0.0,0.0,0.0,0.0,0.0,0.0,0.0,0.0,0.0,0.0,0.0,0.0,0.0,0.0,0.0,0.0,0.0,0.0,0.0,0.0,0.0,0.0,-0.1993,-0.2443,0.0,-0.3287,-0.327,-0.2754,-0.1613,-0.1575,-0.1725,-0.1757,-0.18,-0.1832,-0.1854,-0.1765,-0.1777,-0.1778,-0.1788,-0.1793,-0.1795,-0.1795,-0.1795,-0.1795,-0.1795,-0.1793,-0.2014,-0.5041,-0.7299,-0.8654,-0.5617,-0.6112,-0.8928,-0.8867,-0.8751,-0.8615,-0.8789,-0.8945,-0.8928,-0.8872,-0.8855,-0.8703,-0.8706,-0.8574,-0.8501,-0.834,-0.8286,-0.8275,-0.8428,-0.8509,-0.8601,-0.8804,-0.8859,-0.8869,-0.8927,-0.894,-0.894,-0.894,-0.894,-0.8906,-0.8798,-0.8655,-0.8492,-0.8303,-0.8299,-0.8313,-0.8275,-0.8476,-0.8648,-0.8703,-0.8845,-0.894,-0.894,-0.894,-0.8876,-0.8723,-0.9199,-0.9653,-0.979,-1.1288,-1.2339,-1.2727,-1.3622,-1.3912,-1.3387,-1.2747,-1.2035,0.0,0.0,0.0,0.0,0.0,0.0,0.0,0.0,0.0,0.0,0.0,0.0,0.0,0.0,0.0,0.0,0.0,0.0,0.0,0.0,0.0,0.0,0.0,0.0,0.0,0.0,-0.4394,-0.191,-0.1581,-0.1497,-0.1651,-0.1688,-0.1618,-0.1628,-0.1772,-0.1811,-0.1842,-0.1754,-0.1779,-0.1809,-0.181,-0.1815,-0.1825,-0.1825,-0.1825,-0.1825,-0.1825,-0.1825,-0.1825,-0.1825,-0.1825,-0.1937,-0.5132,-0.6509,-0.6277,-0.306,-0.3623,-0.6691,-0.8257,-0.893,-0.889,-0.8954,-0.8856,-0.889,-0.8954,-0.894,-0.892,-0.8821,-0.872,-0.8635,-0.8635,-0.8635,-0.8659,-0.876,-0.8821,-0.8882,-0.8984,-0.9049,-0.9086,-0.9086,-0.9086,-0.9086,-0.9086,-0.9086,-0.9086,-0.9086,-0.8927,-0.8726,-0.853,-0.8574,-0.8604,-0.8509,-0.8662,-0.8788,-0.8788,-0.8876,-0.894,-0.894,-0.894,-0.8899,-0.8798,-0.9231,-0.9473,-0.9362,-1.083,-1.1853,-1.2145,-1.3143,-1.3579,-1.3525,-1.2892,-1.227,-1.1661,0.0,0.0,0.0,0.0,0.0,0.0,0.0,0.0,0.0,0.0,0.0,0.0,0.0,0.0,0.0,0.0,0.0,0.0,0.0,0.0,0.0,0.0,0.0,-0.1433,-0.1513,-0.167,-0.1767,-0.1754,-0.179,-0.1832,-0.1779,-0.1827,-0.186,-0.1752,-0.1765,-0.1796,-0.1797,-0.1811,-0.184,-0.1842,-0.1856,-0.1768,-0.1768,-0.1768,-0.1768,-0.1768,-0.1768,-0.1768,-0.1768,-0.1766,-0.1762,-0.1762,-0.1762,-0.1761,-0.1752,-0.1868,-0.2453,-0.7148,-0.8944,-0.894,-0.8967,-0.8931,-0.8907,-0.8886,-0.8954,-0.8954,-0.8954,-0.8954,-0.8954,-0.8954,-0.8954,-0.8954,-0.8954,-0.9052,-0.9161,-0.9161,-0.9269,-0.9381,-0.9381,-0.9381,-0.9381,-0.9381,-0.9381,-0.9381,-0.9381,-0.915,-0.8954,-0.8954,-0.8954,-0.8954,-0.8954,-0.8954,0.0,-0.8954,-0.8954,-0.895,-0.8947,-0.8947,-0.8944,-0.894,-0.8659,-0.8482,-0.8482,-0.9206,-1.0096,-1.117,-1.1939,-1.2752,-1.3532,-1.2747,-1.221,-1.1944,0.0,0.0,0.0,0.0,0.0,0.0,0.0,0.0,0.0,0.0,0.0,0.0,0.0,0.0,0.0,0.0,0.0,0.0,0.0,0.0,0.0,-0.1635,-0.1629,-0.1532,-0.161,-0.1779,-0.1802,-0.185,-0.1763,-0.1748,-0.1761,-0.1894,-0.1926,-0.1929,-0.1829,-0.1859,-0.1861,-0.1865,-0.1756,-0.1873,-0.1994,-0.2004,-0.2004,-0.2004,-0.2004,-0.2004,-0.2004,-0.2004,-0.2004,-0.2003,-0.2002,-0.2002,-0.2002,-0.2001,-0.1994,-0.4222,-0.7646,-0.8527,-0.9205,-0.9561,-0.9603,-0.9473,-0.931,-0.9273,-0.9259,-0.9259,-0.9259,-0.9259,-0.9259,-0.9259,-0.9259,-0.9259,-0.9259,-0.9286,-0.9317,-0.9317,-0.9351,-0.9381,-0.9381,-0.9381,-0.9381,-0.9381,-0.9381,-0.9381,-0.9381,-0.9317,-0.9259,-0.9259,-0.9259,-0.9259,-0.9259,-0.9259,0.0,-0.9259,-0.9259,-0.9218,-0.9106,-0.9093,-0.9052,-0.8947,-0.8659,-0.8482,-0.8482,-0.9903,-1.0881,-1.117,-1.2866,-1.3779,-1.3803,-1.3206,-1.2765,0.0,0.0,0.0,0.0,0.0,0.0,0.0,0.0,0.0,0.0,0.0,0.0,0.0,0.0,0.0,0.0,0.0,0.0,0.0,0.0,0.0,0.0,-0.1741,-0.1734,-0.1645,-0.1796,-0.1843,-0.1765,-0.1784,-0.18,-0.1812,-0.1814,-0.1827,-0.1973,-0.1976,-0.1984,-0.1885,-0.1886,-0.1892,-0.1904,-0.1904,-0.2031,-0.2044,-0.2044,-0.2044,-0.2044,-0.2044,-0.2044,-0.2044,-0.2044,-0.2044,-0.2044,-0.2044,-0.2044,-0.2043,-0.2035,-0.5029,0.0,0.0,0.0,0.0,0.0,-0.9717,-0.9586,-0.9525,-0.962,-0.9501,-0.9381,-0.9381,-0.9381,-0.9381,-0.9381,-0.9381,-0.9381,-0.9425,-0.9476,-0.9476,-0.952,-0.9564,-0.9564,-0.9564,-0.9564,-0.9564,-0.9564,-0.9564,-0.9564,-0.9564,0.0,-0.9564,-0.9462,-0.9381,-0.9381,-0.9381,-0.9381,-0.9381,-0.9381,-0.9347,-0.9259,-0.9249,-0.9188,-0.9042,-0.8811,0.0,0.0,0.0,-1.0932,-1.1631,-1.3261,0.0,0.0,0.0,0.0,0.0,0.0,0.0,0.0,-1.2583,-1.2661,0.0,0.0,0.0,0.0,0.0,0.0,0.0,0.0,0.0,0.0,0.0,0.0,0.0,0.0,0.0,0.0,-0.1738,-0.1827,-0.175,-0.1755,-0.1765,-0.1792,-0.1798,-0.181,-0.1838,-0.1844,-0.1858,-0.1889,-0.2009,-0.201,-0.2015,0.0,0.0,0.0,0.0,-0.1949,-0.1976,-0.1977,-0.1977,-0.1977,-0.1977,-0.1977,-0.1977,-0.1977,-0.1977,-0.1977,-0.1977,-0.1977,-0.1975,-0.1964,-0.503,-0.9744,-0.9844,-0.9775,-0.9758,-0.9758,-0.9758,-0.9856,-0.9838,0.0,0.0,-0.9549,-0.9432,-0.9432,-0.9432,-0.9432,-0.9432,-0.9432,-0.953,-0.9635,-0.9635,-0.9727,-0.9822,-0.9822,-0.9822,-0.9822,-0.9822,-0.9822,-0.9822,-0.9822,-0.9822,-0.9822,-0.9822,-0.9605,-0.9432,-0.9432,-0.9432,-0.9432,-0.9432,-0.9432,-0.9425,-0.9408,0.0,0.0,-0.9167,-0.9022,-0.8815,-0.8526,-0.9496,-1.0762,-1.2326,-1.3466,-1.4045,-1.4045,-1.4045,-1.4153,-1.4389,-1.4642,-1.463,-1.4358,-1.3151,-1.3057,0.0,0.0,0.0,0.0,0.0,0.0,0.0,0.0,0.0,0.0,0.0,0.0,0.0,0.0,0.0,-0.1728,-0.1801,-0.1751,-0.1782,-0.1787,-0.1789,-0.1794,-0.1817,-0.1834,-0.1955,-0.1863,-0.1889,-0.192,-0.1922,-0.1933,-0.1958,-0.1959,-0.1962,-0.1967,-0.1968,-0.1971,-0.1977,-0.1977,-0.1977,-0.1977,0.0,0.0,-0.1977,-0.1977,-0.1977,-0.1977,-0.1977,-0.1977,-0.1975,-0.1964,-0.5142,-0.9832,-0.9802,-0.9785,-0.9781,-0.9781,-0.9781,-0.9778,-0.9747,-0.9858,-0.9737,-0.9737,-0.9737,-0.9737,-0.9737,-0.9737,0.0,-0.9737,-0.9758,-0.9781,-0.9781,-0.9798,-0.9822,-0.9822,-0.9822,-0.9822,-0.9822,-0.9822,-0.9822,-0.9822,-0.9822,-0.9822,-0.9822,-0.9774,-0.9737,-0.9737,-0.9737,-0.9737,-0.9737,-0.9737,-0.9693,-0.9578,-0.9564,-0.9452,-0.9174,-0.9022,-0.8862,-0.8676,-1.0398,-1.1904,-1.3143,-1.4265,-1.4871,-1.4871,-1.4871,-1.4902,-1.495,-1.501,-1.5004,-1.4938,-1.4473,-1.4334,0.0,0.0,0.0,0.0,0.0,0.0,0.0,0.0,0.0,0.0,0.0,-0.1559,-0.1592,0.0,-0.1756,-0.1805,-0.1756,-0.18,-0.1815,-0.1831,-0.1835,-0.1819,-0.1831,-0.1852,-0.1883,-0.19,-0.1921,-0.1952,-0.1954,-0.196,-0.1976,-0.1977,-0.1977,-0.1977,-0.1977,-0.1977,-0.1977,-0.1977,-0.1977,-0.1977,-0.1977,-0.1977,-0.1977,-0.1977,-0.1977,-0.1977,-0.1977,-0.1977,-0.2223,-0.4797,-0.7487,-0.9822,-0.9822,-0.9822,-0.9822,-0.9822,-0.9822,-0.9822,-0.9822,-0.9822,-0.9822,-0.9822,-0.9822,-0.9822,-0.9822,-0.9822,-0.9822,-0.9822,-0.9822,-0.9822,-0.9822,-0.9822,-0.9822,-0.9822,-0.9822,-0.9822,-0.9822,-0.9822,-0.9822,-0.9822,-0.9822,-0.9822,-0.9822,-0.9822,-0.9822,-0.9822,-0.9822,-0.9822,-0.9822,-0.9822,-0.9795,-0.9724,-0.9717,-0.9625,-0.9401,-0.911,-0.9123,-0.9584,-1.1028,-1.2309,-1.334,-1.4485,-1.5107,-1.5107,-1.5107,-1.5107,-1.5107,-1.524,-1.5306,-1.5306,-1.5451,-1.53,0.0,0.0,0.0,0.0,0.0,0.0,0.0,0.0,-0.1593,-0.1652,-0.1618,-0.1674,-0.1727,-0.1787,-0.184,-0.1762,-0.1813,-0.1849,-0.1849,-0.187,-0.1879,-0.186,-0.1858,-0.1877,-0.1926,-0.1937,-0.195,-0.1975,-0.1977,-0.1977,-0.1977,-0.1977,-0.1977,-0.1977,-0.1977,-0.1977,-0.1977,-0.1977,-0.1977,-0.1977,-0.1977,-0.1977,-0.1977,-0.1977,-0.1977,-0.1977,-0.1977,-0.1975,-0.2466,-0.7649,-0.9741,-0.9822,-0.9822,-0.9822,-0.9822,-0.9822,-0.9822,-0.9822,-0.9822,-0.9822,-0.9822,-0.9822,-0.9822,-0.9822,-0.9822,-0.9822,-0.9822,-0.9822,-0.9822,-0.9822,-0.9822,-0.9822,-0.9822,-0.9822,-0.9822,-0.9822,-0.9822,-0.9822,-0.9822,-0.9822,-0.9822,-0.9822,-0.9822,-0.9822,-0.9822,-0.9822,-0.9822,-0.9822,-0.9822,-0.9822,-0.9822,-0.9822,-0.9822,-0.9764,-0.9622,-0.9249,-0.9353,-1.0235,-1.1151,-1.202,-1.2919,-1.4177,-1.4997,-1.495,-1.5155,-1.5282,-1.5336,-1.5547,-1.568,-1.5741,-1.6181,-1.5982,-0.1036,-0.0847,-0.0763,-0.1166,-0.1438,-0.1547,0.0,0.0,-0.1596,-0.1732,-0.1662,-0.1686,-0.1693,-0.1744,-0.1795,-0.1825,-0.1859,-0.1881,-0.1881,-0.1883,-0.1894,-0.1918,-0.1921,-0.1924,-0.193,-0.1956,-0.1973,-0.1976,-0.1977,-0.1977,-0.1977,-0.1977,-0.1977,-0.1977,-0.1977,-0.1977,-0.1977,-0.1977,-0.1977,-0.1977,-0.1977,-0.1977,-0.1977,-0.1977,-0.1977,-0.1977,-0.1977,-0.1971,-0.2452,-0.7638,-0.9741,-0.9822,-0.9822,-0.9822,-0.9822,-0.9822,-0.9822,-0.9822,-0.9822,-0.9822,-0.9822,-0.9822,-0.9822,-0.9822,-0.9822,-0.9822,-0.9822,-0.9822,-0.9822,-0.9822,-0.9822,-0.9822,-0.9822,-0.9822,-0.9822,-0.9822,-0.9822,-0.9822,-0.9822,-0.9822,-0.9822,-0.9822,-0.9822,-0.9822,-0.9822,-0.9822,-0.9822,-0.9822,-0.9822,-0.9822,-0.9822,-0.9822,-0.9822,-0.9764,-0.9622,-0.9439,-0.9446,-0.9561,-1.0551,-1.1134,-1.1193,-1.3282,-1.4402,-1.4308,-1.5264,-1.5916,-1.6151,-1.6181,-1.632,-1.6567,-1.6628,-1.635,-0.1285,-0.0921,0.0,0.0,-0.0872,-0.1287,-0.1545,-0.1652,-0.1656,-0.1703,-0.1722,-0.1742,-0.1777,-0.1804,-0.1832,0.0,-0.1892,-0.1912,-0.1912,-0.1927,-0.1943,-0.1956,-0.1958,-0.1958,-0.1958,-0.1969,-0.1977,-0.1977,-0.1977,-0.1977,-0.1977,-0.1977,-0.1977,-0.1977,-0.1977,-0.1977,-0.1977,-0.1977,-0.1977,-0.1977,-0.1977,-0.1977,-0.1977,-0.1993,-0.2011,-0.2026,-0.2009,-0.1996,-0.2361,-0.7667,-0.9747,-0.9839,-0.9825,-0.9822,-0.9822,-0.9822,-0.9822,-0.9822,-0.9822,-0.9822,-0.9822,-0.9822,-0.9822,-0.9822,-0.9822,-0.9822,-0.9822,-0.9822,-0.9822,-0.9822,-0.9822,-0.9822,-0.9822,-0.9822,-0.9822,-0.9822,-0.9822,-0.9822,-0.9822,-0.9822,-0.9822,-0.9822,-0.9822,-0.9822,-0.9822,-0.9822,-0.9822,-0.9822,-0.9822,-0.9822,-0.9822,-0.9822,-0.9822,-0.9795,-0.9737,-0.9598,-0.9513,-0.9513,-1.0469,-1.1069,-1.0992,-1.2678,-1.3882,-1.4579,-1.5022,-1.5632,-1.6525,-1.6525,-1.6585,-1.6706,-1.6857,-1.6724,-0.1425,0.0,0.0,-0.0199,-0.0307,-0.0838,-0.1579,-0.1693,-0.1711,-0.1753,-0.1762,-0.1778,-0.183,-0.1847,-0.1863,-0.1894,-0.1924,-0.1944,-0.1944,-0.1962,-0.1977,-0.1977,-0.1977,-0.1977,-0.1977,-0.1977,-0.1979,-0.1988,-0.1988,-0.1992,-0.2001,-0.2001,-0.2001,-0.2001,-0.2001,-0.2001,-0.2001,-0.2001,-0.2001,-0.2001,-0.2001,-0.2001,-0.2001,-0.2148,-0.2043,-0.2063,-0.204,-0.2029,-0.2275,-0.6131,-0.8605,-1.0105,-1.0084,-0.9947,-0.9821,-0.9947,-0.9893,-0.9822,-0.9822,-0.9822,-0.9822,-0.9822,-0.9822,-0.9822,-0.9822,-0.9822,-0.9822,-0.9822,-0.9822,-0.9822,-0.9822,-0.9822,-0.9822,-0.9822,-0.9822,-0.9822,-0.9822,-0.9822,-0.9822,-0.9822,-0.9822,-0.9822,-0.9822,-0.9822,-0.9822,-0.9822,-0.9822,-0.9822,-0.9822,-0.9822,-0.9822,-0.9822,-0.9822,-0.9822,-0.9822,-0.9727,-0.9666,-0.9666,-1.0384,-1.0763,-1.0717,-1.1859,-1.3093,-1.4303,-1.4648,-1.5479,-1.6809,-1.6809,-1.6845,-1.6923,-1.7111,-1.7098,0.0,0.0,-0.1161,-0.0205,-0.0,-0.0321,-0.1523,-0.177,-0.1791,-0.1793,-0.1793,-0.1803,-0.1834,-0.1864,-0.1894,-0.1925,-0.1955,-0.1975,-0.1975,-0.1976,-0.1977,-0.1977,-0.1977,-0.1977,0.0,-0.1977,-0.1988,-0.2015,-0.2017,-0.203,-0.206,-0.2061,-0.2061,-0.2061,-0.2061,-0.2061,-0.2061,-0.2061,-0.2061,-0.2061,-0.2061,-0.2061,-0.219,-0.2191,-0.2191,-0.2193,-0.2191,-0.206,-0.2055,-0.2178,-0.5509,-1.0693,-1.0668,-1.0266,-0.9872,-1.0136,-1.0076,-0.9822,-0.9822,-0.9822,-0.9822,-0.9822,-0.9822,-0.9822,-0.9822,-0.9822,-0.9822,-0.9822,-0.9822,-0.9822,-0.9822,-0.9822,-0.9822,-0.9822,-0.9822,-0.9822,-0.9822,-0.9822,-0.9822,-0.9822,-0.9822,-0.9822,-0.9822,-0.9822,-0.9822,-0.9822,-0.9822,-0.9822,-0.9822,-0.9822,-0.9822,-0.9822,-0.9822,-0.9822,-0.9822,-0.9819,-0.9815,-0.9815,-0.9808,-0.9744,-0.9608,-1.0764,-1.1845,-1.3041,-1.4184,-1.5563,-1.708,-1.708,-1.7207,-1.7461,-1.7467,-1.7467,0.0,0.0,-0.114,-0.0214,0.0,-0.011,-0.0555,-0.1229,-0.1795,-0.1795,-0.1795,-0.1804,-0.1835,-0.1865,-0.1896,-0.1926,-0.1956,-0.1977,-0.1977,-0.1977,-0.1977,-0.1977,-0.1977,0.0,0.0,0.0,0.0,-0.2016,-0.2018,-0.2032,-0.2062,-0.2064,-0.2064,-0.2064,-0.2064,-0.2064,-0.2064,-0.1548,-0.129,-0.129,-0.1548,-0.1815,-0.2094,-0.2094,-0.2105,-0.2255,-0.2234,-0.2224,-0.209,-0.2194,-0.5527,-1.0732,-1.0707,-1.0558,-1.041,-1.041,-1.0342,-1.0114,-0.9881,-0.9911,-1.009,-0.9886,-0.989,-0.9951,-0.9852,-0.9822,-0.9822,-0.9822,-0.9822,-0.9822,-0.9822,-0.9822,-0.9822,-0.9822,-0.9822,-0.9822,-0.9822,-0.9822,-0.9822,-0.9822,-0.9822,-0.9822,-0.9822,-0.9822,-0.9822,-0.9822,-0.9822,-0.9822,-0.9822,-0.9822,-0.9822,-0.9822,-0.9822,-0.9822,-0.9822,-0.9822,-0.9822,-0.9822,-0.9822,-0.9798,-0.9751,-1.0105,-1.0913,-1.2158,-1.3457,-1.479,-1.6166,-1.699,-1.74,-1.7485,-1.7485,-1.7485,-0.1558,-0.1269,-0.0752,-0.0111,0.0,0.0,0.0,-0.0563,-0.1234,-0.1458,-0.1674,-0.1791,-0.1833,-0.1838,-0.1858,-0.1921,-0.1939,-0.1952,-0.1973,-0.1977,-0.1977,-0.1977,-0.1986,-0.1992,0.0,0.0,0.0,-0.2033,-0.2045,-0.2064,-0.2095,-0.2096,-0.2096,-0.2096,-0.1834,-0.1834,-0.2096,-0.1703,-0.1179,-0.0655,-0.131,-0.1843,-0.2125,-0.1993,-0.2003,-0.2154,-0.2134,-0.2258,-0.2257,-0.2884,-0.5745,-0.9704,-1.047,-1.0718,-1.0701,-1.0568,-1.0568,-1.0409,-1.0076,-1.0069,-1.0249,-1.0049,-1.0053,-1.0103,-0.9951,-0.99,-0.989,-0.9836,-0.9822,-0.9822,-0.9822,-0.9822,-0.9822,-0.9822,-0.9822,-0.9822,-0.9822,-0.9822,-0.9822,-0.9822,-0.9822,-0.9822,-0.9822,-0.9822,-0.9822,-0.9822,-0.9822,-0.9822,-0.9822,-0.9822,-0.9822,-0.9822,-0.9822,-0.9822,-0.9822,-0.9822,-0.9822,-0.9822,-0.9822,-0.9822,-0.9822,-0.9822,-1.0425,-1.1631,-1.3066,-1.4381,-1.5575,-1.6885,-1.7485,-1.7485,-1.7485,-1.7485,-0.1378,-0.0643,0.0,0.0,0.0,0.0,0.0,0.0,-0.0112,-0.0784,-0.1327,-0.1656,0.0,0.0,-0.1792,-0.1908,-0.1907,-0.1911,-0.1971,-0.1979,-0.1979,0.0,0.0,0.0,0.0,0.0,0.0,-0.1937,0.0,-0.2123,-0.2153,-0.2155,-0.2155,-0.2155,-0.1481,-0.1481,-0.202,-0.202,-0.1346,-0.0,-0.1481,-0.2155,-0.2155,-0.1616,-0.175,-0.2155,-0.2155,-0.2155,-0.2289,-0.4155,-0.6028,-0.8053,-0.9918,-1.0588,-1.0721,-1.0721,-1.0721,-1.068,-1.0399,-1.0304,-1.03,-1.0287,-1.0287,-1.0263,-1.0107,-1.0063,-1.0029,-0.9886,-0.9839,-0.9832,-0.9832,-0.9825,-0.9822,-0.9822,-0.9822,-0.9822,-0.9822,-0.9822,-0.9822,-0.9822,-0.9822,-0.9822,-0.9822,-0.9822,-0.9822,-0.9822,-0.9822,-0.9822,-0.9822,-0.9822,-0.9822,-0.9822,-0.9822,-0.9822,-0.9822,-0.9822,-0.9822,-0.9822,-0.9822,-0.9822,-0.9822,-0.9822,-1.0425,-1.1631,-1.2946,-1.4262,-1.5451,-1.6885,-1.7485,-1.7485,-1.7485,-1.7485,-0.0551,-0.0226,0.0,0.0,0.0,0.0,0.0,0.0,-0.0,-0.0221,-0.0658,-0.1201,0.0,0.0,0.0,-0.1858,-0.1914,0.0,-0.2003,-0.1632,0.0,-0.1274,0.0,-0.1412,-0.1927,-0.1821,0.0,0.0,-0.1315,-0.1326,-0.1345,-0.1885,-0.2155,-0.2155,-0.202,-0.1481,-0.0538,-0.0538,-0.0404,-0.0,-0.0404,-0.1077,-0.2155,-0.1616,-0.175,-0.2155,-0.2155,-0.2155,-0.2289,-0.3896,-0.5367,-0.6969,-0.8573,-0.9779,-1.0721,-1.0721,-1.0721,-1.0711,-1.0633,-1.0609,-1.0571,-1.0351,-1.0351,-1.0412,-1.0266,-1.0222,-1.0212,-1.0175,-1.008,-0.9992,-0.9992,-0.9907,-0.9822,-0.9822,-0.9822,-0.9822,-0.9822,-0.9822,-0.9822,-0.9822,-0.9822,-0.9822,-0.9822,-0.9822,-0.9822,-0.9822,-0.9822,-0.9822,-0.9822,-0.9822,-0.9822,-0.9822,-0.9822,-0.9822,-0.9822,-0.9822,-0.9822,-0.9822,-0.9822,-0.9822,-0.9822,-0.9822,-0.994,-1.0304,-1.2586,-1.3904,-1.4143,-1.6408,-1.7485,-1.7485,-1.7485,-1.7485,-0.0114,0.0,0.0,0.0,0.0,-0.0116,-0.0576,-0.0682,-0.0671,-0.0435,-0.0753,0.0,-0.1598,-0.1736,0.0,0.0,0.0,0.0,-0.2012,-0.1652,-0.1279,0.0,-0.0519,0.0,-0.1955,-0.198,-0.1597,0.0,-0.0532,-0.0534,-0.0673,-0.1616,-0.2155,-0.2155,-0.1616,-0.0808,-0.0,0.0,0.0,0.0,0.0,-0.0404,-0.1212,-0.1212,-0.1616,-0.2155,0.0,-0.2155,-0.2289,-0.3765,-0.5101,-0.6566,-0.8038,-0.951,-1.0721,-1.0721,-1.0721,-1.0721,-1.0721,-1.0721,-1.0694,-1.0527,-1.0527,-1.0565,-1.0419,-1.0375,-1.0361,-1.0297,-1.0219,-1.0151,-1.0151,-1.0086,-1.0022,-1.0022,-1.0022,-1.0022,-1.0022,-1.0022,-1.0022,-1.0022,-1.0022,-1.0022,-1.0022,-1.0022,-0.9998,-0.993,-0.992,-0.9897,-0.9829,-0.9822,-0.9822,-0.9822,-0.9822,-0.9822,-0.9822,-0.9822,-0.9822,-0.9822,-0.9822,-0.9822,-0.9822,-0.9822,-0.9822,-0.9822,-1.2346,-1.3665,-1.3665,-1.629,-1.7485,-1.7485,-1.7485,-1.7485,0.0,0.0,0.0,0.0,0.0,-0.0231,-0.1381,-0.157,-0.1415,-0.0958,0.0,-0.1662,-0.1683,-0.1676,-0.1705,-0.1816,0.0,-0.1679,-0.1888,-0.1794,-0.1294,-0.013,0.0,-0.0396,-0.1586,-0.1738,-0.1212,-0.0135,0.0,0.0,0.0,-0.1212,-0.1885,-0.1885,-0.0673,0.0,0.0,0.0,0.0,0.0,0.0,0.0,-0.0,-0.0673,-0.1346,-0.1885,-0.202,-0.2155,-0.2289,-0.3496,-0.4966,-0.6566,-0.8038,-0.951,-1.0721,-1.0721,-1.0721,-1.0721,-1.0721,-1.0721,-1.0721,-1.0721,-1.0721,-1.0697,-1.0561,-1.0521,-1.0497,-1.0375,-1.0324,-1.031,-1.031,-1.0293,-1.028,-1.028,-1.028,-1.028,-1.028,-1.028,-1.028,-1.028,-1.028,-1.028,-1.028,-1.028,-1.0236,-1.01,-1.008,-1.0025,-0.9869,-0.9832,-0.9822,-0.9822,-0.9822,-0.9822,-0.9822,-0.9822,-0.9822,-0.9822,-0.9822,-0.9822,-0.9822,-0.9822,-0.9822,-0.9822,-1.2225,-1.3545,-1.3665,-1.6048,-1.7361,-1.7485,-1.7485,-1.7485,0.0,0.0,0.0,0.0,0.0,-0.0238,-0.1389,-0.1458,0.0,0.0,-0.1527,-0.1619,-0.1598,-0.1651,-0.172,-0.1791,-0.1387,-0.1203,-0.1147,0.0,-0.0261,0.0,0.0,0.0,0.0,0.0,0.0,0.0,0.0,0.0,0.0,-0.0269,-0.0404,-0.0404,-0.0135,0.0,0.0,0.0,0.0,0.0,0.0,0.0,-0.0,-0.0135,-0.0269,-0.0404,-0.1077,0.0,-0.2155,-0.2418,-0.4024,-0.6566,-0.8038,-0.951,-1.0721,-1.0721,-1.0721,-1.0721,-1.0721,-1.0721,-1.0721,-1.0721,-1.0721,-1.0714,-1.0687,-1.068,-1.0677,-1.0653,-1.0555,-1.0456,-1.0456,-1.0368,-1.028,-1.028,-1.028,-1.028,-1.028,-1.028,-1.028,-1.028,-1.028,-1.028,-1.028,-1.028,-1.0273,-1.0246,-1.0239,-1.0185,-1.0029,-0.99,-0.9822,-0.9822,-0.9822,-0.9822,-0.9822,-0.9822,-0.9822,-0.9822,-0.9822,-0.9822,-0.9822,-0.9822,-0.9822,-0.9822,-1.1269,-1.259,-1.3665,-1.5213,-1.6526,-1.7485,-1.7485,-1.7485,0.0,0.0,0.0,0.0,0.0,-0.0236,-0.1029,0.0,0.0,0.0,-0.1593,-0.1589,-0.1575,-0.1633,0.0,-0.1742,-0.1575,-0.1293,-0.0625,-0.0254,0.0,0.0,0.0,0.0,0.0,0.0,0.0,0.0,0.0,0.0,0.0,0.0,0.0,0.0,0.0,0.0,0.0,0.0,0.0,0.0,0.0,0.0,0.0,0.0,0.0,-0.0,-0.0404,-0.0673,-0.1077,-0.1883,-0.2955,-0.4424,-0.6564,-0.8304,-0.9646,-1.0452,-1.0721,-1.0721,-1.0721,-1.0721,-1.0721,-1.0721,-1.0721,-1.0721,-1.0721,-1.0721,-1.0721,-1.0721,-1.0666,-1.0612,-1.0612,-1.0561,-1.051,-1.051,-1.051,-1.051,-1.051,-1.051,-1.051,-1.051,-1.051,-1.051,-1.051,-1.051,-1.0483,-1.0402,-1.0388,-1.0337,-1.0188,-1.0103,-0.9998,-0.9839,-0.9822,-0.9822,-0.9822,-0.9822,-0.9822,-0.9822,-0.9822,-0.9822,-0.9822,-0.9897,-0.9941,-0.9941,-1.1244,-1.264,-1.3991,-1.5328,-1.6557,-1.7907,-1.7907,-1.7907,0.0,0.0,0.0,0.0,0.0,-0.0117,-0.0678,-0.1183,0.0,0.0,-0.1566,-0.1564,-0.157,0.0,-0.1561,0.0,-0.1757,-0.1493,-0.0367,-0.0126,0.0,0.0,0.0,0.0,0.0,0.0,0.0,0.0,0.0,0.0,0.0,0.0,0.0,0.0,0.0,0.0,0.0,0.0,0.0,0.0,0.0,0.0,0.0,0.0,0.0,0.0,0.0,0.0,-0.0135,-0.1212,-0.1882,-0.2415,-0.5093,-0.6967,-0.8307,-0.9779,-1.0316,-1.0316,-1.0316,-1.0452,-1.0721,-1.0721,-1.0721,-1.0721,-1.0721,-1.0721,-1.0721,-1.0721,-1.0721,-1.0721,-1.0721,-1.0721,-1.0721,-1.0721,-1.0721,-1.0721,-1.0721,-1.0721,-1.0721,-1.0721,-1.0721,-1.0721,-1.0721,-1.0721,-1.068,-1.0558,-1.0541,-1.0487,-1.0344,-1.0327,-1.0222,-0.9947,-0.992,-0.992,-0.992,-0.992,-0.992,-0.992,-0.992,-0.992,-0.992,-1.0036,-1.01,-1.01,-1.1214,-1.2406,-1.3913,-1.5157,-1.6533,-1.7913,-1.8165,-1.8294,0.0,0.0,0.0,0.0,0.0,-0.0117,-0.0678,0.0,0.0,-0.1579,-0.1549,-0.1538,-0.1566,-0.1598,0.0,0.0,0.0,0.0,-0.0979,-0.0384,0.0,0.0,0.0,0.0,0.0,0.0,0.0,0.0,0.0,0.0,0.0,0.0,0.0,0.0,0.0,0.0,0.0,0.0,0.0,0.0,0.0,0.0,0.0,0.0,0.0,0.0,0.0,0.0,0.0,-0.0135,-0.0941,-0.2416,-0.4424,-0.5763,-0.6833,-0.8304,-0.8839,-0.8839,-0.8839,-0.9646,-1.0721,-1.0721,-1.0721,-1.0721,-1.0721,-1.0721,-1.0721,-1.0721,-1.0721,-1.0721,-1.0721,-1.0721,-1.0721,-1.0721,-1.0721,-1.0721,-1.0721,-1.0721,-1.0721,-1.0721,-1.0721,-1.0721,-1.0721,-1.0721,-1.0714,-1.07,-1.07,-1.0643,-1.049,-1.0473,-1.0412,-1.0256,-1.0239,-1.0239,-1.0239,-1.0239,-1.0239,-1.0239,-1.0239,-1.0239,-1.0239,-1.0253,-1.0259,-1.0259,-1.04,-1.1158,-1.2406,-1.3783,-1.5162,-1.6409,-1.7661,-1.8294,0.0,0.0,0.0,0.0,0.0,-0.0117,-0.0678,0.0,-0.1529,-0.1581,-0.1562,-0.1557,-0.1569,-0.1596,-0.1624,0.0,0.0,0.0,-0.1483,-0.0951,-0.0499,-0.0,0.0,0.0,0.0,0.0,0.0,0.0,0.0,0.0,0.0,0.0,0.0,0.0,0.0,0.0,0.0,0.0,0.0,0.0,0.0,0.0,0.0,0.0,0.0,0.0,0.0,0.0,0.0,0.0,-0.0673,-0.1614,-0.2819,-0.4025,-0.5367,-0.67,-0.7234,-0.7369,-0.8304,-0.8975,-0.9513,-1.0452,-1.0721,-1.0721,-1.0721,-1.0721,-1.0721,-1.0721,-1.0721,-1.0721,-1.0721,-1.0721,-1.0721,-1.0721,-1.0721,-1.0721,-1.0721,-1.0721,-1.0721,-1.0721,-1.0721,-1.0721,-1.0721,-1.0721,-1.0721,-1.0721,-1.0721,-1.0697,-1.0636,-1.0629,-1.0609,-1.0551,-1.0385,-1.028,-1.028,-1.028,-1.028,-1.028,-1.028,-1.028,-1.028,-1.0365,-1.0409,-1.0409,-1.0497,-1.1189,-1.2605,-1.4019,-1.5297,-1.67,-1.8116,-1.8764,0.0,0.0,0.0,0.0,0.0,-0.0116,0.0,-0.1182,-0.1637,-0.1594,-0.1578,-0.1575,-0.1583,-0.1603,-0.1617,0.0,0.0,-0.1674,-0.1654,-0.1492,-0.1089,-0.0653,0.0,0.0,0.0,0.0,0.0,0.0,0.0,0.0,0.0,0.0,0.0,0.0,0.0,0.0,0.0,0.0,0.0,0.0,0.0,0.0,0.0,0.0,0.0,0.0,0.0,0.0,0.0,0.0,-0.0404,-0.1211,-0.1881,-0.282,-0.3899,-0.5233,-0.5767,-0.6034,-0.7503,-0.8171,-0.8842,-1.0183,-1.0721,-1.0721,-1.0721,-1.0721,-1.0721,-1.0721,-1.0721,-1.0721,-1.0721,-1.0721,-1.0721,-1.0721,-1.0721,-1.0721,-1.0721,-1.0721,-1.0721,-1.0721,-1.0721,-1.0721,-1.0721,-1.0721,-1.0721,-1.0721,-1.0721,-1.0721,-1.0721,-1.0721,-1.0721,-1.0721,-1.0534,-1.0412,-1.0412,-1.0412,-1.0412,-1.0412,-1.0412,-1.0412,-1.0412,-1.0507,-1.0558,-1.0558,-1.0666,-1.1244,-1.2161,-1.3993,-1.5424,-1.6462,-1.8291,-1.9078,0.0,0.0,0.0,0.0,0.0,-0.0114,0.0,-0.117,-0.1617,-0.1616,-0.1592,-0.1581,-0.1611,-0.1616,-0.1617,-0.1617,0.0,0.0,-0.1713,-0.1798,-0.1883,0.0,0.0,0.0,0.0,0.0,0.0,0.0,0.0,0.0,0.0,0.0,0.0,0.0,0.0,0.0,0.0,0.0,0.0,0.0,0.0,0.0,0.0,0.0,0.0,0.0,0.0,0.0,0.0,0.0,-0.0404,-0.1211,-0.1881,-0.2151,-0.2423,-0.3764,-0.4301,-0.4568,-0.59,-0.7369,-0.8842,-1.0183,-1.0721,-1.0721,-1.0721,-1.0721,-1.0721,-1.0721,-1.0721,-1.0721,-1.0721,-1.0721,-1.0721,-1.0721,-1.0721,-1.0721,-1.0721,-1.0721,-1.0721,-1.0721,-1.0721,-1.0721,-1.0721,-1.0721,-1.0721,-1.0721,-1.0721,-1.0721,-1.0721,-1.0721,-1.0721,-1.0721,-1.0717,-1.0714,-1.0714,-1.0714,-1.0714,-1.0714,-1.0714,-1.0714,-1.0714,-1.0717,-1.0717,-1.0717,-1.0721,-1.0721,-1.0721,-1.3473,-1.4907,-1.5038,-1.777,-1.9078,0.0,0.0,0.0,0.0,-0.0567,-0.0997,-0.0871,-0.1267,-0.1642,-0.1621,-0.1609,-0.1605,-0.1615,-0.1617,-0.1637,-0.1697,-0.1723,0.0,0.0,0.0,0.0,-0.1811,-0.0823,0.0,0.0,0.0,0.0,0.0,0.0,0.0,0.0,0.0,0.0,0.0,0.0,0.0,0.0,0.0,0.0,0.0,0.0,0.0,0.0,0.0,0.0,0.0,0.0,0.0,0.0,0.0,-0.0404,-0.1212,-0.1884,-0.2153,-0.2289,-0.2692,-0.2826,-0.3094,-0.4433,-0.5902,-0.7367,-0.8839,-0.9915,-1.0721,-1.0721,-1.0721,-1.0721,-1.0721,-1.0721,-1.0721,-1.0721,-1.0721,-1.0721,-1.0721,-1.0721,-1.0721,-1.0721,-1.0721,-1.0721,-1.0721,-1.0721,-1.0721,-1.0721,-1.0721,-1.0721,-1.0721,-1.0721,-1.0721,-1.0721,-1.0721,-1.0721,-1.0721,-1.0721,-1.0721,-1.0721,-1.0721,-1.0721,-1.0721,-1.0721,-1.0721,-1.0721,-1.0721,-1.0721,-1.0721,-1.0721,-1.0721,-1.0721,-1.3473,-1.5949,-1.777,-1.8682,-1.9078,0.0,0.0,-0.0114,-0.045,-0.1103,-0.1514,-0.1177,-0.1361,-0.164,-0.1621,-0.1617,-0.1617,-0.1617,-0.1617,-0.1635,-0.169,-0.1709,0.0,0.0,0.0,0.0,-0.1826,0.0,0.0,0.0,0.0,0.0,0.0,0.0,0.0,0.0,0.0,0.0,0.0,0.0,0.0,0.0,0.0,0.0,0.0,0.0,0.0,0.0,0.0,0.0,0.0,0.0,0.0,0.0,0.0,-0.0269,-0.0808,-0.175,-0.2155,-0.2155,-0.2155,-0.2155,-0.2423,-0.3764,-0.5233,-0.67,-0.8171,-0.9513,-1.0721,-1.0721,-1.0721,-1.0721,-1.0721,-1.0721,-1.0721,-1.0721,-1.0721,-1.0721,-1.0721,-1.0721,-1.0721,-1.0721,-1.0721,-1.0721,-1.0721,-1.0721,-1.0721,-1.0721,-1.0721,-1.0721,-1.0721,-1.0721,-1.0721,-1.0721,-1.0721,-1.0721,-1.0721,-1.0721,-1.0721,-1.0721,-1.0721,-1.0721,-1.0721,-1.0721,-1.0721,-1.0721,-1.0721,-1.0721,-1.0721,-1.0721,-1.0721,-1.0721,-1.3473,-1.6338,-1.9078,-1.9078,-1.9078,0.0,0.0,-0.0223,-0.1336,-0.1633,-0.1595,-0.1595,-0.1554,0.0,-0.1617,-0.1617,-0.1618,-0.162,-0.1618,-0.162,-0.1628,-0.1655,0.0,0.0,-0.1785,0.0,0.0,-0.0692,0.0,0.0,0.0,0.0,0.0,0.0,0.0,0.0,0.0,0.0,0.0,0.0,0.0,0.0,0.0,0.0,0.0,0.0,0.0,0.0,0.0,0.0,0.0,0.0,0.0,0.0,0.0,0.0,-0.0135,-0.1616,-0.2155,-0.2155,-0.2155,-0.2155,-0.2423,-0.3631,-0.5101,-0.6566,-0.8038,-0.9513,-1.0721,-1.0721,-1.0721,-1.0721,-1.0721,-1.0721,-1.0721,-1.0721,-1.0721,-1.0721,-1.0721,-1.0721,-1.0721,-1.0721,-1.0721,-1.0721,-1.0721,-1.0721,-1.0721,-1.0721,-1.0721,-1.0721,-1.0721,-1.0721,-1.0721,-1.0721,-1.0721,-1.0721,-1.0721,-1.0721,-1.0721,-1.0721,-1.0721,-1.0721,-1.0721,-1.0721,-1.0721,-1.0721,-1.0721,-1.0721,-1.0721,-1.0721,-1.0853,-1.0982,-1.36,-1.6338,-1.9078,-1.9078,-1.9072,0.0,0.0,-0.0207,-0.1348,-0.1648,-0.1638,0.0,-0.1627,-0.1617,0.0,0.0,0.0,0.0,-0.1633,-0.1647,-0.1738,-0.1778,-0.1825,-0.1899,0.0,0.0,-0.0561,-0.0143,0.0,0.0,0.0,0.0,0.0,0.0,0.0,0.0,0.0,0.0,0.0,0.0,0.0,0.0,0.0,0.0,0.0,0.0,0.0,0.0,0.0,0.0,0.0,0.0,0.0,0.0,0.0,0.0,-0.0135,-0.0942,-0.175,-0.2155,-0.2155,-0.2155,-0.2289,-0.2558,-0.363,-0.5235,-0.7772,-0.9513,-1.0721,-1.0721,-1.0721,-1.0721,-1.0721,-1.0721,-1.0721,-1.0721,-1.0721,-1.0721,-1.0721,-1.0721,-1.0721,-1.0721,-1.0721,-1.0721,-1.0721,-1.0721,-1.0721,-1.0721,-1.0721,-1.0721,-1.0721,-1.0721,-1.0721,-1.0721,-1.0721,-1.0721,-1.0721,-1.0721,-1.0721,-1.0721,-1.0721,-1.0721,-1.0721,-1.0721,-1.0721,-1.0721,-1.0721,-1.0721,-1.0721,-1.0721,-1.1769,-1.3862,-1.4516,-1.6338,-1.9078,-1.9078,-1.92,0.0,0.0,-0.0199,-0.0997,-0.1405,-0.1617,-0.1617,0.0,0.0,0.0,0.0,0.0,0.0,0.0,0.0,0.0,-0.1679,0.0,0.0,0.0,0.0,-0.0144,0.0,0.0,0.0,0.0,0.0,0.0,0.0,0.0,0.0,0.0,0.0,0.0,0.0,0.0,0.0,0.0,0.0,0.0,0.0,0.0,0.0,0.0,0.0,0.0,0.0,0.0,0.0,0.0,0.0,-0.0135,-0.0808,-0.1616,-0.2155,-0.2155,-0.2155,-0.2155,-0.2155,-0.3496,-0.5635,-0.7905,-0.9513,-1.0721,-1.0721,-1.0721,-1.0721,-1.0721,-1.0721,-1.0721,-1.0721,-1.0721,-1.0721,-1.0721,-1.0721,-1.0721,-1.0721,-1.0721,-1.0721,-1.0721,-1.0721,-1.0721,-1.0721,-1.0721,-1.0721,-1.0721,-1.0721,-1.0721,-1.0721,-1.0721,-1.0721,-1.0721,-1.0721,-1.0721,-1.0721,-1.0721,-1.0721,-1.0721,-1.0721,-1.0721,-1.0721,-1.0721,-1.0721,-1.0721,-1.0721,-1.1769,-1.3993,-1.4516,-1.6078,-1.8156,-1.881,-1.9328,0.0,0.0,-0.0098,-0.0589,-0.1096,-0.1617,-0.1617,0.0,0.0,0.0,0.0,0.0,0.0,0.0,0.0,0.0,0.0,0.0,0.0,-0.1095,-0.0283,-0.0,0.0,0.0,0.0,0.0,0.0,0.0,0.0,0.0,0.0,0.0,0.0,0.0,0.0,0.0,0.0,0.0,0.0,0.0,0.0,0.0,0.0,0.0,0.0,0.0,0.0,0.0,0.0,0.0,-0.0135,-0.0404,-0.0942,-0.1616,-0.2155,-0.2155,-0.2155,-0.2155,-0.2155,-0.403,-0.6566,-0.7905,-0.9377,-1.0721,-1.0721,-1.0721,-1.0721,-1.0721,-1.0721,-1.0721,-1.0721,-1.0721,-1.0721,-1.0721,-1.0721,-1.0721,-1.0721,-1.0721,-1.0721,-1.0721,-1.0721,-1.0721,-1.0721,-1.0721,-1.0721,-1.0721,-1.0721,-1.0721,-1.0721,-1.0721,-1.0721,-1.0721,-1.0721,-1.0721,-1.0721,-1.0721,-1.0721,-1.0721,-1.0721,-1.0721,-1.0721,-1.0721,-1.0721,-1.0721,-1.0721,-1.1376,-1.2816,-1.4254,-1.5684,-1.698,-1.8547,-1.9328,0.0,0.0,-0.0,-0.0098,-0.0897,-0.1617,0.0,0.0,0.0,0.0,0.0,0.0,0.0,0.0,0.0,0.0,0.0,0.0,0.0,0.0,-0.1399,-0.0145,0.0,0.0,0.0,0.0,0.0,0.0,0.0,0.0,0.0,0.0,0.0,0.0,0.0,0.0,0.0,0.0,0.0,0.0,0.0,0.0,0.0,0.0,0.0,0.0,0.0,0.0,0.0,0.0,-0.0673,-0.175,-0.1346,-0.1616,-0.2155,-0.2155,-0.2155,-0.2155,-0.2155,-0.403,-0.6433,-0.67,-0.8573,-1.0721,-1.0721,-1.0721,-1.0721,-1.0721,-1.0721,-1.0721,-1.0721,-1.0721,-1.0721,-1.0721,-1.0721,-1.0721,-1.0721,-1.0721,-1.0721,-1.0721,-1.0721,-1.0721,-1.0721,-1.0721,-1.0721,-1.0721,-1.0721,-1.0721,-1.0721,-1.0721,-1.0721,-1.0721,-1.0721,-1.0721,-1.0721,-1.0721,-1.0721,-1.0721,-1.0721,-1.0721,-1.0721,-1.0721,-1.0721,-1.0721,-1.0721,-1.1376,-1.2816,-1.4254,-1.5684,-1.698,-1.8798,-1.9711,0.0,0.0,0.0,0.0,-0.0405,0.0,0.0,0.0,0.0,0.0,0.0,0.0,0.0,0.0,0.0,0.0,0.0,0.0,-0.0956,-0.1661,-0.1971,0.0,0.0,0.0,0.0,0.0,0.0,0.0,0.0,0.0,0.0,0.0,0.0,0.0,0.0,0.0,0.0,0.0,0.0,0.0,0.0,0.0,0.0,0.0,0.0,0.0,0.0,0.0,0.0,0.0,-0.0947,-0.2179,-0.1906,-0.1906,-0.2179,-0.2179,-0.2189,-0.2204,-0.2204,-0.3573,-0.5478,-0.625,-0.7858,-0.974,-1.0475,-1.0721,-1.0721,-1.0721,-1.0721,-1.0721,-1.0721,-1.0721,-1.0721,-1.0721,-1.0721,-1.0721,-1.0721,-1.0721,-1.0721,-1.0721,-1.0721,-1.0721,-1.0721,-1.0721,-1.0721,-1.0721,-1.0721,-1.0721,-1.0721,-1.0721,-1.0721,-1.0721,-1.0721,-1.0721,-1.0721,-1.0721,-1.0721,-1.0721,-1.0721,-1.0721,-1.0721,-1.0721,-1.0721,-1.0721,-1.0721,-1.1376,-1.2816,-1.4254,-1.5684,-1.698,-1.8798,-1.9839,-0.0273,-0.0187,0.0,0.0,0.0,0.0,0.0,0.0,0.0,0.0,0.0,0.0,0.0,0.0,0.0,0.0,0.0,-0.0936,-0.0138,-0.0976,-0.1701,-0.1746,-0.073,0.0,0.0,0.0,0.0,0.0,0.0,0.0,0.0,0.0,0.0,0.0,0.0,0.0,0.0,0.0,0.0,0.0,0.0,0.0,0.0,0.0,0.0,0.0,0.0,0.0,-0.0,-0.0269,-0.095,-0.2062,-0.22,-0.2204,-0.2211,-0.2211,-0.2226,-0.2245,-0.2245,-0.3362,-0.5164,-0.621,-0.7681,-0.9284,-1.0404,-1.0748,-1.0721,-1.0721,-1.0721,-1.0721,-1.0721,-1.0721,-1.0721,-1.0721,-1.0721,-1.0721,-1.0721,-1.0721,-1.0721,-1.0721,-1.0721,-1.0721,-1.0721,-1.0721,-1.0721,-1.0721,-1.0721,-1.0721,-1.0721,-1.0721,-1.0721,-1.0721,-1.0751,-1.0772,-1.0772,-1.0772,-1.0758,-1.0721,-1.0721,-1.0721,-1.0721,-1.0721,-1.0721,-1.0721,-1.0721,-1.1244,-1.2293,-1.3993,-1.5424,-1.6592,-1.867,-1.9845,-0.1034,-0.0675,0.0,0.0,0.0,0.0,0.0,0.0,0.0,0.0,0.0,0.0,0.0,0.0,0.0,0.0,-0.132,-0.1629,-0.014,0.0,-0.0142,-0.0146,-0.0,0.0,0.0,0.0,0.0,0.0,0.0,0.0,0.0,0.0,0.0,0.0,0.0,0.0,0.0,0.0,0.0,0.0,0.0,0.0,0.0,0.0,0.0,0.0,0.0,0.0,-0.0,-0.0808,-0.1222,-0.1375,-0.2062,-0.2217,-0.2242,-0.2242,-0.2244,-0.2245,-0.2245,-0.406,-0.6565,-0.6698,-0.857,-1.0809,-1.0799,-1.0833,-1.0721,-1.0721,-1.0721,-1.0721,-1.0721,-1.0721,-1.0721,-1.0721,-1.0721,-1.0721,-1.0721,-1.0721,-1.0721,-1.0721,-1.0721,-1.0721,-1.0721,-1.0721,-1.0721,-1.0721,-1.0721,-1.0721,-1.0721,-1.0721,-1.0721,-1.0721,-1.0846,-1.0931,-1.0931,-1.0931,-1.087,-1.0727,-1.0721,-1.0721,-1.0721,-1.0721,-1.0721,-1.0721,-1.0721,-1.0721,-1.085,-1.3604,-1.4907,-1.5168,-1.8547,-2.0106,-0.0458,-0.0665,0.0,0.0,0.0,0.0,0.0,0.0,0.0,0.0,0.0,0.0,0.0,0.0,0.0,0.0,-0.0532,-0.0678,-0.0138,0.0,0.0,0.0,0.0,0.0,0.0,0.0,0.0,0.0,0.0,0.0,0.0,0.0,0.0,0.0,0.0,0.0,0.0,0.0,0.0,0.0,0.0,0.0,0.0,0.0,0.0,0.0,0.0,0.0,-0.0,-0.0808,-0.1228,-0.1254,-0.1968,-0.2274,-0.2297,-0.228,-0.2285,-0.23,-0.23,-0.3015,-0.4153,-0.4969,-0.6587,-0.8301,-0.9189,-1.0028,-1.0721,-1.0721,-1.0721,-1.0721,-1.0721,-1.0721,-1.0721,-1.0721,-1.0721,-1.0721,-1.0721,-1.0721,-1.0721,-1.0721,-1.0721,-1.0721,-1.0721,-1.0721,-1.0721,-1.0721,-1.0721,-1.0721,-1.0721,-1.0802,-1.0863,-1.0863,-1.0992,-1.1084,-1.1084,-1.1084,-1.1056,-1.0999,-1.0822,-1.0721,-1.0721,-1.0721,-1.0721,-1.0721,-1.0721,-1.1115,-1.2033,-1.3993,-1.5429,-1.6597,-1.8938,-2.0234,0.0,-0.0472,0.0,0.0,0.0,0.0,0.0,0.0,0.0,0.0,0.0,0.0,0.0,0.0,0.0,0.0,-0.0267,0.0,0.0,0.0,0.0,0.0,0.0,0.0,0.0,0.0,0.0,0.0,0.0,0.0,0.0,0.0,0.0,0.0,0.0,0.0,0.0,0.0,0.0,0.0,0.0,0.0,0.0,0.0,0.0,0.0,0.0,-0.0269,-0.0673,-0.1346,-0.1506,-0.1546,-0.2145,-0.2316,-0.233,-0.2311,-0.2316,-0.2333,-0.2333,-0.2623,-0.3345,-0.475,-0.6111,-0.7566,-0.8982,-1.009,-1.0792,-1.0792,-1.0758,-1.0741,-1.0836,-1.0792,-1.0721,-1.0721,-1.0721,-1.0721,-1.0721,-1.0721,-1.0721,-1.0721,-1.0721,-1.0721,-1.0721,-1.0721,-1.0721,-1.0721,-1.0761,-1.0792,-1.0792,-1.0924,-1.1033,-1.1084,-1.1175,-1.1236,-1.1236,-1.1236,-1.1212,-1.1165,-1.0931,-1.0792,-1.0792,-1.0748,-1.0721,-1.0721,-1.0721,-1.1115,-1.2161,-1.36,-1.5163,-1.685,-1.867,-1.9839,0.0,0.0,0.0,0.0,0.0,0.0,0.0,0.0,0.0,0.0,0.0,0.0,0.0,0.0,0.0,0.0,-0.08,0.0,0.0,0.0,0.0,0.0,0.0,0.0,0.0,0.0,0.0,0.0,0.0,0.0,0.0,0.0,0.0,0.0,0.0,0.0,0.0,0.0,0.0,0.0,0.0,0.0,0.0,0.0,0.0,0.0,0.0,-0.0808,-0.2155,-0.2155,-0.2191,-0.2251,-0.231,-0.2333,-0.2333,-0.2333,-0.2333,-0.2333,-0.2333,-0.335,-0.4947,-0.6391,-0.7912,-0.9369,-1.0786,-1.1063,-1.0951,-1.0951,-1.0843,-1.0792,-1.1087,-1.0945,-1.0724,-1.0721,-1.0721,-1.0721,-1.0721,-1.0721,-1.0721,-1.0721,-1.0721,-1.0721,-1.0721,-1.0721,-1.0721,-1.0721,-1.0853,-1.0951,-1.0951,-1.1077,-1.1223,-1.1379,-1.1392,-1.1392,-1.1392,-1.1392,-1.1328,-1.1175,-1.1033,-1.0951,-1.0948,-1.0802,-1.0721,-1.0721,-1.0724,-1.0724,-1.0721,-1.2165,-1.3731,-1.5419,-1.7232,-1.8926,0.0,0.0,0.0,0.0,0.0,0.0,0.0,0.0,0.0,0.0,0.0,0.0,0.0,0.0,0.0,0.0,-0.0267,0.0,0.0,0.0,0.0,0.0,0.0,0.0,0.0,0.0,0.0,0.0,0.0,0.0,0.0,0.0,0.0,0.0,0.0,0.0,0.0,0.0,0.0,0.0,0.0,0.0,0.0,0.0,0.0,0.0,0.0,-0.0269,-0.0674,-0.1788,-0.2229,-0.2251,-0.231,-0.2333,-0.2333,-0.2333,-0.2333,-0.2333,-0.2333,-0.2623,-0.3059,-0.3494,-0.5476,-0.7544,-0.7941,-0.9535,-1.1097,-1.1097,-1.1067,-1.105,-1.1138,-1.1097,-1.1006,-1.0904,-1.088,-1.0853,-1.0744,-1.0721,-1.0721,-1.0721,-1.0721,-1.0721,-1.0721,-1.0721,-1.0758,-1.0863,-1.0917,-1.1026,-1.1233,-1.1297,-1.1382,-1.1535,-1.1552,-1.1552,-1.1552,-1.1552,-1.1531,-1.1487,-1.1341,-1.1165,-1.0958,-1.0904,-1.0829,-1.0721,-1.0924,-1.0982,-1.088,-1.2597,-1.4396,-1.626,-1.7995,-1.986,0.1461,0.0,0.0,0.0,0.0,0.0,0.0,0.0,0.0,0.0,0.0,0.0,0.0,0.0,0.0,0.0,0.0,0.0,0.0,0.0,0.0,0.0,0.0,0.0,0.0,0.0,0.0,0.0,0.0,0.0,0.0,0.0,0.0,0.0,0.0,0.0,0.0,0.0,0.0,0.0,0.0,0.0,0.0,0.0,0.0,0.0,0.0,-0.0135,-0.0539,-0.1379,-0.1955,-0.225,-0.2297,-0.2323,-0.2333,-0.2333,-0.2333,-0.2333,-0.2333,-0.2333,-0.2333,-0.306,-0.4488,-0.6173,-0.742,-0.8919,-1.0544,-1.1111,-1.1209,-1.1192,-1.1311,-1.1301,-1.1216,-1.1067,-1.1033,-1.0992,-1.0843,-1.0812,-1.0792,-1.0731,-1.0721,-1.0721,-1.0721,-1.0772,-1.0843,-1.0934,-1.105,-1.1209,-1.145,-1.1484,-1.1518,-1.1609,-1.1619,-1.1619,-1.1619,-1.1619,-1.1619,-1.1619,-1.1474,-1.1311,-1.1131,-1.1067,-1.0989,-1.0897,-1.1073,-1.1121,-1.1033,-1.2209,-1.4156,-1.6586,-1.7669,-1.9554,0.0,0.0,0.0,0.0,0.0,0.0,0.0,0.0,0.0,0.0,0.0,0.0,0.0,0.0,0.0,0.0,0.0,0.0,0.0,0.0,0.0,0.0,0.0,0.0,0.0,0.0,0.0,0.0,0.0,0.0,0.0,0.0,0.0,0.0,0.0,0.0,0.0,0.0,0.0,0.0,0.0,0.0,0.0,0.0,0.0,0.0,0.0,-0.0404,-0.1213,-0.1232,-0.1665,-0.2249,-0.2281,-0.231,-0.2333,-0.2333,-0.2333,-0.2333,-0.2333,-0.2333,-0.2478,-0.4077,-0.4511,-0.5225,-0.8014,-0.8981,-0.9408,-1.0982,-1.1311,-1.1267,-1.1548,-1.1514,-1.1379,-1.124,-1.1196,-1.1145,-1.0999,-1.0968,-1.0928,-1.0789,-1.0751,-1.0744,-1.0758,-1.0863,-1.0958,-1.0985,-1.1229,-1.146,-1.1603,-1.1619,-1.1619,-1.1619,-1.1619,-1.1619,-1.1619,-1.1619,-1.1619,-1.1619,-1.1491,-1.1413,-1.1413,-1.1263,-1.1175,-1.1162,-1.1192,-1.1199,-1.1185,-1.1334,-1.3113,-1.6511,-1.6651,-1.8541,0.0,0.0,0.0,0.0,0.0,0.0,0.0,0.0,0.0,0.0,0.0,0.0,0.0,0.0,0.0,0.0,0.0,0.0,0.0,0.0,0.0,0.0,0.0,0.0,0.0,0.0,0.0,0.0,0.0,0.0,0.0,0.0,0.0,0.0,0.0,0.0,0.0,0.0,0.0,0.0,0.0,0.0,0.0,0.0,0.0,0.0,0.0,-0.0808,-0.2024,-0.1937,-0.2099,-0.2251,-0.2303,-0.2328,-0.2333,-0.2333,-0.2333,-0.2333,-0.2333,-0.2333,-0.2333,-0.2769,-0.3641,-0.509,-0.6947,-0.8239,-0.954,-1.1136,-1.1548,-1.1538,-1.1603,-1.1596,-1.1562,-1.1531,-1.143,-1.1301,-1.1151,-1.1118,-1.1107,-1.1073,-1.0975,-1.0934,-1.1046,-1.1002,-1.1029,-1.126,-1.1453,-1.1582,-1.1616,-1.1619,-1.1619,-1.1619,-1.1619,-1.1619,-1.1619,-1.1619,-1.1619,-1.1619,-1.1589,-1.1569,-1.1569,-1.1423,-1.1287,-1.1165,-1.1399,-1.146,-1.1341,-1.2165,-1.3483,-1.5438,-1.7111,-1.9065,0.0,0.0,0.0,0.0,0.0,0.0,0.0,0.0,0.0,0.0,0.0,0.0,0.2282,0.2014,0.2016,0.2016,0.0941,0.0,0.0,0.0,0.0,0.0,0.0,0.0,0.0,0.0,0.0,0.0,0.0,0.0,0.0,0.0,0.0,0.0,0.0,0.0,0.0,0.0,0.0,0.0,0.0,0.0,0.0,0.0,0.0,-0.0,-0.0808,-0.1346,-0.1752,-0.2052,-0.2211,-0.2228,-0.2273,-0.23,-0.2314,-0.2328,-0.2333,-0.2333,-0.2333,-0.2333,-0.2333,-0.2333,-0.2914,-0.3931,-0.6246,-0.7548,-0.8709,-1.089,-1.1619,-1.1619,-1.1619,-1.1619,-1.1619,-1.1619,-1.1558,-1.1457,-1.1304,-1.127,-1.125,-1.1175,-1.1101,-1.1077,-1.1151,-1.1162,-1.124,-1.1467,-1.1569,-1.1619,-1.1619,-1.1619,-1.1619,-1.1619,-1.1619,-1.1619,-1.1619,-1.1619,-1.1619,-1.1619,-1.1619,-1.1619,-1.1619,-1.1541,-1.1463,-1.1382,-1.1538,-1.1582,-1.1501,-1.2005,-1.3599,-1.6131,-1.7253,-1.9222,0.0,0.0,0.0,0.0,0.0,0.0,0.0,0.0,0.0,0.0,0.0,0.7809,0.5505,0.5101,0.5101,0.5101,0.3088,0.1075,0.0134,0.0,0.0,0.0,0.0,0.0,0.0,0.0,0.0,0.0,0.0,0.0,0.0,0.0,0.0,0.0,0.0,0.0,0.0,0.0,0.0,0.0,0.0,0.0,-0.0,-0.0269,-0.0269,-0.0135,-0.1616,-0.1885,-0.1346,-0.189,-0.2177,-0.2204,-0.2239,-0.2268,-0.2294,-0.2322,-0.2333,-0.2333,-0.2333,-0.2333,-0.2333,-0.2333,-0.2333,-0.2768,-0.5667,-0.6825,-0.7548,-1.0452,-1.1329,-1.1619,-1.1619,-1.1619,-1.1619,-1.1619,-1.1619,-1.1586,-1.1457,-1.143,-1.1392,-1.1267,-1.1243,-1.1233,-1.1206,-1.1331,-1.1474,-1.1599,-1.1619,-1.1619,-1.1619,-1.1619,-1.1619,-1.1619,-1.1619,-1.1619,-1.1619,-1.1619,-1.1619,-1.1619,-1.1619,-1.1619,-1.1619,-1.1619,-1.1619,-1.1619,-1.1619,-1.1619,-1.1619,-1.1763,-1.3456,-1.6409,-1.7112,-1.9072,0.0,0.0,0.0,0.0,0.0,0.0,0.0,0.0,0.0,0.0,0.8603,0.848,0.8071,0.8076,0.8081,0.8081,0.7677,0.5649,0.0672,0.0,0.0,0.0,0.0,0.0,0.0,0.0,0.0,0.0,0.0,0.0,0.0,0.0,0.0,0.0,0.0,0.0,0.0,0.0,0.0,0.0,0.0,0.0,-0.0,-0.1346,-0.1212,-0.0135,-0.1616,-0.2155,-0.2022,-0.2183,-0.2196,-0.2206,-0.2262,-0.2288,-0.2294,-0.2322,-0.2333,-0.2333,-0.2333,-0.2333,-0.2333,-0.2333,-0.2333,-0.2623,-0.4511,-0.5958,-0.7404,-0.9144,-1.0599,-1.1619,-1.1619,-1.1619,-1.1619,-1.1619,-1.1619,-1.1613,-1.1592,-1.1589,-1.1582,-1.1562,-1.1558,-1.1514,-1.1385,-1.1487,-1.1596,-1.1616,-1.1619,-1.1619,-1.1619,-1.1619,-1.1619,-1.1619,-1.1619,-1.1619,-1.1619,-1.1619,-1.1619,-1.1619,-1.1619,-1.1619,-1.1619,-1.1619,-1.1619,-1.1619,-1.1619,-1.1619,-1.1619,-1.233,-1.2896,-1.346,-1.6695,-1.8519,0.0,0.0,0.0,0.0,0.0,0.0,0.0,0.0,0.8201,0.8443,0.8497,0.8524,0.8587,0.8603,0.8606,0.8606,0.8614,0.767,0.5238,0.2014,0.0,0.0,0.0,0.0,0.0,0.0,0.0,0.0,0.0,0.0,0.0,0.0,0.0,0.0,0.0,0.0,0.0,0.0,0.0,0.0,0.0,0.0,-0.0,-0.1481,-0.1885,-0.1212,-0.1885,-0.2155,-0.2156,-0.2169,-0.2174,-0.2179,-0.2223,-0.224,-0.2245,-0.2292,-0.2309,-0.2311,-0.2327,-0.2333,-0.2333,-0.2333,-0.2333,-0.2623,-0.4222,-0.5815,-0.7259,-0.8855,-1.0452,-1.1619,-1.1619,-1.1619,-1.1619,-1.1619,-1.1619,-1.1619,-1.1619,-1.1619,-1.1619,-1.1619,-1.1619,-1.1599,-1.1531,-1.1575,-1.1619,-1.1619,-1.1619,-1.1619,-1.1619,-1.1619,-1.1619,-1.1619,-1.1619,-1.1619,-1.1619,-1.1619,-1.1619,-1.1619,-1.1619,-1.1619,-1.1619,-1.1619,-1.1619,-1.1619,-1.1619,-1.1763,-1.1907,-1.2334,-1.3182,-1.4453,-1.6972,-1.8659,0.0,0.0,0.0,0.0,0.0,0.0,0.0,0.0,0.8114,0.0,0.8397,0.8443,0.8527,0.8568,0.8587,0.8587,0.8598,0.8611,0.8617,0.4836,0.1613,0.0134,0.0,0.0,0.0,0.0,0.0,0.0,0.0,0.0,0.0,0.0,0.0,0.0,0.0,0.0,0.0,0.0,0.0,0.0,0.0,-0.0135,-0.0538,-0.1481,-0.202,-0.2155,-0.2155,-0.2155,-0.2155,-0.2155,-0.2155,-0.2158,-0.2188,-0.22,-0.2206,-0.226,-0.2284,-0.2294,-0.2315,-0.2326,-0.2333,-0.2333,-0.2333,-0.2478,-0.3786,-0.5235,-0.668,-0.8273,-0.987,-1.1181,-1.1476,-1.1619,-1.1619,-1.1619,-1.1619,-1.1619,-1.1619,-1.1619,-1.1619,-1.1619,-1.1619,-1.1619,-1.1619,-1.1619,-1.1619,-1.1619,-1.1619,-1.1619,-1.1619,-1.1619,-1.1619,-1.1619,-1.1619,-1.1619,-1.1619,-1.1619,-1.1619,-1.1619,-1.1619,-1.1619,-1.1619,-1.1619,-1.1619,-1.1763,-1.1763,-1.1907,-1.2194,-1.2338,-1.3325,-1.5017,-1.6972,-1.8653,0.0,0.0,0.0,0.0,0.0,0.0,0.0,0.0,0.8089,0.8217,0.8337,0.8418,0.8424,0.8516,0.8587,0.8587,0.859,0.8598,0.8625,0.8357,0.6189,0.0673,0.0,0.0,0.0,0.0,0.0,0.0,0.0,0.0,0.0,0.0,0.0,0.0,0.0,0.0,0.0,0.0,0.0,0.0,0.0,-0.0673,-0.202,-0.1481,-0.1481,-0.2155,-0.2155,-0.2155,-0.2155,-0.2155,-0.2155,-0.2158,-0.2188,-0.22,-0.2204,-0.2236,-0.2266,-0.2291,-0.2292,-0.231,-0.2333,-0.2333,-0.2333,-0.2333,-0.2333,-0.3495,-0.5091,-0.668,-0.8273,-0.9726,-1.1181,-1.1619,-1.1619,-1.1619,-1.1619,-1.1619,-1.1619,-1.1619,-1.1619,-1.1619,-1.1619,-1.1619,-1.1619,-1.1619,-1.1619,-1.1619,-1.1619,-1.1619,-1.1619,-1.1619,-1.1619,-1.1619,-1.1619,-1.1619,-1.1619,-1.1619,-1.1619,-1.1619,-1.1619,-1.1619,-1.1619,-1.1619,-1.1763,-1.2198,-1.2198,-1.2194,-1.2194,-1.2613,-1.3039,-1.3468,-1.6836,-1.8379,0.0,0.0,0.0,0.6497,0.694,0.747,0.7592,0.7796,0.797,0.8095,0.8152,0.8209,0.8285,0.8456,0.8587,0.8587,0.8587,0.8595,0.8617,0.6993,0.5783,0.5527,0.2289,0.0,0.0,0.0,0.0,0.0,0.0,0.0,0.0,0.0,0.0,0.0,0.0,0.0,0.0,0.0,0.0,0.0,0.0,-0.0804,-0.2126,-0.1877,-0.1885,-0.2155,-0.2155,-0.2155,-0.2155,-0.2155,-0.2155,-0.2156,-0.2166,-0.2171,-0.2174,-0.2205,-0.2223,-0.2238,-0.2277,-0.2298,-0.2309,-0.2326,-0.2333,-0.2333,-0.2333,-0.3496,-0.4802,-0.538,-0.7406,-0.9435,-1.0017,-1.089,-1.1619,-1.1619,-1.1619,-1.1619,-1.1619,-1.1619,-1.1619,-1.1619,-1.1619,-1.1619,-1.1619,-1.1619,-1.1619,-1.1619,-1.1619,-1.1619,-1.1619,-1.1619,-1.1619,-1.1619,-1.1619,-1.1619,-1.1619,-1.1619,-1.1619,-1.1619,-1.1619,-1.1619,-1.1619,-1.1619,-1.1763,-1.2194,-1.2194,-1.2481,-1.2904,-1.3043,-1.3325,-1.3757,-1.5867,-1.7409,0.5402,0.0,0.0,0.0,0.0,0.7122,0.7331,0.7554,0.7725,0.7847,0.7937,0.803,0.8152,0.8334,0.8484,0.8524,0.8562,0.8595,0.8617,0.618,0.4702,0.566,0.2289,0.0,0.0,0.0,0.0,0.0,0.0,0.0,0.0,0.0,0.0,0.0,0.0,-0.0267,-0.0668,-0.0802,-0.0665,-0.0395,-0.0133,-0.0798,-0.211,-0.213,-0.214,-0.214,-0.215,-0.2155,-0.2155,-0.2155,-0.2155,-0.2155,-0.2155,-0.2155,-0.2157,-0.2177,-0.2191,-0.2206,-0.2247,-0.2267,-0.2279,-0.2297,-0.231,-0.2319,-0.2319,-0.3049,-0.4077,-0.4511,-0.654,-0.8709,-0.9144,-1.0452,-1.1619,-1.1619,-1.1619,-1.1619,-1.1619,-1.1619,-1.1619,-1.1619,-1.1619,-1.1619,-1.1619,-1.1619,-1.1619,-1.1619,-1.1619,-1.1619,-1.1619,-1.1619,-1.1619,-1.1619,-1.1619,-1.1619,-1.1619,-1.1619,-1.1619,-1.1619,-1.1619,-1.1619,-1.1619,-1.1619,-1.1907,-1.2334,-1.2334,-1.276,-1.3472,-1.3325,-1.3472,-1.39,-1.5452,-1.7132,0.0,0.0,0.0,0.0,0.0,0.0,0.7056,0.0,0.7361,0.7491,0.7701,0.7899,0.8027,0.8147,0.8269,0.8388,0.8505,0.8592,0.8625,0.6182,0.3222,0.0404,0.0,0.0,0.0,0.0,-0.0,-0.0,-0.0,-0.0,-0.0,-0.0,-0.0,-0.0,-0.0,-0.0659,-0.211,-0.2243,-0.1846,-0.1186,-0.0396,-0.0791,-0.2108,-0.2109,-0.2109,-0.211,-0.214,-0.2153,-0.2153,-0.2155,-0.2155,-0.2155,-0.2155,-0.2155,-0.2155,-0.2155,-0.2174,-0.2199,-0.22,-0.2219,-0.2245,-0.2245,-0.2265,-0.229,-0.229,-0.231,-0.2622,-0.4222,-0.5815,-0.7404,-0.9,-1.0455,-1.1619,-1.1619,-1.1619,-1.1619,-1.1619,-1.1619,-1.1619,-1.1619,-1.1619,-1.1619,-1.1619,-1.1619,-1.1619,-1.1619,-1.1619,-1.1619,-1.1619,-1.1619,-1.1619,-1.1619,-1.1619,-1.1619,-1.1619,-1.1619,-1.1619,-1.1619,-1.1619,-1.1619,-1.1619,-1.1619,-1.2047,-1.2753,-1.2753,-1.3182,-1.39,-1.3472,-1.3468,-1.39,-1.5452,-1.7695,0.5211,0.0,0.0,0.0,0.0,0.0,0.0,0.0,0.7059,0.7459,0.757,0.7679,0.7883,0.8021,0.8117,0.8149,0.8329,0.8503,0.8614,0.6182,0.3222,0.0404,0.0,0.0,0.0,0.0,-0.0399,0.0,-0.16,-0.1332,-0.0807,-0.0808,-0.0808,-0.0808,-0.0805,-0.0937,-0.1338,-0.1874,-0.2131,-0.1846,-0.1731,-0.1721,-0.2077,-0.2099,-0.2097,-0.2078,-0.2108,-0.2122,-0.2123,-0.2146,-0.2155,-0.2155,-0.2155,-0.2155,-0.2155,-0.2155,-0.216,-0.217,-0.2192,-0.2206,-0.2216,-0.2238,-0.2251,-0.2262,-0.2284,-0.2296,-0.2451,-0.2908,-0.4944,-0.7548,-1.0308,-1.1329,-1.1619,-1.1619,-1.1619,-1.1619,-1.1619,-1.1619,-1.1619,-1.1619,-1.1619,-1.1619,-1.1619,-1.1619,-1.1619,-1.1619,-1.1619,-1.1619,-1.1619,-1.1619,-1.1619,-1.1619,-1.1619,-1.1619,-1.1619,-1.1619,-1.1619,-1.1619,-1.1619,-1.1619,-1.1619,-1.1619,-1.2047,-1.2753,-1.2753,-1.3182,-1.39,-1.3757,-1.3757,-1.39,-1.5452,-1.6574,0.0,0.0,0.0,0.0,0.0,0.0,0.6377,0.6559,0.6744,0.0,0.726,0.7383,0.7671,0.7782,0.788,0.803,0.8174,0.8315,0.8454,0.6074,0.3166,0.0396,-0.0532,-0.0932,-0.0795,-0.0528,-0.0792,-0.1587,-0.198,-0.199,-0.1615,-0.1616,-0.1616,-0.1616,-0.1616,-0.1616,-0.1616,-0.202,-0.2146,-0.2261,-0.2121,-0.2098,-0.2064,-0.2069,-0.2062,-0.2047,-0.2077,-0.2091,-0.2093,-0.2123,-0.2143,-0.2155,-0.2155,-0.2155,-0.2155,-0.2155,-0.2155,-0.2157,-0.2175,-0.2181,-0.2184,-0.2202,-0.2216,-0.223,-0.2247,-0.2262,-0.2278,-0.2307,-0.4636,-0.7693,-1.0746,-1.1619,-1.1619,-1.1619,-1.1619,-1.1619,-1.1619,-1.1619,-1.1619,-1.1619,-1.1619,-1.1619,-1.1619,-1.1619,-1.1619,-1.1619,-1.1619,-1.1619,-1.1619,-1.1619,-1.1619,-1.1619,-1.1619,-1.1619,-1.1619,-1.1619,-1.1619,-1.1619,-1.1619,-1.1619,-1.1619,-1.1619,-1.1903,-1.2474,-1.2757,-1.3182,-1.39,-1.39,-1.39,-1.39,-1.4746,-1.5447,0.0,0.0,0.0,0.0,0.0,0.0,0.611,0.631,0.6488,0.6733,0.6869,0.7054,0.7415,0.7481,0.7587,0.803,0.8105,0.8187,0.8375,0.6325,0.3614,0.0388,-0.1177,-0.1968,-0.1945,-0.1436,-0.1175,-0.1162,-0.1831,-0.2254,-0.2148,-0.2153,-0.2155,-0.2155,-0.2155,-0.2155,-0.2155,-0.2151,-0.2151,-0.2154,-0.2093,-0.2065,-0.2067,-0.2034,-0.2018,-0.202,-0.2047,-0.2059,-0.2061,-0.2092,-0.2122,-0.215,-0.2153,-0.2155,-0.2155,-0.2155,-0.2155,-0.2155,-0.2155,-0.2155,-0.2155,-0.2155,-0.2173,-0.2196,-0.2199,-0.2219,-0.2247,-0.2707,-0.4892,-0.7682,-1.0743,-1.1619,-1.1619,-1.1619,-1.1619,-1.1619,-1.1619,-1.1619,-1.1619,-1.1619,-1.1619,-1.1619,-1.1619,-1.1619,-1.1619,-1.1619,-1.1619,-1.1619,-1.1619,-1.1619,-1.1619,-1.1619,-1.1619,-1.1619,-1.1619,-1.1619,-1.1619,-1.1619,-1.1619,-1.1619,-1.1619,-1.1619,-1.1763,-1.2194,-1.2613,-1.3186,-1.39,-1.39,-1.39,-1.39,-1.39,-1.4604,0.0,0.0,0.0,0.0,0.0,0.0,0.5943,0.6168,0.6479,0.6608,0.6673,0.6806,0.7293,0.7477,0.7505,0.7932,0.7991,0.806,0.8326,0.8,0.5655,0.0665,-0.0265,-0.0789,-0.1839,-0.1934,-0.179,-0.1804,-0.1961,-0.2112,-0.2118,-0.2142,-0.2155,-0.2155,-0.2155,-0.2155,-0.2155,-0.213,-0.2131,-0.2154,-0.2093,-0.2077,-0.2098,-0.2044,-0.2018,-0.2019,-0.2024,-0.2027,-0.203,-0.206,-0.2091,-0.2121,-0.2145,-0.2155,-0.2155,-0.2155,-0.2155,-0.2155,-0.2155,-0.2155,-0.2155,-0.2155,-0.2159,-0.2168,-0.2193,-0.2204,-0.2774,-0.5244,-0.6429,-0.7598,-1.0862,-1.1619,-1.1619,-1.1619,-1.1619,-1.1619,-1.1619,-1.1619,-1.1619,-1.1619,-1.1619,-1.1619,-1.1619,-1.1619,-1.1619,-1.1619,-1.1619,-1.1619,-1.1619,-1.1619,-1.1619,-1.1619,-1.1619,-1.1619,-1.1619,-1.1619,-1.1619,-1.1619,-1.1619,-1.1619,-1.1619,-1.1619,-1.1763,-1.2194,-1.2904,-1.3468,-1.39,-1.39,-1.39,-1.39,-1.39,-1.4043,0.0,0.0,0.0,0.601,0.0,0.0,0.0,0.6092,0.6176,0.6467,0.6434,0.6464,0.694,0.6468,0.6072,0.6406,0.6485,0.6713,0.6858,0.7668,0.7162,0.4377,0.2462,0.0649,-0.1291,-0.1936,-0.2065,-0.2064,-0.2064,-0.2077,-0.2108,-0.2123,-0.2139,-0.2155,-0.2155,-0.2155,-0.2155,-0.214,-0.214,-0.2154,-0.2108,-0.2086,-0.2085,-0.2039,-0.2011,-0.1997,-0.1997,-0.1997,-0.2,-0.2029,-0.2059,-0.209,-0.212,-0.2142,-0.2155,-0.2155,-0.2155,-0.2155,-0.2155,-0.2155,-0.2155,-0.2155,-0.2155,-0.2157,-0.2173,-0.2188,-0.2894,-0.5988,-0.6912,-0.7564,-1.0766,-1.1562,-1.1619,-1.1619,-1.1619,-1.1619,-1.1619,-1.1619,-1.1619,-1.1619,-1.1619,-1.1619,-1.1619,-1.1619,-1.1619,-1.1619,-1.1619,-1.1619,-1.1619,-1.1619,-1.1619,-1.1619,-1.1619,-1.1619,-1.1619,-1.1619,-1.1619,-1.1619,-1.1619,-1.1619,-1.1619,-1.1619,-1.1763,-1.2194,-1.2621,-1.3043,-1.3615,-1.3615,-1.3757,-1.39,-1.39,-1.39,0.0,0.0,0.0,0.0,0.0,0.607,0.0,0.0,0.0,0.0,0.0,0.0,0.643,0.5644,0.4654,0.3845,0.3854,0.4159,0.4513,0.6001,0.7299,0.7495,0.4765,0.1772,-0.1003,-0.1782,-0.2057,-0.2055,-0.2022,-0.2031,-0.2097,-0.2101,-0.2112,-0.2136,-0.2143,-0.2146,-0.2146,-0.2146,-0.2148,-0.2155,-0.2112,-0.2085,-0.2071,-0.2029,-0.2001,-0.1984,-0.1979,-0.1977,-0.1978,-0.2001,-0.2028,-0.2059,-0.2095,-0.2128,-0.2155,-0.2155,-0.2155,-0.2155,-0.2155,-0.2155,-0.2155,-0.2155,-0.2155,-0.2155,-0.2155,-0.2172,-0.2738,-0.5474,-0.6537,-0.7499,-1.0208,-1.1318,-1.1575,-1.1575,-1.1599,-1.1619,-1.1619,-1.1619,-1.1619,-1.1619,-1.1619,-1.1619,-1.1619,-1.1619,-1.1619,-1.1619,-1.1619,-1.1619,-1.1619,-1.1619,-1.1619,-1.1619,-1.1619,-1.1619,-1.1619,-1.1619,-1.1619,-1.1619,-1.1619,-1.1619,-1.1619,-1.1619,-1.1763,-1.2194,-1.2338,-1.2621,-1.3325,-1.3325,-1.3611,-1.39,-1.39,-1.39,0.0,0.0,0.0,0.0,0.6393,0.0,0.0,0.0,0.0,0.6279,0.0,0.0,0.0,0.0,0.0,0.0,0.0,0.0,0.1711,0.2986,0.4026,0.5163,0.3506,0.1211,-0.1577,-0.178,-0.1913,-0.2016,-0.1972,-0.1979,-0.2065,-0.2069,-0.2071,-0.2074,-0.21,-0.2114,-0.2114,-0.2114,-0.2128,-0.2154,-0.2069,-0.2055,-0.2101,-0.2019,-0.1993,-0.2012,-0.1988,-0.1977,-0.1977,-0.198,-0.1998,-0.2029,-0.2087,-0.2128,-0.2155,-0.2155,-0.2155,-0.2155,-0.2155,-0.2155,-0.2155,-0.2155,-0.2155,-0.2155,-0.2155,-0.2157,-0.257,-0.4234,-0.5764,-0.717,-0.8791,-1.0318,-1.1416,-1.1416,-1.1521,-1.1619,-1.1619,-1.1619,-1.1619,-1.1619,-1.1619,-1.1619,-1.1619,-1.1619,-1.1619,-1.1619,-1.1619,-1.1619,-1.1619,-1.1619,-1.1619,-1.1619,-1.1619,-1.1619,-1.1619,-1.1619,-1.1619,-1.1619,-1.1619,-1.1619,-1.1619,-1.1619,-1.1763,-1.2194,-1.2617,-1.2896,-1.3325,-1.3615,-1.39,-1.39,-1.39,-1.39,0.0,0.0,0.0,0.0,0.0,0.0,0.6086,0.0,0.6015,0.0,0.0,0.0,0.0,0.0,0.0,0.0,0.1116,0.0,-0.0203,0.1582,0.3308,0.4486,0.0,0.0,-0.1686,-0.1892,-0.1895,-0.1962,-0.1912,-0.1925,-0.2032,-0.2022,-0.2037,-0.2089,-0.2086,-0.2083,-0.2083,-0.2101,-0.2107,-0.2102,-0.2099,-0.2083,-0.2056,-0.2036,-0.2015,-0.1993,-0.1981,-0.1977,-0.1977,-0.1977,-0.1993,-0.2021,-0.2047,-0.2086,-0.2131,-0.2148,-0.2155,-0.2155,-0.2155,-0.2155,-0.2155,-0.2155,-0.2155,-0.2155,-0.2155,-0.2155,-0.2561,-0.3924,-0.5446,-0.699,-0.8544,-1.0095,-1.1392,-1.1392,-1.1508,-1.1619,-1.1619,-1.1619,-1.1619,-1.1619,-1.1619,-1.1619,-1.1619,-1.1619,-1.1619,-1.1619,-1.1619,-1.1619,-1.1619,-1.1619,-1.1619,-1.1619,-1.1619,-1.1619,-1.1619,-1.1619,-1.1619,-1.1619,-1.1619,-1.1619,-1.1619,-1.1619,-1.1619,-1.1907,-1.2191,-1.2617,-1.3039,-1.3325,-1.3615,-1.39,-1.39,-1.39,0.6578,0.0,0.0,0.0,0.0,0.0,0.0,0.0,0.0,0.0,0.0,0.0,0.0,0.0,0.0,0.0,0.0,0.1618,0.0,0.0305,0.0,0.0,0.0,0.0,0.0,-0.1847,-0.1851,-0.1914,-0.1855,-0.1868,-0.1988,-0.1975,-0.1994,-0.2059,-0.2054,-0.2051,-0.2051,-0.2082,-0.2086,-0.2064,-0.21,-0.2082,-0.2019,-0.2033,-0.2017,-0.1977,-0.1977,-0.1977,-0.1977,-0.1977,-0.1988,-0.2007,-0.2016,-0.205,-0.2101,-0.2131,-0.2147,-0.2155,-0.2155,-0.2155,-0.2155,-0.2155,-0.216,-0.2166,-0.2157,-0.2161,-0.2435,-0.35,-0.487,-0.6399,-0.7755,-0.944,-1.0904,-1.1188,-1.1477,-1.1619,-1.1619,-1.1619,-1.1619,-1.1619,-1.1619,-1.1619,-1.1619,-1.1619,-1.1619,-1.1619,-1.1619,-1.1619,-1.1619,-1.1619,-1.1619,-1.1619,-1.1619,-1.1619,-1.1619,-1.1619,-1.1619,-1.1619,-1.1619,-1.1619,-1.1619,-1.1763,-1.1763,-1.1763,-1.2191,-1.2617,-1.2896,-1.3325,-1.3615,-1.39,-1.39,-1.39,0.0,0.0,0.0,0.6415,0.0,0.0,0.0,0.0,0.6385,0.0,0.0,0.0,0.0,0.0,0.0,0.0,0.0,0.0,0.0,0.0,0.0,0.0,0.0,0.0,0.0,-0.1703,-0.173,-0.1877,-0.1804,-0.1806,-0.1927,-0.1933,-0.1934,-0.1937,-0.1991,-0.202,-0.202,-0.205,-0.2065,-0.2063,-0.2036,-0.2021,-0.2018,-0.1991,-0.1978,-0.1977,-0.1977,-0.1977,-0.1977,-0.1977,-0.1977,-0.1981,-0.2008,-0.2037,-0.2069,-0.2099,-0.2129,-0.2155,-0.2155,-0.2155,-0.2155,-0.2155,-0.2174,-0.2193,-0.2163,-0.2175,-0.2192,-0.2298,-0.3229,-0.4704,-0.6172,-0.7803,-0.9501,-1.0892,-1.1399,-1.1619,-1.1619,-1.1619,-1.1619,-1.1619,-1.1619,-1.1619,-1.1619,-1.1619,-1.1619,-1.1619,-1.1619,-1.1619,-1.1619,-1.1619,-1.1619,-1.1619,-1.1619,-1.1619,-1.1619,-1.1619,-1.1619,-1.1619,-1.1619,-1.1619,-1.1619,-1.1907,-1.2194,-1.2194,-1.29,-1.3325,-1.3325,-1.3757,-1.39,-1.39,-1.39,-1.39,0.0,0.0,0.7271,0.6752,0.0,0.0,0.0,0.0,0.0,0.0,0.0,0.0,0.0,0.0,0.0,0.0,0.0,0.0,0.0,0.0,0.0,0.0,0.0,0.0,0.0,0.0,-0.1699,-0.1789,-0.1748,-0.1773,-0.1894,-0.1901,-0.1919,-0.196,-0.198,-0.1991,-0.1991,-0.202,-0.2024,-0.2007,-0.2035,-0.2029,-0.1991,-0.2001,-0.1994,-0.1977,-0.1977,-0.1977,-0.1977,-0.1977,-0.1977,-0.1977,-0.1987,-0.202,-0.2067,-0.2098,-0.2129,-0.2155,-0.2155,-0.2155,-0.2158,-0.2178,-0.2191,-0.2198,-0.2188,-0.2192,-0.2193,-0.2163,-0.3228,-0.4434,-0.4835,-0.6981,-0.9079,-0.9634,-1.0687,-1.1619,-1.1619,-1.1619,-1.1619,-1.1619,-1.1619,-1.1619,-1.1619,-1.1619,-1.1619,-1.1619,-1.1619,-1.1619,-1.1619,-1.1619,-1.1619,-1.1619,-1.1619,-1.1619,-1.1619,-1.1619,-1.1619,-1.1619,-1.1619,-1.1619,-1.1619,-1.1763,-1.1907,-1.2194,-1.276,-1.3039,-1.3325,-1.3757,-1.39,-1.39,-1.39,-1.39,0.7241,0.7396,0.0,0.6989,0.6899,0.0,0.632,0.0,0.0,0.0,0.0,0.0,0.0,0.0,0.0,0.0,0.0,0.0,0.0,-0.0772,0.0,0.0,0.0,0.0,0.0,-0.1637,-0.1654,-0.1714,-0.17,-0.1733,0.0,-0.1858,-0.1892,-0.1943,-0.1955,-0.1966,-0.1977,-0.1994,-0.1994,-0.1977,-0.2015,-0.2014,-0.1977,-0.1995,-0.1994,-0.1977,-0.1977,-0.1977,-0.1977,-0.1977,-0.1977,-0.1977,-0.1977,-0.2012,-0.2066,-0.2086,-0.2119,-0.2155,-0.2155,-0.2161,-0.2174,-0.2193,-0.2215,-0.2228,-0.2206,-0.2208,-0.2208,-0.2166,-0.2826,-0.3764,-0.4833,-0.6549,-0.8469,-0.9483,-1.0649,-1.1552,-1.1606,-1.1619,-1.1619,-1.1619,-1.1619,-1.1619,-1.1619,-1.1619,-1.1619,-1.1619,-1.1619,-1.1619,-1.1619,-1.1619,-1.1619,-1.1619,-1.1619,-1.1619,-1.1619,-1.1619,-1.1619,-1.1619,-1.1619,-1.1619,-1.1619,-1.1903,-1.2187,-1.2477,-1.29,-1.3329,-1.3468,-1.3757,-1.39,-1.39,-1.39,-1.39]}]]